GFSSW_con_3kmhel_000.txt.gz
Helicity
21 11 16 21 23 26 37 38 44 44 45 75 92 14 18 39 65 78 64 60 68 36 91 102 109 118 124 141 154 166 200 117 132 121 108 55 81 113 127 128 140 121 105 80 57
34 21 9 16 18 22 32 38 39 44 43 59 84 64 10 39 47 24 49 36 61 78 128 110 102 113 130 130 165 180 190 121 129 103 59 38 52 95 107 126 141 132 98 83 67
32 36 4 7 29 16 25 35 35 36 34 48 66 63 40 76 66 20 28 6 28 65 104 88 88 95 121 148 185 190 132 131 132 81 52 25 26 18 52 50 66 89 100 83 59
37 23 29 15 24 13 22 33 40 42 42 42 66 69 63 89 51 49 65 69 47 95 114 92 93 103 100 139 140 190 162 112 105 84 68 43 34 56 66 46 54 99 125 99 72
17 28 29 13 4 14 22 32 38 40 35 38 51 70 84 89 69 75 90 76 52 136 114 71 105 106 99 106 160 171 133 130 106 87 70 44 36 34 38 99 111 102 121 117 84
30 27 19 36 11 34 26 37 36 40 39 38 55 68 91 80 59 116 155 161 100 81 67 93 71 83 88 89 130 190 171 128 108 81 59 44 20 56 5 14 71 103 103 119 107
107 31 14 36 29 19 27 34 26 25 36 45 53 65 62 30 76 91 182 154 148 110 99 92 108 136 159 88 132 96 113 111 101 100 91 55 17 49 50 39 55 71 95 124 109
204 105 50 13 72 18 30 31 35 60 37 40 72 61 25 39 54 52 90 114 100 96 104 85 88 105 152 149 163 128 123 117 110 115 133 92 55 15 113 96 81 65 87 107 116
76 211 104 54 73 64 43 39 81 88 95 87 76 56 9 66 74 65 89 80 115 123 101 98 111 111 145 187 162 148 181 155 155 173 154 126 77 17 40 92 87 91 75 100 115
131 68 188 98 39 104 81 70 95 121 152 129 94 56 56 39 82 124 97 136 129 137 148 139 151 181 220 240 222 173 188 137 101 110 195 144 91 55 61 61 58 53 58 68 65
136 117 126 153 52 167 237 182 172 123 135 100 68 97 70 70 131 120 107 169 177 195 156 168 179 212 138 145 162 200 187 159 155 140 100 128 93 39 40 47 43 25 2 14 34
101 140 95 180 64 229 263 184 133 88 59 39 77 57 95 144 123 130 103 142 196 179 218 210 144 147 171 173 174 152 139 147 123 134 113 74 5 20 10 10 16 27 14 43 46
114 105 129 138 51 345 233 178 137 105 75 59 85 96 132 116 111 92 125 184 182 228 197 197 211 144 177 248 227 220 185 183 124 134 127 69 -105 5 29 45 40 30 38 41 61
105 196 135 104 131 383 296 222 148 98 110 43 77 91 161 203 97 137 164 198 236 144 164 156 175 215 215 225 216 157 162 123 128 135 102 70 -60 -3 89 118 120 84 91 50 75
68 173 83 84 -4 447 265 273 138 131 163 70 113 116 112 186 181 143 163 196 192 182 227 190 186 173 185 224 210 236 103 131 145 184 161 155 178 -100 -93 13 69 97 80 79 94
116 153 125 69 111 341 217 190 187 252 162 84 99 103 108 104 156 157 122 134 172 169 187 198 191 207 222 189 165 243 175 161 173 167 172 140 197 -141 -2 -69 7 87 92 104 133
84 53 35 117 226 261 272 324 349 238 160 90 97 98 90 139 124 137 118 146 186 204 190 176 145 305 235 206 170 171 205 270 219 241 220 63 37 142 117 106 13 79 117 83 115
146 29 -41 94 132 243 250 350 284 138 175 94 108 157 152 144 106 111 134 155 112 207 207 196 174 260 202 184 149 169 202 247 245 238 116 88 123 36 3 49 65 -13 161 68 95
59 18 -52 35 136 399 310 329 160 144 143 158 104 125 107 109 130 116 114 131 153 229 182 214 207 175 173 148 138 174 185 110 181 141 139 122 97 31 1 21 36 49 71 110 92
31 33 -14 153 254 278 270 221 220 211 133 128 118 106 108 92 128 106 101 100 68 178 146 217 170 134 115 117 60 136 148 180 238 174 174 112 94 50 60 54 88 90 41 76 142
12 21 -19 33 194 331 235 226 191 145 109 93 105 125 86 88 71 100 113 94 62 65 172 233 243 172 134 171 184 151 128 172 162 196 139 83 31 -7 32 13 14 26 83 104 130
27 84 -46 114 159 164 193 216 156 135 115 105 100 91 56 49 52 83 45 40 73 166 150 161 145 179 220 78 71 123 109 185 238 201 190 184 68 83 56 10 13 64 78 75 120
14 35 40 163 146 157 178 179 175 115 88 71 60 61 65 64 73 -34 89 29 138 172 105 162 108 106 130 138 158 113 107 94 40 28 -34 17 -7 -88 15 16 68 124 75 83 176
31 66 144 68 163 136 117 128 119 97 61 67 51 82 68 -16 -24 27 43 34 78 112 119 165 123 160 236 169 70 97 137 91 37 42 94 79 25 -5 -38 69 107 116 222 226 134
68 141 156 108 78 95 115 54 60 74 47 35 21 17 38 -1 -14 5 -22 -33 61 85 135 135 207 195 244 175 143 133 73 121 193 148 103 127 78 124 -26 67 194 271 365 233 154
81 85 92 58 -6 94 103 36 23 29 29 9 27 12 -8 10 15 19 -15 -1 63 92 170 162 208 258 477 393 343 271 105 50 105 145 202 188 152 54 45 293 422 338 354 207 101
45 134 92 49 73 82 64 29 24 30 17 18 5 3 8 3 7 -3 -1 -23 -15 66 167 184 309 366 247 114 176 179 196 160 52 108 117 198 320 59 195 342 167 126 142 122 71

GFSSW_con_3kmhel_003.txt.gz
Helicity
26 10 15 11 25 12 17 31 45 52 48 56 102 133 39 61 104 86 70 59 58 62 102 110 123 119 136 142 169 174 210 140 126 104 106 56 42 68 103 111 125 118 115 103 97
30 29 -0 24 11 12 18 28 32 46 56 68 108 145 19 60 80 46 69 32 55 57 109 109 115 126 157 147 162 184 203 131 130 119 83 83 70 69 108 140 139 169 149 108 73
25 33 25 21 9 21 23 28 33 36 54 73 106 121 57 47 80 35 42 9 23 47 93 103 100 114 142 160 161 169 120 147 121 87 107 66 61 43 81 76 86 127 166 162 119
120 37 31 19 26 17 11 31 38 43 53 69 94 110 83 73 117 44 72 51 17 78 108 105 111 108 101 127 142 151 106 85 76 106 78 47 43 52 65 56 60 96 135 153 186
76 143 41 27 20 9 1 29 37 38 44 59 84 97 95 81 66 39 29 35 50 112 85 97 101 80 69 71 130 136 95 94 101 123 111 78 41 29 -5 40 87 116 112 141 162
120 79 156 56 28 40 21 27 31 35 50 53 74 76 85 50 45 83 61 93 78 41 77 70 64 74 75 89 119 132 112 99 66 46 92 92 39 100 31 24 66 81 119 125 134
198 170 166 131 70 34 41 20 27 34 52 59 65 72 65 38 41 72 131 110 117 79 84 75 75 100 84 81 107 102 90 64 68 62 82 83 60 78 49 94 87 90 93 121 131
134 208 46 237 103 43 59 14 21 36 36 54 68 69 34 41 36 22 73 100 96 91 101 80 88 104 91 97 112 87 71 75 85 111 99 118 60 132 147 105 83 73 115 107 113
108 193 50 133 203 95 90 51 49 71 77 60 81 54 34 43 39 32 69 74 87 90 95 89 90 87 117 112 98 108 106 81 103 84 116 87 73 79 99 121 78 95 119 103 119
119 130 146 54 181 153 79 142 139 125 136 118 86 48 55 42 52 77 111 103 107 127 133 119 131 133 144 158 120 69 110 89 99 95 133 106 68 65 77 86 76 88 117 112 117
123 113 123 162 96 125 215 348 269 134 108 73 40 95 88 67 76 87 104 167 152 140 112 130 143 137 101 137 153 150 115 97 99 96 77 64 30 54 71 77 65 53 27 63 84
95 94 101 128 131 178 269 449 216 57 46 47 95 56 86 81 93 101 98 107 127 106 142 134 83 97 144 135 106 92 78 82 78 83 97 58 -34 21 58 64 68 41 20 22 54
28 34 76 76 188 45 191 242 282 174 72 60 69 89 100 91 92 77 111 133 119 145 128 147 150 164 74 119 99 81 86 92 73 93 125 80 -31 -17 12 57 114 104 68 53 52
40 45 74 102 100 34 183 309 151 151 81 28 68 80 141 189 93 122 118 126 135 83 113 84 114 141 166 150 149 86 160 118 118 141 114 133 56 33 64 45 61 91 65 64 70
58 51 56 55 104 66 206 220 191 184 106 71 115 126 105 167 133 132 157 195 177 156 179 120 104 124 99 150 170 171 149 162 175 156 166 143 188 14 59 71 66 75 65 71 69
133 96 100 13 33 49 150 485 319 375 142 94 87 105 137 150 181 169 105 140 136 127 112 119 160 158 148 131 155 199 209 211 265 234 237 164 127 -22 -12 -71 -26 22 43 60 58
2 107 93 61 84 11 149 382 376 270 168 104 99 92 78 125 142 112 116 114 128 130 117 110 100 191 193 183 171 225 270 233 256 364 324 71 -3 143 31 93 46 72 22 60 119
65 282 1 24 53 93 379 404 304 240 272 101 102 104 123 119 113 116 114 111 75 138 128 110 141 80 114 78 164 237 260 303 268 216 139 130 112 107 -88 -10 -42 13 51 94 41
243 39 36 53 63 270 298 256 182 121 190 164 128 139 140 142 131 120 82 83 90 199 126 135 110 88 71 108 165 221 252 197 269 218 200 173 124 98 66 34 3 71 108 134 11
-32 -6 48 26 4 150 203 188 328 202 150 154 107 68 50 82 111 80 58 57 70 145 92 169 119 119 142 198 175 219 189 210 216 185 154 134 80 80 69 1 34 52 75 132 119
16 4 48 89 42 157 156 243 171 148 112 101 140 130 79 95 73 80 55 53 34 89 128 144 132 201 184 168 276 232 270 194 164 183 205 102 50 -2 -18 -6 78 37 43 117 148
27 112 76 108 202 194 112 159 147 138 175 122 86 99 99 61 47 55 29 -14 74 162 112 104 141 211 215 228 146 211 232 170 170 167 178 197 16 32 -21 49 -40 15 47 100 144
107 53 20 114 167 250 207 206 165 135 110 110 98 80 56 22 20 19 15 8 137 152 111 149 192 141 162 193 224 316 347 239 145 160 69 87 124 83 -3 -35 -4 -3 87 109 139
11 71 129 164 73 179 171 204 178 127 86 81 69 82 52 25 16 13 2 33 87 70 83 158 238 263 286 242 218 353 275 247 196 194 101 222 210 147 56 -101 24 22 23 143 163
74 48 149 56 67 110 137 139 124 98 79 55 59 39 32 10 -2 6 -4 -2 85 46 95 208 212 237 366 437 414 409 366 231 234 259 270 48 169 159 123 91 -66 -34 104 204 151
37 110 118 120 58 89 98 80 80 59 52 30 44 16 25 27 9 -4 -6 13 -8 48 186 193 226 221 330 352 299 345 343 295 296 215 276 181 122 90 48 -43 -4 137 427 225 186
50 165 141 95 56 35 42 45 27 27 31 27 30 25 10 8 -19 -33 -32 -35 -2 52 136 133 175 243 376 267 201 118 125 289 258 241 184 272 299 14 31 -2 351 619 562 194 189

GFSSW_con_3kmhel_006.txt.gz
Helicity
96 36 31 19 14 8 -4 -3 17 24 37 50 56 87 102 108 123 83 58 93 77 59 83 115 93 97 102 109 136 149 135 97 59 33 57 77 35 48 88 83 92 88 150 179 136
128 93 39 28 16 20 13 4 11 26 37 46 60 100 78 77 62 54 78 49 55 80 71 102 85 91 106 109 135 121 123 53 73 72 57 57 70 90 97 79 89 102 105 133 138
162 128 109 62 43 35 28 13 9 30 36 48 65 110 106 55 76 79 52 21 36 47 93 110 100 99 105 134 136 137 85 58 68 59 50 47 53 61 68 89 74 97 147 170 194
131 157 112 119 79 29 34 17 6 30 46 57 65 88 87 108 106 72 78 35 4 33 80 99 102 113 114 114 122 130 70 97 76 65 63 22 38 48 61 39 125 147 144 166 171
83 102 94 101 125 61 40 22 14 31 43 58 63 71 91 102 132 44 63 77 46 49 51 73 87 96 95 104 83 73 63 64 64 76 55 49 -9 1 43 39 71 89 91 138 148
91 137 192 154 112 112 35 42 25 27 44 53 60 63 71 67 86 82 10 28 51 26 50 79 89 87 90 78 75 100 79 61 52 30 32 27 14 31 -32 7 47 74 67 95 119
76 103 181 172 164 154 81 50 36 27 48 55 60 71 66 66 47 99 98 84 71 9 43 55 58 78 75 65 75 82 68 65 40 36 22 29 1 7 15 -8 -25 28 85 91 113
39 90 109 175 224 147 170 52 44 35 47 54 68 64 66 68 42 76 94 86 87 73 60 61 65 94 93 94 49 59 60 58 45 59 44 29 -17 25 67 57 42 42 84 93 99
34 46 77 130 244 139 216 21 62 63 62 59 72 67 78 63 56 48 56 63 86 85 86 76 80 103 67 57 58 33 52 23 46 36 69 11 5 14 60 92 75 58 88 134 112
36 24 72 143 146 36 200 48 106 146 130 108 81 74 54 77 80 79 94 71 83 66 69 60 66 58 43 59 75 43 21 28 31 30 50 40 18 35 34 51 61 49 51 60 108
42 10 91 121 185 29 171 86 356 248 149 90 58 116 50 116 55 91 108 118 98 42 34 43 48 41 18 16 42 76 61 44 58 63 56 22 7 26 36 31 47 46 40 45 59
25 21 28 77 121 249 59 159 277 95 84 81 64 79 74 72 83 70 57 89 86 38 72 58 36 13 50 48 43 40 35 37 42 42 51 39 30 30 37 32 37 50 53 43 41
3 44 49 77 105 116 34 106 199 263 120 71 75 107 91 56 62 37 26 69 36 46 21 37 69 62 17 38 37 23 42 57 48 84 67 25 39 -46 2 35 21 27 42 41 53
3 7 55 107 58 82 27 -11 216 333 169 75 90 77 108 95 57 59 56 88 90 33 38 18 50 92 102 71 53 58 79 29 37 68 56 68 63 54 26 15 16 59 62 47 65
-23 14 78 60 81 120 76 3 137 253 105 73 155 111 118 99 74 115 106 107 61 74 89 80 62 52 42 40 25 73 102 79 79 73 89 53 83 43 11 -25 17 43 36 100 89
-57 -42 -25 35 -10 88 67 176 245 163 69 107 142 137 155 150 174 143 91 131 97 82 82 88 128 92 79 76 63 174 119 94 86 109 150 58 49 43 55 44 -24 -2 53 131 74
-79 -72 -21 34 34 128 104 269 236 148 96 79 100 103 120 162 172 127 107 106 92 95 61 87 44 116 121 107 131 131 172 197 136 153 160 25 -61 6 111 133 121 -6 99 82 60
48 157 111 84 29 131 112 271 98 86 199 72 74 61 110 104 127 70 78 88 63 112 119 94 92 53 71 57 170 68 114 227 154 125 81 112 128 129 26 25 -7 8 39 59 90
74 24 26 38 59 94 143 180 87 121 179 125 125 127 155 90 127 111 69 76 55 74 79 71 82 97 109 100 85 164 196 61 134 135 167 142 137 55 62 79 56 44 81 97 98
41 34 53 21 51 115 90 146 144 132 130 94 94 71 80 62 90 61 44 57 45 68 30 101 58 104 151 134 116 128 207 217 261 243 148 168 66 104 69 11 0 3 72 77 102
-2 4 37 28 122 145 155 91 161 93 111 172 94 65 82 72 77 48 48 59 22 33 53 107 109 95 124 128 101 197 296 298 263 343 324 157 118 101 115 53 52 16 49 83 75
85 0 16 49 135 136 159 235 183 145 126 105 85 91 4 -24 12 32 23 40 36 85 104 98 68 74 135 74 101 132 166 209 277 404 345 256 70 76 49 42 23 65 28 38 48
60 54 70 99 72 211 119 138 165 140 154 81 71 58 32 21 29 13 24 38 57 81 76 91 100 -3 15 57 97 190 228 267 356 247 237 150 178 133 107 34 -11 -7 33 45 14
52 88 120 110 133 93 85 84 107 111 99 95 69 72 64 34 53 7 12 19 5 53 105 114 143 126 124 93 54 194 255 341 337 277 193 269 345 92 56 67 65 42 28 27 15
70 126 203 85 80 68 84 95 80 97 56 47 42 30 32 32 25 29 8 35 10 43 95 91 117 129 194 176 143 158 170 222 350 337 140 116 86 98 6 -10 30 14 46 27 4
86 175 156 110 64 70 91 86 61 59 42 38 32 9 14 39 29 25 7 -9 -7 28 112 52 68 40 235 229 239 302 285 187 232 227 120 88 111 132 57 12 3 51 43 147 165
190 196 129 46 67 47 47 53 41 44 60 53 25 22 28 47 30 11 -12 -16 8 -20 53 45 19 78 227 136 134 92 101 94 131 154 127 108 156 27 -28 0 26 48 230 214 182

GFSSW_con_3kmhel_009.txt.gz
Helicity
166 170 96 94 60 27 8 5 -2 12 28 48 57 63 92 92 100 75 52 72 91 65 97 101 94 85 103 111 147 118 126 108 40 31 35 48 103 42 48 78 78 66 53 107 136
81 157 158 101 113 69 17 7 1 12 22 41 58 65 114 46 32 44 66 104 92 62 85 89 98 88 91 92 117 109 123 76 34 57 49 60 57 53 65 38 57 81 72 119 121
81 110 139 172 115 131 67 26 21 18 22 34 49 65 96 8 37 61 50 57 37 43 59 78 139 100 103 111 105 76 84 46 65 107 159 104 66 63 93 66 65 58 54 69 132
74 95 137 140 148 138 111 24 25 17 26 37 53 67 92 24 118 70 98 54 30 32 62 72 77 98 119 126 96 78 96 58 99 129 49 58 66 70 38 42 73 46 61 75 107
77 75 93 158 137 141 138 113 25 26 29 38 60 73 74 87 102 59 20 51 41 38 48 66 83 97 123 123 121 105 89 78 78 106 61 52 44 47 77 53 69 131 145 169 114
25 57 76 91 135 137 137 143 30 32 30 41 60 80 87 75 60 82 37 54 63 35 51 63 157 116 179 149 134 154 107 94 69 58 39 32 33 46 33 21 15 26 68 75 94
46 11 68 71 122 180 226 148 107 39 36 38 52 66 86 76 73 62 33 17 31 46 75 87 125 145 118 98 104 115 60 60 37 30 32 42 21 27 11 17 -21 -14 -2 33 70
14 14 8 49 80 160 210 169 206 57 42 46 55 68 105 113 73 65 55 64 96 63 76 47 53 131 141 136 71 79 52 75 45 71 35 43 5 49 63 46 61 13 23 -15 40
21 23 38 41 64 135 203 230 127 58 54 64 79 78 86 65 63 53 51 55 87 100 89 91 73 93 59 66 89 50 99 40 81 31 59 12 3 47 67 59 52 74 69 57 39
30 54 60 46 111 139 175 213 225 136 95 125 151 95 58 78 94 87 78 65 70 110 153 142 117 73 46 65 113 90 43 79 70 55 8 43 23 33 50 36 39 55 64 66 60
41 22 19 25 64 94 134 101 112 162 141 212 98 169 50 131 99 98 70 49 63 69 108 92 104 54 34 32 59 97 112 73 54 51 27 36 29 30 34 36 36 49 59 63 56
26 10 24 47 51 71 116 1 171 340 206 102 131 109 59 48 121 113 81 87 56 69 56 78 44 35 43 59 33 35 32 37 29 27 54 43 45 40 27 33 37 39 45 46 47
14 6 9 63 76 42 61 -93 35 228 160 100 92 65 72 77 74 58 24 69 43 40 29 28 21 65 21 18 20 13 27 38 44 89 62 19 41 -38 34 14 34 34 9 -1 -2
-6 22 12 30 33 65 85 -68 33 129 173 188 114 98 103 103 94 44 22 74 99 35 33 23 20 8 21 21 23 35 52 43 70 74 39 82 44 85 143 87 37 -11 -7 -1 32
-28 -4 -16 -11 30 46 58 -33 11 116 184 58 169 82 77 95 69 55 46 97 44 71 69 54 35 16 4 -6 27 62 139 110 88 77 105 102 140 36 136 64 -15 -47 -49 58 27
-17 -34 -79 -18 -9 31 19 59 -23 211 142 106 189 145 123 110 109 73 93 129 138 64 26 62 54 55 28 56 62 159 116 94 108 150 131 70 81 90 97 92 113 58 132 82 63
26 -3 28 -82 42 33 34 115 93 312 50 83 123 128 107 142 95 88 74 98 86 91 45 23 22 59 59 89 104 114 133 109 12 56 147 167 179 164 51 69 47 22 45 101 44
8 107 40 11 72 21 80 122 205 121 85 46 94 95 157 122 67 66 66 67 50 67 64 38 52 37 57 58 111 58 107 113 166 175 148 206 307 172 61 97 97 70 38 83 136
2 60 -0 37 66 75 132 70 86 53 92 46 63 104 123 66 74 77 42 45 35 54 75 76 85 84 80 85 49 122 134 43 148 118 191 256 143 69 56 21 25 16 18 78 54
40 44 40 13 45 78 153 57 59 70 61 48 94 75 91 50 71 52 42 31 49 6 19 99 84 65 98 84 78 86 150 182 205 288 208 189 88 138 99 25 47 41 63 52 107
33 4 27 32 109 142 154 114 115 44 126 174 78 49 33 30 47 33 32 74 -10 20 24 46 67 65 90 53 67 99 88 180 163 253 364 275 292 46 71 154 175 127 63 60 53
15 16 36 65 103 147 82 165 62 113 276 222 114 51 6 19 60 46 52 80 36 41 38 25 22 -28 -12 35 39 9 97 93 216 205 307 237 335 98 79 70 40 103 66 43 36
6 73 61 103 74 73 91 150 103 40 96 111 71 62 56 -12 33 32 38 62 35 31 29 73 -1 -26 -9 42 18 86 62 108 210 194 315 266 286 157 115 92 83 36 30 12 -25
10 64 67 95 151 15 92 125 110 83 71 62 50 31 32 43 94 30 44 46 28 16 145 58 29 -27 -28 13 34 106 138 96 118 302 249 344 212 111 26 40 39 36 35 32 -0
94 38 85 120 106 116 64 39 86 95 62 38 38 30 31 43 26 32 32 44 31 39 42 45 17 13 80 100 49 87 137 154 165 170 196 162 16 -44 -65 -70 -43 -10 -5 23 3
126 108 79 63 111 65 67 22 43 63 45 25 26 14 28 26 62 41 27 17 5 29 12 53 26 19 125 95 66 125 121 73 68 106 177 168 142 87 36 -40 -69 22 15 -5 -3
135 115 94 50 42 52 61 40 55 12 43 51 27 15 31 65 63 47 31 43 49 37 15 45 29 36 49 43 67 30 78 89 92 99 93 130 150 66 10 -78 -53 -65 -1 -10 13

GFSSW_con_3kmhel_012.txt.gz
Helicity
43 69 93 137 151 117 104 48 18 17 19 28 48 53 58 71 72 43 37 47 35 48 84 108 92 103 106 123 105 113 154 117 72 40 35 63 85 61 140 96 105 56 77 58 131
72 71 60 96 148 144 114 99 22 21 20 27 44 56 68 111 22 26 44 43 70 59 70 77 78 94 116 102 168 203 164 127 77 64 71 95 65 93 128 64 82 132 61 91 24
49 73 87 98 126 137 147 145 87 27 19 29 40 58 73 104 88 45 27 39 52 52 39 90 122 90 133 127 125 142 115 103 79 112 88 111 206 179 126 106 101 74 85 90 68
38 58 69 81 96 102 127 139 155 20 16 19 38 63 77 76 83 71 105 30 24 22 61 83 134 151 155 149 130 94 100 79 74 159 158 57 100 165 135 94 87 75 87 38 136
55 52 55 77 88 91 120 141 150 124 33 22 35 72 89 89 81 40 28 57 19 27 21 72 95 111 123 133 105 109 102 79 110 124 142 111 93 93 122 177 66 85 118 162 89
52 52 53 68 83 98 101 172 171 136 32 29 44 77 87 71 37 72 44 24 13 27 38 42 161 192 212 203 154 133 132 108 118 143 102 88 69 68 90 37 38 53 106 169 155
9 21 34 34 56 71 119 146 232 134 84 46 40 66 92 76 62 64 88 114 38 35 69 74 125 177 282 242 265 190 133 83 81 76 105 81 50 50 26 41 53 60 67 29 109
35 26 32 36 30 70 81 152 190 226 182 23 49 82 106 95 116 70 34 23 29 32 55 105 101 154 189 201 149 112 77 91 35 17 56 74 32 48 34 56 52 58 49 51 68
38 41 30 24 31 33 67 131 201 230 145 33 112 118 88 85 86 61 38 56 23 96 20 56 93 131 151 167 114 84 114 84 85 33 57 55 43 27 55 55 66 61 67 78 70
34 24 11 21 25 25 54 99 134 201 57 79 184 112 78 66 85 46 89 80 68 70 102 78 114 104 105 117 121 116 104 129 129 108 57 56 49 54 54 58 65 84 71 90 100
32 5 -0 -2 16 26 21 83 138 114 197 247 84 227 67 144 111 74 94 95 76 88 103 103 136 103 54 40 68 213 194 174 146 152 87 60 51 47 41 53 33 83 95 83 73
7 7 3 16 3 55 23 84 169 205 180 189 201 156 102 38 105 88 78 131 117 76 121 116 75 52 101 136 135 101 82 66 50 33 46 38 50 40 80 91 80 72 88 82 73
1 7 -2 -3 33 22 32 81 -11 190 211 134 240 102 74 93 71 77 79 94 69 53 74 67 80 40 61 93 76 74 58 53 60 46 25 28 11 -3 95 -2 29 28 19 5 36
-0 8 20 -1 17 18 35 17 -91 155 266 143 207 116 100 170 90 56 22 136 99 41 36 42 37 52 48 50 47 46 81 78 56 64 34 129 11 73 50 85 74 12 43 63 43
9 30 15 -44 -9 3 -7 10 -137 100 256 92 194 77 82 141 131 84 20 114 55 70 113 55 32 41 29 45 35 58 102 131 97 77 74 49 82 30 -5 50 118 104 164 121 60
18 29 54 67 -20 22 -12 36 -45 295 265 194 221 136 162 145 138 103 111 134 146 119 48 46 71 67 51 60 93 153 118 56 64 69 68 -37 25 86 123 45 58 182 195 203 97
11 25 3 46 37 6 -14 73 83 317 67 142 240 169 139 157 120 89 114 93 93 85 45 39 30 31 74 108 84 94 100 43 13 71 80 153 101 266 171 51 75 111 203 146 116
37 57 55 22 32 40 33 41 249 237 186 113 138 138 155 123 81 69 67 65 74 77 19 30 28 41 53 67 63 65 102 67 92 111 154 156 210 219 182 175 167 149 120 131 147
33 62 -27 18 40 78 70 8 229 167 128 78 126 258 212 106 72 75 45 49 26 40 59 34 59 54 39 18 31 89 58 155 196 128 133 234 258 131 73 71 69 117 84 96 70
31 19 -23 35 54 91 31 66 207 227 45 29 119 101 128 94 78 47 37 7 20 31 45 98 57 44 93 70 50 60 105 159 195 130 171 164 171 222 95 114 123 113 185 195 123
-19 17 12 -26 91 79 58 18 148 117 -6 84 48 64 48 117 79 52 29 36 7 33 15 48 74 83 138 51 100 124 97 158 253 247 206 156 197 270 171 132 123 92 123 111 99
7 6 59 55 98 117 23 112 98 148 163 129 52 28 53 30 47 58 70 96 6 41 29 43 68 55 85 33 13 112 120 105 213 186 262 289 237 156 45 104 74 78 124 117 -3
39 75 95 73 164 122 54 106 142 131 184 124 82 71 6 -9 109 67 94 43 75 48 52 56 53 27 -9 19 55 89 63 97 200 200 358 332 514 384 222 153 83 36 49 59 64
66 78 114 67 105 40 55 38 29 117 138 118 117 80 29 33 94 70 76 38 34 34 99 63 55 -21 -53 10 25 63 132 146 162 333 353 561 385 294 129 60 44 80 48 18 71
79 42 70 138 97 44 65 79 52 84 109 113 94 50 34 48 64 54 35 53 37 46 54 88 14 13 2 14 4 16 24 71 167 219 298 248 177 189 138 -34 -131 -51 195 192 206
16 69 132 111 -3 65 53 63 73 15 51 31 17 21 63 45 70 15 36 19 31 47 62 55 21 11 25 101 65 113 109 152 146 149 190 187 223 149 93 132 63 131 -105 -29 14
51 27 34 26 21 25 25 34 51 51 34 67 28 18 60 98 84 83 88 62 65 46 33 43 27 20 18 35 28 27 60 114 116 169 187 237 257 128 113 116 67 -70 -145 -120 -44

GFSSW_con_3kmhel_015.txt.gz
Helicity
62 62 74 65 73 113 133 113 128 45 23 27 24 40 59 72 96 70 44 52 30 28 106 110 108 106 148 163 163 158 194 138 104 67 53 59 41 17 76 138 154 142 106 44 67
61 75 85 78 74 69 84 136 139 142 19 26 21 31 59 81 104 58 67 11 23 26 60 83 89 99 190 128 207 221 189 126 118 45 42 69 70 65 121 146 163 100 120 77 85
52 63 99 105 90 99 89 126 170 159 48 29 27 28 61 94 77 47 -19 -19 -3 53 84 79 122 118 144 164 182 186 162 141 78 49 58 47 108 95 209 241 143 97 85 71 90
14 57 48 85 129 104 93 110 182 199 144 29 41 34 74 101 79 75 31 -26 13 61 82 82 131 161 156 170 157 171 146 91 66 51 69 96 108 140 168 216 291 184 127 125 130
27 22 58 54 59 99 113 94 144 190 165 33 28 62 91 101 80 40 58 49 47 65 56 73 165 177 160 125 143 151 129 117 115 131 80 89 95 109 123 179 165 120 78 138 140
49 41 19 32 37 42 81 97 134 194 194 92 57 80 113 88 69 56 38 38 60 55 34 56 123 121 142 133 163 148 121 170 159 116 103 114 44 101 122 89 79 103 58 48 123
62 60 39 33 29 5 42 77 101 214 190 253 54 69 120 63 78 60 65 38 37 44 50 19 94 153 170 186 198 214 189 180 93 72 78 113 48 98 86 83 97 49 49 21 3
41 52 26 37 30 25 13 51 93 122 171 236 35 93 110 68 123 71 65 69 60 48 56 109 108 119 158 191 199 159 118 94 58 76 96 124 68 48 47 116 108 106 81 41 31
31 22 21 16 28 19 26 37 96 154 203 196 105 136 114 101 112 66 57 67 56 79 117 90 135 113 128 149 161 145 116 72 149 77 104 120 57 46 89 115 97 94 87 69 60
27 27 21 6 8 4 23 47 86 135 122 79 193 150 99 118 120 91 66 75 107 44 110 159 182 165 156 160 135 102 123 135 132 139 115 120 91 96 57 53 25 50 69 75 69
12 -2 8 -11 3 -2 8 -7 98 143 136 144 64 185 60 45 105 86 79 79 103 142 134 72 141 89 70 85 100 146 160 119 108 181 123 81 66 58 41 16 4 -4 36 45 21
14 14 16 24 8 4 3 6 118 140 131 66 66 140 154 134 111 72 117 153 121 131 162 166 92 65 43 36 93 90 79 61 77 124 108 61 23 29 53 81 85 44 44 21 40
15 5 -4 -2 9 -13 2 22 -15 -13 102 168 164 75 125 82 128 52 118 129 95 136 98 94 82 38 61 74 51 74 73 60 58 69 41 26 35 45 37 46 27 6 21 41 41
-47 -25 -11 15 17 -2 -12 -18 -111 -18 110 214 156 167 117 145 119 58 90 111 122 71 58 87 70 96 91 57 57 72 92 94 85 58 71 40 49 62 47 44 50 32 43 48 36
-59 -34 -18 20 86 -11 -13 -78 18 102 270 118 262 116 108 179 101 57 49 150 90 96 118 58 70 77 76 62 67 47 65 60 64 49 43 66 76 -5 -37 -6 -26 86 116 71 30
-41 -4 4 43 84 -2 -13 -53 -154 183 257 205 267 182 217 105 168 109 117 131 127 121 77 71 77 61 41 61 91 79 67 71 62 60 88 35 107 10 -57 -18 8 38 132 121 131
-32 19 58 38 34 18 20 51 -10 230 264 222 229 166 180 206 170 168 144 135 120 126 110 81 30 53 76 80 100 105 89 63 83 94 40 93 66 147 78 -17 27 34 80 80 109
43 72 7 -4 69 70 71 81 156 239 176 166 200 154 200 138 130 115 118 104 108 100 98 51 23 84 44 92 28 102 77 82 25 15 20 85 63 26 -11 -1 62 52 100 91 80
-2 53 62 36 45 60 50 19 283 189 146 179 238 216 172 149 99 114 71 42 50 60 56 36 48 75 48 69 94 69 50 110 118 86 104 117 158 129 23 103 103 97 101 119 84
29 100 129 -1 39 68 32 138 211 179 66 117 181 137 156 108 111 78 41 8 32 12 28 67 36 37 47 45 13 59 81 112 135 42 46 75 131 116 55 122 158 80 79 106 171
45 136 116 85 86 93 121 202 196 52 70 109 73 98 108 151 71 55 1 34 14 -3 10 64 57 41 47 15 51 105 103 134 134 131 104 109 128 218 207 127 69 112 87 97 95
86 149 103 90 72 38 123 142 31 134 181 104 49 86 123 145 80 60 33 63 -50 62 37 42 31 23 -7 12 57 121 106 171 106 99 188 232 288 106 24 143 163 134 134 101 139
105 88 104 103 38 118 116 153 161 123 113 50 54 79 39 80 72 88 76 87 5 40 48 39 27 30 53 77 70 69 73 110 134 195 242 195 282 180 213 95 60 63 126 92 75
93 187 184 100 26 137 94 59 106 168 127 84 42 -1 -56 62 75 28 93 77 89 87 40 72 32 16 -3 22 56 -19 33 101 231 255 289 472 414 392 282 152 89 84 111 108 75
85 111 99 53 11 -13 32 46 96 136 114 77 93 44 13 59 97 71 63 72 76 85 69 80 30 35 -9 -41 -35 40 81 113 172 223 256 311 190 244 147 118 99 105 163 137 146
91 48 -5 29 29 13 4 43 55 37 49 98 49 76 96 50 33 32 45 43 32 61 68 78 37 22 5 16 2 -6 36 77 153 176 252 267 312 162 122 108 127 200 162 76 13
63 60 9 15 -10 -0 31 20 -2 -2 27 50 61 40 74 83 71 76 72 55 41 52 64 59 41 -0 8 34 6 2 12 86 139 186 171 202 170 117 94 121 182 121 91 38 -26

GFSSW_con_3kmhel_018.txt.gz
Helicity
73 84 59 74 86 114 141 150 174 189 144 49 20 19 33 46 68 80 56 49 49 55 149 181 126 130 166 177 160 145 175 125 106 110 105 77 82 86 83 108 137 182 139 100 85
35 60 70 73 106 95 103 108 131 144 197 168 20 24 34 51 60 53 39 19 29 -10 123 131 137 158 205 155 188 180 167 117 92 84 68 73 64 59 140 194 151 177 162 180 136
67 11 7 20 46 100 102 87 103 173 167 241 70 32 46 64 57 46 9 -24 5 37 52 104 173 187 188 182 193 173 138 131 102 81 58 100 147 67 155 186 196 177 102 143 177
30 27 18 25 39 36 69 98 86 153 198 218 165 35 63 88 78 72 72 -28 5 88 130 129 158 226 183 190 180 164 134 123 81 69 67 63 90 91 133 163 182 216 252 176 152
19 33 60 71 45 49 49 58 67 133 180 192 257 52 115 102 75 35 46 -8 39 112 86 119 170 177 189 143 155 152 159 139 88 86 103 102 74 79 65 123 159 172 181 219 254
25 60 43 35 45 22 6 10 43 119 139 170 211 104 128 65 45 61 60 65 67 78 90 117 137 119 148 138 158 186 100 120 104 94 106 92 63 92 88 11 96 100 112 115 169
32 40 32 35 36 32 14 -5 21 78 134 142 241 78 96 39 126 70 65 66 61 53 78 67 114 142 129 159 135 169 170 186 127 82 86 109 31 62 63 26 33 73 40 27 28
25 19 16 10 14 18 21 9 37 73 165 161 159 112 102 36 102 99 82 61 38 45 40 56 69 124 132 176 190 166 155 136 88 78 64 114 34 59 50 74 77 46 49 40 2
9 4 1 1 -8 11 8 13 23 83 156 184 122 143 86 96 74 54 59 72 55 74 91 98 127 121 143 165 202 216 144 114 121 69 95 130 80 45 91 121 113 98 91 105 95
-4 -7 -11 -5 -4 -1 5 22 54 72 101 154 185 118 99 92 80 79 86 83 82 117 171 159 134 153 162 185 154 106 121 126 123 159 142 130 106 83 97 113 123 98 53 44 28
-25 -30 -28 -27 -20 -20 -7 16 22 126 142 114 185 130 86 68 101 78 87 86 90 142 146 176 127 146 70 50 161 169 158 159 99 103 81 97 85 68 21 62 32 -5 1 0 -1
-65 -57 -50 -61 -30 -24 -2 -16 38 104 154 155 39 221 75 91 112 63 92 117 110 116 139 104 96 104 100 89 114 149 133 118 86 72 60 63 23 -4 33 78 98 34 -10 -11 7
-41 -34 -27 -25 -17 21 2 4 8 52 144 24 95 147 125 87 97 64 119 133 119 141 137 113 58 51 85 98 86 86 91 94 103 32 1 8 19 51 60 53 55 59 29 43 40
-26 -12 -5 -10 25 17 -14 10 -14 40 134 84 93 148 103 67 130 146 124 133 148 119 122 116 105 57 99 107 91 98 53 41 43 43 62 65 42 28 39 49 40 59 65 56 72
-17 -20 1 -7 40 -18 -13 -47 13 135 271 110 103 118 130 142 137 87 183 135 107 101 94 96 97 104 119 85 88 72 55 44 37 31 20 22 69 8 13 58 30 17 53 82 58
-58 -40 11 3 -14 -3 7 23 82 96 215 217 149 157 152 117 183 150 152 164 141 106 147 97 101 101 77 115 94 57 73 64 36 23 55 8 86 23 3 18 64 88 60 73 52
48 5 1 41 27 28 25 68 67 45 238 315 222 125 163 184 172 128 127 151 105 127 109 110 104 90 96 121 123 96 73 63 69 71 50 47 56 62 28 -29 22 35 51 48 32
-9 4 18 20 33 30 73 157 102 194 182 179 182 157 194 170 143 92 101 132 113 87 112 91 81 61 65 58 26 62 53 41 33 37 39 60 41 21 -2 8 69 85 57 67 43
28 84 86 61 22 42 123 147 274 261 223 170 222 225 180 187 142 121 114 60 52 47 53 84 86 56 42 66 74 37 75 65 77 65 81 75 90 0 0 71 159 138 126 98 83
77 161 145 65 68 147 13 224 290 256 104 197 178 118 130 152 124 83 46 19 23 42 56 55 62 59 56 58 71 54 73 87 102 63 39 49 52 32 14 65 89 47 66 110 149
81 147 128 102 65 63 232 261 194 162 202 147 66 100 118 136 75 76 23 54 25 20 29 58 42 56 43 29 53 91 68 89 79 78 47 31 31 59 12 22 22 67 100 104 100
91 75 108 66 136 244 -15 52 167 185 144 90 32 89 126 128 65 47 34 42 8 40 47 62 32 32 20 51 61 82 68 109 55 9 13 46 142 -12 19 28 51 28 -15 31 53
131 113 85 60 133 117 231 192 160 122 97 37 28 48 114 91 54 66 48 59 -13 45 75 63 47 52 54 37 64 24 51 90 68 76 50 122 83 96 137 33 14 36 47 52 92
69 61 104 138 100 56 70 98 101 95 75 11 20 47 80 68 54 61 89 87 51 45 32 84 27 12 -3 1 42 13 -15 36 85 84 158 354 292 343 209 66 30 58 93 119 81
-25 30 86 79 29 14 2 53 89 74 68 17 -26 -48 18 53 83 69 78 103 113 66 60 53 4 9 -3 -16 -21 -12 8 52 197 247 170 293 173 280 175 104 91 59 78 84 67
-31 1 -2 66 72 31 -9 15 49 27 26 71 17 2 23 58 45 43 52 72 45 87 88 75 26 20 6 -2 -16 12 31 79 105 108 201 240 290 183 112 62 79 79 55 44 66
-37 -23 -3 27 46 22 36 -13 -6 12 17 49 15 56 104 66 78 60 28 19 24 85 144 77 44 17 8 34 -4 4 42 76 78 132 180 192 206 62 37 42 127 91 39 31 62

GFSSW_con_3kmhel_021.txt.gz
Helicity
37 -1 -23 -4 16 61 105 198 178 187 177 197 116 41 35 43 61 86 66 49 48 101 138 142 156 147 190 223 208 211 228 196 158 76 61 63 111 127 102 133 143 121 91 87 205
90 59 46 39 16 10 26 63 171 172 175 162 173 180 34 32 60 59 53 30 58 48 148 176 158 162 210 195 224 244 224 180 119 71 49 97 84 102 140 183 173 174 123 160 219
95 60 25 26 38 35 32 42 89 122 81 128 168 115 73 65 59 40 33 12 20 49 95 137 199 191 229 233 242 219 172 180 90 66 36 57 93 51 118 166 156 166 142 164 203
37 14 1 27 53 80 45 2 24 92 128 139 157 161 129 118 73 72 62 -18 -12 37 103 149 189 228 226 228 233 184 147 114 33 49 29 26 61 67 74 106 177 196 216 174 164
19 31 29 34 36 39 25 22 25 54 136 164 156 132 132 174 86 20 98 15 10 92 98 154 186 214 196 175 227 179 195 121 64 65 42 39 48 54 42 72 168 154 197 210 190
-12 2 12 13 21 30 34 22 1 6 63 142 153 161 65 92 45 61 38 56 69 124 160 172 136 154 154 159 155 148 96 81 89 74 62 37 40 80 90 34 98 114 144 175 183
-13 1 7 2 -7 8 28 26 4 19 65 110 134 150 77 35 56 105 44 37 80 118 131 118 117 170 139 166 122 151 130 128 95 80 87 53 21 71 75 43 27 46 59 111 125
-5 -14 -15 -14 -10 -8 16 29 25 30 79 98 115 91 9 54 83 177 73 68 59 79 81 66 113 127 146 165 190 160 174 136 128 90 73 81 7 82 41 72 80 43 28 15 60
-7 -11 -26 -30 -24 -17 -21 19 33 36 88 119 94 74 63 39 86 94 108 88 65 73 71 78 91 121 156 184 213 217 161 139 133 76 107 121 50 22 55 99 89 62 60 28 31
-22 -32 -14 -33 -38 -23 -30 27 52 21 69 71 119 83 82 71 35 63 94 90 96 85 132 98 142 155 188 213 180 167 123 123 122 150 118 141 78 54 70 76 79 93 70 53 32
-6 -9 -6 -21 -24 -14 -24 3 2 17 125 162 45 115 132 86 96 81 81 104 113 129 161 139 150 139 92 110 130 139 153 138 124 119 78 64 68 52 31 40 35 38 34 28 11
-2 3 -4 -20 7 7 22 -1 -22 37 198 194 216 134 273 59 105 68 98 97 92 144 161 141 106 108 140 102 150 179 158 123 106 95 101 77 34 20 20 44 62 66 43 30 59
9 -13 -2 -10 18 57 -6 -9 13 61 217 112 130 143 63 80 99 108 68 110 107 102 162 89 126 71 73 89 98 103 90 92 93 113 56 59 18 64 64 71 79 79 65 29 11
-30 -37 -27 -15 41 79 -12 28 28 81 180 42 68 156 150 84 133 124 118 103 129 57 43 96 90 48 111 112 95 89 51 66 97 94 80 102 -3 40 68 66 21 32 47 75 96
43 6 -13 -17 98 33 2 13 45 123 271 71 170 154 185 162 102 138 153 118 101 133 86 74 84 56 101 90 93 67 63 57 54 59 63 81 77 18 67 87 51 90 105 81 64
27 17 -4 5 -6 15 18 45 81 205 152 113 132 145 174 97 181 184 189 154 119 121 155 116 109 111 110 139 95 69 90 74 49 44 100 48 87 32 20 21 72 168 190 107 111
29 2 3 12 29 31 27 102 202 83 179 154 197 148 143 124 150 217 159 150 106 124 135 160 139 122 106 150 143 108 104 110 125 133 73 36 51 4 -18 79 78 65 92 107 92
10 22 31 62 55 69 75 140 142 225 213 114 188 153 163 155 133 130 129 106 129 106 138 91 105 85 88 69 50 106 72 62 90 78 78 45 20 -9 11 82 63 54 53 104 178
31 61 64 69 81 97 73 30 211 318 290 162 221 190 174 148 111 65 97 83 61 64 73 96 98 97 73 76 64 56 68 62 39 10 31 43 26 1 61 100 160 118 102 107 103
87 89 98 97 97 51 189 228 196 277 264 228 177 116 98 113 118 81 57 33 50 47 53 46 68 68 81 71 105 50 46 66 93 37 32 31 27 16 32 58 54 61 66 35 4
93 111 113 78 41 106 143 189 171 158 178 141 74 104 111 123 68 73 49 47 29 38 43 56 44 53 52 28 48 86 71 82 71 60 30 30 1 12 9 22 37 14 -22 -18 5
88 55 119 115 56 98 123 151 89 102 108 101 33 84 83 94 72 74 30 43 19 34 35 46 19 38 25 40 28 48 39 75 68 45 60 41 51 -34 -31 34 17 -67 21 62 69
61 104 120 103 15 75 123 127 122 54 47 24 24 38 64 91 44 48 23 19 13 47 37 37 47 39 51 37 56 37 51 89 99 62 55 55 -8 34 48 17 1 38 59 69 63
46 23 93 94 101 53 49 56 27 44 15 6 31 56 96 79 54 34 46 53 -5 1 37 57 17 12 17 12 29 32 30 79 115 62 58 132 180 161 159 103 63 57 68 49 44
12 28 39 -2 -6 43 63 61 52 27 32 -10 -19 44 65 52 63 52 73 79 62 16 59 43 1 8 9 7 4 -2 -8 18 68 118 108 107 175 258 121 59 67 102 55 39 31
6 12 23 49 82 26 26 51 51 31 22 20 -51 -7 22 51 33 55 61 72 43 70 60 61 22 18 8 12 5 -10 -1 27 86 116 182 240 233 197 87 100 60 92 61 43 27
-36 -9 9 9 22 18 20 1 14 27 48 45 21 42 64 44 35 39 45 49 17 71 97 59 26 3 9 39 29 10 53 78 46 56 128 151 194 98 85 50 91 66 56 41 17

GFSSW_con_3kmhel_024.txt.gz
Helicity
109 106 91 59 39 50 13 -14 67 172 161 174 185 75 187 44 50 76 68 78 41 66 193 114 134 172 221 224 230 240 212 169 143 92 65 54 108 123 104 89 124 87 101 94 95
52 62 48 27 48 33 52 44 20 50 110 126 150 113 80 135 78 63 61 30 27 80 131 135 149 187 218 219 233 247 202 162 151 107 48 87 91 138 152 152 132 133 137 145 160
47 21 -7 3 25 24 75 78 61 -14 43 60 89 132 155 124 82 19 31 25 31 82 111 149 150 184 196 213 230 227 182 218 157 115 97 86 95 82 112 125 90 141 190 204 171
22 -7 -5 -3 11 32 61 34 17 -7 27 88 61 168 104 42 66 39 60 4 24 76 108 171 213 205 210 216 222 176 182 171 125 137 95 45 62 106 81 60 77 130 175 190 175
5 -2 4 3 13 35 23 41 30 35 27 54 70 114 76 37 58 30 155 99 38 95 106 153 204 232 205 180 205 151 153 124 92 127 74 35 28 42 63 48 88 102 165 197 160
7 -3 2 7 25 29 20 21 28 35 44 36 89 69 101 47 33 -3 44 80 78 90 121 159 150 179 170 133 177 88 104 103 105 65 52 15 30 57 49 56 67 71 112 161 171
-7 14 7 15 15 20 15 7 36 17 37 69 79 80 114 61 67 106 44 57 81 102 141 145 121 157 121 159 115 161 130 106 69 52 60 0 20 74 54 55 47 42 63 123 161
5 15 17 9 18 18 8 4 11 24 34 70 72 120 86 47 37 164 91 91 87 113 122 140 130 158 152 160 194 167 140 117 107 76 80 76 16 31 54 68 63 44 37 59 97
37 12 14 14 2 18 0 -5 -21 21 30 64 79 101 93 61 19 70 66 79 80 89 90 99 135 145 175 184 192 194 136 145 136 80 98 95 1 23 96 59 68 75 62 41 51
26 8 4 17 6 18 5 -8 5 13 17 29 100 107 56 90 102 71 84 77 125 114 146 132 137 181 186 177 184 185 152 130 116 121 126 118 53 31 46 52 59 78 75 67 41
1 -10 6 -6 3 38 28 27 18 6 43 117 160 126 50 127 138 122 84 118 61 153 223 81 178 131 107 153 141 118 121 108 113 105 57 34 0 19 39 51 56 49 42 60 55
43 -33 -10 -6 1 22 40 0 -32 -14 179 175 259 7 105 38 83 91 86 110 114 137 156 93 76 76 131 137 143 115 120 115 101 70 46 39 -5 12 33 51 70 82 89 77 69
118 8 -32 -21 -5 62 8 -12 -11 20 223 127 147 81 102 64 96 103 84 138 121 138 113 90 114 99 114 148 140 147 95 74 73 87 37 33 -21 69 56 49 68 75 64 70 64
21 118 69 -11 15 37 -19 17 5 73 168 116 148 79 185 129 164 124 67 145 134 138 376 83 130 88 106 133 121 124 66 79 108 121 80 99 -2 63 69 93 105 123 107 65 93
13 21 62 36 57 15 1 24 50 101 196 73 172 143 50 166 117 124 33 147 86 55 76 127 121 92 98 70 60 75 69 71 76 80 69 97 63 53 100 121 99 209 183 208 173
15 18 30 42 46 19 39 82 67 238 205 156 95 107 87 90 151 134 151 118 170 171 52 43 25 86 81 108 91 41 88 74 64 66 100 84 83 40 81 96 109 202 196 183 168
-14 9 40 77 59 67 89 72 252 162 117 147 144 129 101 102 154 163 143 142 92 117 152 132 110 93 86 149 149 107 94 103 120 135 77 49 75 28 50 44 69 110 90 81 98
27 12 36 65 75 80 53 147 149 221 118 102 136 159 144 140 138 151 119 120 129 98 114 85 84 84 86 86 72 119 82 81 114 114 98 67 80 46 43 69 47 41 17 82 155
53 73 70 113 84 25 40 70 152 241 243 155 171 150 154 128 105 112 94 61 57 71 70 81 96 96 88 80 87 76 84 67 44 28 81 56 32 32 51 83 103 103 127 101 47
98 81 84 98 55 95 107 113 168 209 147 133 115 77 80 77 64 62 63 44 48 67 67 60 80 99 83 78 104 62 45 72 81 62 74 49 45 30 56 99 93 91 41 -43 -73
94 80 107 115 98 47 47 157 180 137 73 59 46 45 42 67 44 42 37 54 61 58 56 70 68 76 67 41 39 66 61 70 56 50 26 46 38 17 47 5 10 28 -76 -29 8
78 58 79 52 62 69 59 76 109 128 73 45 21 47 64 77 76 63 32 34 32 40 44 65 51 40 38 34 32 44 32 63 47 27 54 39 30 29 -26 -58 -33 -2 1 15 20
54 81 84 54 25 85 69 67 82 49 42 31 15 29 55 73 45 43 16 16 13 52 30 24 47 23 32 34 43 37 31 63 69 67 42 41 24 17 -4 5 35 20 40 22 11
10 10 43 27 67 53 61 60 43 34 21 20 17 46 64 67 59 46 33 34 2 35 54 44 20 11 4 16 22 34 40 70 86 59 47 64 48 30 29 36 75 41 49 9 7
6 15 5 23 36 59 53 33 20 7 11 6 11 3 24 44 47 39 45 57 46 31 65 34 10 10 11 5 12 14 16 35 71 83 37 27 52 139 93 52 -1 85 37 15 18
-6 4 14 29 32 42 22 36 36 20 13 -7 14 41 28 18 21 15 61 61 28 45 43 45 6 -2 18 16 0 12 -1 18 32 45 110 114 126 117 81 79 99 87 41 37 30
-30 -5 2 6 -3 7 5 12 43 34 30 29 -2 17 44 50 35 20 68 76 22 64 68 42 20 4 20 21 20 14 23 50 96 95 77 55 87 36 56 61 65 49 33 27 31

GFSSW_con_3kmhel_027.txt.gz
Helicity
76 76 69 65 61 33 16 23 25 41 31 104 108 160 65 77 166 69 70 78 31 39 198 160 177 198 240 225 224 256 220 150 103 100 54 47 89 91 93 96 106 107 146 128 71
57 62 57 34 11 19 20 31 40 88 76 42 99 84 101 77 113 47 73 43 30 53 159 149 182 206 245 233 229 237 191 128 137 102 72 88 80 115 132 157 122 116 143 105 83
54 60 37 7 -1 4 13 38 50 85 81 71 74 93 84 92 87 22 9 28 22 73 105 127 146 218 222 242 243 225 162 175 147 108 101 80 105 110 141 136 107 118 140 128 132
42 19 23 8 6 8 24 35 39 64 16 44 36 94 41 -20 103 67 98 16 22 65 111 155 182 203 198 212 223 207 182 161 145 116 122 98 93 114 111 101 91 104 160 149 133
23 13 53 20 13 23 29 36 49 50 40 37 41 53 -0 26 89 33 196 160 40 85 88 180 167 225 176 172 217 196 135 162 143 150 103 86 92 83 89 83 90 95 110 146 149
26 -9 27 30 25 17 27 35 39 42 40 37 40 42 43 63 59 -34 55 146 61 91 80 166 171 203 173 124 163 93 134 119 98 81 78 20 41 71 76 67 64 73 90 122 139
7 18 19 33 33 19 18 13 22 27 44 36 45 43 84 85 76 -54 33 117 61 80 124 153 139 193 147 150 135 101 118 104 63 69 56 -5 9 52 60 70 61 79 79 117 124
3 8 32 30 31 20 13 4 14 19 24 19 19 29 45 80 66 57 9 87 73 82 122 121 123 180 170 143 177 174 159 124 89 68 67 49 8 10 86 67 64 73 64 77 79
27 58 22 2 13 -2 -2 -0 11 4 -2 1 19 36 91 -3 61 50 -21 92 78 109 103 106 123 179 194 175 190 179 110 134 155 66 94 94 21 26 96 77 74 83 88 63 63
26 41 14 -7 3 -19 -3 7 29 30 9 8 34 84 102 32 66 10 62 49 104 74 84 87 163 187 173 189 178 191 188 142 122 96 103 84 57 68 73 50 46 51 52 56 68
41 112 -13 -23 -9 -8 -9 32 26 1 11 49 81 154 67 84 55 116 62 111 147 190 263 174 220 171 152 177 141 124 138 119 116 109 81 51 17 28 39 34 44 54 52 59 68
2 48 72 -35 6 24 24 8 -22 -21 95 94 95 50 179 83 41 60 41 136 211 174 214 197 152 117 124 139 159 170 161 143 140 107 59 56 27 37 40 57 58 55 49 45 52
-7 71 54 -23 17 35 4 2 25 75 153 58 -56 152 126 123 103 50 46 87 98 291 158 188 142 109 123 154 167 165 141 135 113 102 44 8 -4 34 55 76 118 139 107 95 155
-14 19 68 12 19 9 16 25 40 96 170 45 57 133 68 160 151 125 84 185 151 85 -8 45 116 68 91 128 141 140 98 101 104 104 89 89 48 83 102 123 114 225 201 201 246
1 -1 64 47 77 26 54 63 37 110 238 113 58 129 109 126 109 150 91 139 137 107 71 104 109 111 88 115 131 133 94 138 135 112 95 105 39 96 138 146 189 204 208 229 246
24 59 90 98 102 99 49 -18 67 201 247 105 119 66 104 91 155 125 115 151 165 148 81 155 96 126 98 101 142 43 148 154 124 115 102 104 81 120 121 140 170 140 157 223 237
77 68 81 90 148 23 20 103 219 231 154 135 77 83 88 112 154 101 70 93 84 75 117 73 110 101 95 163 125 82 105 162 165 158 110 103 102 97 71 62 91 123 152 163 104
120 86 34 31 69 12 50 108 162 211 197 144 89 88 112 129 125 130 103 111 128 110 97 42 72 57 92 80 51 101 68 82 133 129 117 79 104 98 59 73 56 59 103 45 49
80 90 37 49 50 33 95 119 149 137 132 50 101 97 105 98 65 79 92 66 72 98 69 76 91 80 86 81 93 81 84 76 67 77 129 104 91 70 34 75 65 83 88 50 -15
105 50 82 74 73 97 101 60 96 145 117 43 51 47 47 57 67 71 69 59 66 86 66 55 87 94 73 91 116 71 74 82 87 98 136 108 106 75 62 94 73 74 27 -33 -66
68 59 105 88 76 93 141 81 120 113 52 43 38 21 42 53 52 60 46 43 61 63 58 63 54 88 70 55 49 84 76 92 68 58 94 137 68 47 41 19 -42 -2 -2 -11 -37
52 46 59 44 34 117 83 75 86 73 60 32 13 16 46 64 54 58 34 33 23 30 50 51 57 53 68 50 55 57 50 58 42 42 52 59 61 42 31 -105 -27 4 -12 -20 -45
3 44 55 48 43 65 76 64 63 41 33 12 9 6 21 56 31 43 38 51 6 45 30 25 66 77 63 46 59 41 48 65 64 56 35 42 49 19 -12 -10 14 -14 -16 -5 6
-4 4 32 11 31 50 54 61 40 9 -8 -13 -32 -17 29 65 67 45 40 48 18 29 39 48 41 28 23 27 32 33 42 55 56 48 41 47 42 2 9 24 16 -2 11 13 33
-9 7 -1 -15 2 52 31 46 38 28 18 26 38 -24 7 50 59 35 53 50 50 28 79 46 17 21 20 18 29 30 20 25 67 91 39 44 41 60 79 51 26 -5 47 25 14
13 -13 16 -13 16 12 -2 -17 2 -2 -6 4 4 -14 -35 31 35 -11 45 47 22 37 62 74 17 11 27 22 5 26 22 18 19 33 71 54 77 53 28 -11 -36 43 26 8 13
43 17 -12 1 17 11 13 11 11 -3 -1 -9 2 20 38 47 36 24 30 44 -5 27 58 37 15 22 32 26 21 23 34 51 56 75 71 44 50 24 21 -30 -18 9 18 7 13

GFSSW_con_3kmhel_030.txt.gz
Helicity
76 43 40 73 62 54 85 84 36 27 34 17 86 119 124 69 37 87 58 96 38 76 111 126 146 128 170 172 215 261 131 79 42 33 39 26 54 45 74 71 107 130 162 153 83
58 38 35 35 27 40 34 33 25 61 40 38 37 58 111 120 37 92 104 9 43 99 112 124 144 132 192 177 186 181 113 51 72 43 51 15 41 42 67 69 91 100 121 101 87
41 41 28 7 35 40 21 32 28 44 63 54 63 45 83 115 73 19 -21 37 35 76 108 92 114 135 173 198 193 175 94 115 80 67 67 18 57 78 76 70 90 103 147 128 84
29 27 23 28 57 44 35 31 26 27 34 22 79 90 64 124 200 -9 81 -10 43 67 86 87 103 167 140 159 153 178 149 162 78 90 90 51 87 87 78 118 93 132 164 133 102
23 35 29 18 22 19 24 29 25 26 38 52 56 64 74 72 127 126 219 198 41 70 75 89 111 128 124 159 151 172 137 127 96 84 95 102 92 96 80 88 102 120 127 127 130
13 33 32 48 30 35 30 15 18 22 27 37 44 75 41 52 71 30 84 312 73 74 72 72 99 130 133 125 132 119 163 71 84 83 78 75 80 93 63 90 71 70 81 91 111
2 27 42 92 85 21 11 16 7 10 19 29 63 47 31 88 58 -122 5 30 68 54 62 63 99 146 122 150 148 126 102 108 79 79 72 44 30 37 60 75 77 69 65 89 98
23 34 37 41 13 4 3 6 3 -10 5 19 33 25 10 60 177 -55 43 109 61 34 44 93 66 121 108 128 105 85 113 121 54 48 78 64 68 26 58 82 86 72 79 71 71
34 36 76 27 5 -11 -14 3 -11 -11 7 20 14 -6 56 35 134 45 59 113 44 44 47 90 96 126 155 91 116 104 69 83 62 77 69 21 42 54 93 82 106 85 91 65 67
17 12 74 0 -13 -12 -16 0 23 24 28 13 13 36 79 96 45 8 42 73 81 54 86 86 125 138 101 101 103 92 99 101 86 85 82 51 44 55 66 83 76 69 75 70 53
14 13 56 -11 -13 2 16 22 6 -13 2 18 61 91 79 64 82 59 31 62 41 52 172 73 146 84 73 85 170 71 56 68 93 94 94 39 29 29 43 38 33 49 69 80 78
13 37 49 -11 17 39 19 -2 -2 10 77 96 54 79 192 144 21 -32 32 77 147 83 160 157 88 102 105 141 141 68 80 91 103 88 95 68 58 39 36 38 53 65 67 64 78
8 65 30 9 22 13 7 8 42 84 110 11 -12 144 139 97 86 29 -12 87 119 123 127 197 100 86 100 108 111 123 106 125 129 86 58 49 30 33 70 97 111 106 94 85 126
9 87 40 45 55 51 53 63 45 71 185 147 80 90 102 145 73 134 101 117 178 288 240 215 271 87 80 81 90 123 134 123 114 110 104 113 116 74 87 108 149 149 161 196 227
63 107 113 16 29 101 30 31 58 69 289 99 175 124 107 144 101 25 20 174 97 262 162 199 233 102 77 71 84 148 114 115 108 114 120 84 113 88 97 122 163 192 230 253 266
51 95 120 72 69 68 35 48 82 267 234 151 130 106 162 101 131 77 31 74 126 189 149 167 219 157 179 192 112 61 128 161 145 138 123 123 137 104 119 150 172 181 215 222 213
33 62 47 89 186 89 94 101 200 271 153 118 136 88 71 123 152 125 81 147 73 85 151 141 146 132 216 253 169 168 145 195 173 160 169 144 130 165 139 147 153 147 204 188 132
81 74 57 43 44 44 90 150 129 185 158 83 65 39 97 85 113 97 60 135 115 71 121 151 124 114 206 136 78 110 155 247 190 141 138 143 134 151 124 95 90 113 158 112 80
68 63 65 95 71 72 62 85 75 116 85 46 45 69 83 45 50 70 58 54 60 53 73 77 111 68 140 117 107 108 73 100 140 135 180 143 129 109 104 121 69 71 80 37 12
65 23 34 63 68 68 45 40 80 39 54 30 73 69 55 22 32 51 54 46 49 59 56 60 80 74 88 89 93 85 73 80 85 112 163 113 119 112 68 97 61 70 72 46 24
54 35 58 37 35 64 94 54 54 59 71 71 52 24 17 30 33 54 29 27 45 63 48 45 78 71 61 61 52 84 84 97 96 93 130 140 109 97 62 44 36 49 21 -3 12
30 13 16 21 -3 48 53 58 87 79 55 42 12 20 37 35 41 53 42 34 28 46 54 65 55 77 78 64 71 59 62 64 91 60 65 124 100 69 62 12 -8 18 16 17 9
-3 5 23 12 -54 -14 49 50 40 44 31 24 12 23 22 40 38 52 46 54 12 43 42 33 64 82 69 49 52 50 44 60 53 40 49 89 65 70 40 -21 -2 2 12 14 22
4 -3 -1 -3 -10 -57 -20 23 26 -11 -18 -13 -18 -4 26 38 58 45 45 58 31 38 51 61 57 79 66 69 62 57 31 39 52 44 54 61 75 43 -7 20 20 17 9 22 33
17 2 3 5 11 -7 6 17 -8 2 -5 -12 -29 -21 -17 40 45 33 49 53 41 26 56 54 42 44 39 35 37 53 33 17 42 63 39 72 53 31 42 20 21 14 17 23 37
39 25 4 -8 17 11 6 -16 0 -15 -26 -1 17 42 -31 46 35 -4 29 28 30 42 52 70 36 27 22 23 14 26 20 16 11 1 3 28 58 61 18 7 17 18 12 13 26
57 47 36 6 -8 -2 14 21 22 2 -3 -29 -8 7 27 41 39 43 29 34 28 21 38 40 30 20 28 23 33 21 38 37 37 31 28 16 38 28 31 23 0 -1 2 3 -2

GFSSW_con_3kmhel_033.txt.gz
Helicity
37 27 24 23 20 49 29 35 36 53 43 39 61 93 136 124 121 60 142 61 28 77 103 113 120 164 147 154 126 151 109 111 66 46 51 37 73 55 85 120 71 88 172 140 90
47 29 29 39 47 21 33 30 38 51 82 53 79 60 90 143 124 80 84 104 34 73 106 92 107 119 156 140 157 150 102 58 38 37 49 51 50 48 70 58 64 70 90 110 97
44 16 24 41 57 56 54 40 43 60 55 78 67 49 51 107 175 60 -52 13 23 41 135 70 75 96 133 171 119 104 86 70 59 123 133 109 33 85 52 56 51 52 105 103 90
13 10 22 39 48 36 34 14 31 43 53 57 71 50 34 46 202 108 -11 19 68 74 117 96 86 125 117 152 121 135 65 120 75 75 127 93 51 54 75 96 74 162 174 113 84
-1 26 27 39 54 60 28 13 8 29 50 40 34 36 15 41 69 66 195 103 82 103 94 97 81 123 117 91 123 97 104 135 224 50 73 67 67 64 58 117 153 118 106 119 114
29 18 44 34 40 55 17 -1 11 36 34 37 45 41 23 69 65 62 123 259 71 95 108 78 91 92 136 114 116 83 167 119 144 45 77 87 62 77 84 109 75 73 86 98 107
29 24 46 61 38 56 7 5 20 5 19 21 22 19 29 20 98 141 73 237 181 28 88 70 81 119 154 109 111 180 139 129 91 61 38 67 80 55 93 80 74 78 59 72 88
4 12 11 60 27 20 1 16 8 -3 18 20 22 2 31 20 30 88 40 189 190 62 33 55 63 83 154 132 89 125 128 82 85 53 75 49 78 14 35 40 60 67 69 65 60
3 21 9 19 13 2 -14 10 27 8 9 15 7 -1 24 27 41 74 72 149 162 99 68 63 69 99 143 110 91 102 77 72 77 69 56 25 73 58 -9 62 86 82 84 88 66
13 4 62 15 1 -2 -8 -1 8 13 5 1 5 31 58 29 4 -10 54 63 149 145 161 152 167 123 97 103 100 85 94 42 76 67 76 37 43 99 99 72 69 68 57 69 75
62 64 8 -4 10 11 19 9 6 -8 -1 24 30 73 74 119 -20 -35 33 53 53 188 165 121 230 123 69 45 85 101 49 127 105 57 60 63 52 51 15 45 47 47 62 62 66
115 65 17 10 12 27 28 15 5 22 64 61 52 71 126 133 52 3 24 104 70 83 139 203 128 81 91 78 127 215 74 111 111 91 81 71 48 76 33 28 35 43 59 80 93
105 160 114 79 73 46 28 21 27 57 99 -9 40 85 135 134 23 33 85 34 163 32 113 149 135 100 167 128 108 127 53 79 145 58 79 113 51 15 37 75 93 74 62 81 111
47 70 104 101 108 69 61 37 48 30 125 86 91 73 115 91 37 40 51 40 193 -24 106 145 178 96 135 98 100 89 129 99 120 83 83 35 89 31 38 61 78 78 89 110 110
30 63 51 59 84 30 -1 18 18 50 212 89 111 53 90 99 42 71 20 46 145 221 192 169 184 99 87 68 76 140 90 94 110 128 167 65 142 80 38 58 84 116 135 144 163
44 51 57 113 90 55 50 75 91 229 172 109 114 83 110 65 34 -14 28 67 296 319 271 211 282 249 206 124 73 92 108 111 105 96 95 84 117 54 40 62 87 111 135 152 147
48 56 52 34 80 48 54 84 188 158 132 129 80 41 29 72 57 19 30 113 188 199 187 304 243 215 257 246 176 106 91 165 125 113 129 121 132 219 158 168 73 121 158 168 152
34 53 79 23 25 39 48 61 50 126 88 120 100 32 50 48 86 4 36 77 124 109 149 166 162 195 279 206 134 123 118 227 151 105 77 131 112 158 132 150 158 161 143 134 102
37 84 58 43 22 11 38 24 28 68 70 78 66 28 68 53 46 75 26 54 43 131 104 138 142 82 147 211 123 135 160 209 222 185 145 112 151 88 122 124 108 102 120 75 60
40 70 60 29 7 14 26 29 15 24 57 76 72 55 10 5 7 14 22 19 -1 51 73 72 109 77 164 146 204 166 97 155 167 160 129 84 124 140 134 138 104 81 76 49 25
43 42 60 6 -17 -5 12 30 -10 32 59 72 65 43 11 6 28 26 25 20 38 43 57 55 83 55 63 112 59 103 106 106 141 148 205 130 144 93 67 91 74 67 50 35 36
22 13 -22 5 -27 29 46 35 56 45 31 17 8 21 7 7 10 28 21 35 32 55 52 64 62 111 73 75 115 128 92 60 94 54 87 137 107 57 101 96 54 45 24 13 47
7 5 -18 -28 -22 -25 -14 15 47 28 8 -3 5 16 13 12 14 23 44 42 49 54 50 34 54 95 96 62 48 55 42 85 104 120 75 115 53 75 61 36 23 17 24 38 59
24 7 9 -17 -2 -1 -30 -28 -9 2 7 8 8 -8 0 14 42 30 36 53 38 51 72 71 51 88 116 91 82 83 45 43 67 60 53 74 67 46 46 31 30 34 35 34 30
60 37 22 -2 23 17 12 16 11 8 -14 -24 -5 17 14 21 33 30 46 47 45 33 44 62 57 67 79 71 57 54 48 32 47 54 63 83 66 54 53 35 40 26 21 18 28
80 70 49 8 44 33 25 36 40 14 -4 -2 -7 27 50 49 52 26 18 30 28 27 28 43 37 43 53 34 32 48 33 20 9 17 20 50 58 63 45 44 31 17 18 21 29
54 60 72 40 34 59 58 51 45 19 13 4 25 10 20 60 48 53 51 45 45 29 19 32 43 33 35 22 26 22 19 28 29 38 31 11 17 31 46 25 28 19 13 16 16

GFSSW_con_3kmhel_036.txt.gz
Helicity
50 75 74 31 29 46 42 23 23 28 38 40 46 93 97 120 122 99 88 122 43 65 94 102 128 151 209 227 136 172 125 101 55 117 99 47 119 121 117 132 88 80 94 108 92
57 41 34 23 41 51 35 36 37 38 54 43 49 53 62 75 130 138 114 52 59 19 106 97 113 140 180 182 198 116 118 57 37 76 119 55 91 50 97 110 123 94 66 90 69
16 22 18 23 48 40 36 39 42 50 69 47 89 95 83 74 136 100 106 52 39 23 78 68 83 109 140 173 187 155 74 70 13 93 156 96 92 99 68 85 76 70 44 77 105
29 24 35 44 32 33 33 30 33 63 69 77 78 64 48 98 161 256 59 64 23 70 88 149 100 140 162 154 154 162 46 118 66 -19 81 135 143 48 90 83 80 119 218 46 77
38 27 17 45 39 22 8 34 46 50 38 45 48 41 43 54 109 116 104 54 65 56 83 118 118 137 153 119 140 105 158 36 118 56 77 138 179 139 97 85 122 183 210 136 94
6 14 11 28 43 33 20 27 55 6 8 34 29 12 40 105 108 26 66 144 105 58 63 79 130 114 161 140 110 101 166 289 163 109 114 168 102 118 98 84 91 128 115 85 101
15 17 26 34 31 28 17 -4 27 9 15 32 35 37 33 19 82 82 66 138 159 84 75 80 88 120 183 195 119 145 175 228 191 92 53 99 132 122 88 126 103 88 75 82 92
18 27 25 48 23 12 -3 -4 1 8 15 16 24 12 38 29 24 98 25 67 155 150 81 100 70 90 190 144 150 167 192 164 178 99 99 -4 74 47 72 95 107 95 83 74 54
39 68 36 31 17 10 -2 5 -9 2 3 4 9 6 56 19 17 45 68 41 102 161 55 191 107 148 144 221 162 155 153 123 125 90 104 71 53 43 84 70 77 64 68 75 74
69 43 25 13 26 13 4 3 18 12 -6 -1 11 25 22 60 29 53 63 46 133 82 161 48 124 251 158 180 169 112 152 81 79 113 91 86 55 123 128 150 87 122 137 126 112
44 67 29 26 29 37 28 35 16 2 11 17 10 45 98 80 51 57 49 84 114 126 69 111 201 133 66 71 116 77 83 102 42 94 81 74 58 68 113 97 77 81 81 81 87
52 48 67 56 46 44 60 39 14 21 53 38 34 27 34 30 80 74 52 118 71 113 176 153 92 93 93 85 105 156 132 103 167 142 97 84 50 74 71 93 61 65 72 71 85
49 55 45 29 66 33 19 34 19 24 85 46 47 38 9 -22 35 -50 -23 90 69 120 161 179 111 36 55 76 117 157 177 126 218 172 105 142 77 36 98 71 68 98 97 120 131
29 47 47 20 41 26 74 12 25 25 134 84 54 35 1 111 62 47 49 182 370 194 177 199 223 146 112 104 119 129 160 134 166 135 102 82 88 29 50 102 110 95 54 60 147
38 25 46 36 41 110 73 41 41 63 173 54 62 26 35 57 6 88 100 152 264 238 316 352 228 171 155 148 170 205 186 239 152 138 182 116 107 52 170 101 95 119 180 188 193
30 42 37 37 65 83 76 63 96 173 129 67 72 31 59 40 60 39 38 63 237 180 184 180 229 226 251 192 148 212 242 159 117 112 120 106 89 68 89 86 113 124 97 106 108
38 28 57 11 22 52 50 62 135 93 52 73 54 31 12 60 61 49 15 112 108 134 106 202 268 252 277 237 143 136 191 159 150 155 133 168 133 96 113 115 147 63 96 104 106
48 27 76 52 8 7 28 63 29 87 64 73 45 24 36 55 34 22 55 84 120 157 135 156 111 228 236 245 244 199 147 175 150 110 134 160 116 167 213 214 103 175 152 118 134
52 75 61 66 47 4 27 5 -37 35 79 40 28 55 59 38 36 43 32 73 162 196 102 192 109 200 232 287 262 230 175 172 212 175 126 112 131 148 203 220 229 123 99 99 105
23 37 53 85 33 -9 9 19 -16 -20 42 57 60 50 14 6 38 32 17 20 47 134 159 182 217 114 122 238 248 211 156 184 190 165 128 71 59 103 115 130 138 117 105 91 63
18 18 46 31 13 -6 -3 23 -3 17 36 46 46 9 -17 8 26 9 17 15 15 25 88 110 110 111 114 122 134 156 145 156 179 173 183 113 98 99 73 96 102 83 106 90 79
12 12 43 11 -0 -0 30 18 35 35 2 5 12 45 8 -0 20 14 23 42 52 23 39 72 85 121 94 114 164 95 88 164 108 123 156 169 118 43 62 95 108 121 81 45 110
28 18 24 -13 33 17 -13 5 18 7 12 1 2 1 15 17 9 31 39 21 49 77 58 31 61 119 85 64 91 93 81 77 124 132 87 109 99 124 150 95 50 25 25 70 87
42 43 34 19 17 67 17 21 12 1 -13 -13 -0 -7 -2 10 24 24 22 30 48 50 65 80 57 85 108 99 78 92 76 86 135 123 95 101 137 123 101 35 45 73 84 85 75
51 63 58 49 38 57 42 49 28 12 -20 -20 -15 -6 -0 13 22 26 52 31 27 27 41 76 72 73 84 85 91 75 72 73 104 110 103 90 71 47 54 63 62 57 73 54 61
69 70 74 42 48 27 35 43 63 35 18 12 7 14 36 75 64 37 34 28 32 51 42 58 55 79 69 54 59 63 56 66 69 55 44 106 126 203 145 123 86 67 46 40 45
33 54 71 72 72 79 79 75 55 54 15 14 35 37 33 61 86 80 55 35 40 34 38 47 57 53 61 44 30 38 32 56 68 78 60 53 48 110 124 73 63 45 41 37 46

GFSSW_con_3kmhel_039.txt.gz
Helicity
38 30 24 32 41 37 23 20 24 30 52 56 45 57 84 120 89 103 101 126 103 147 91 139 140 175 208 217 249 297 157 58 159 216 102 64 250 161 94 132 114 77 85 82 88
24 32 31 36 45 36 26 29 27 46 43 57 47 38 59 91 135 83 94 6 67 80 112 133 148 196 228 245 325 274 195 46 55 19 157 162 283 115 149 122 144 117 113 111 101
26 18 23 30 41 50 28 28 42 53 58 62 39 42 117 84 114 86 27 -5 69 38 90 111 120 209 223 247 266 214 101 59 59 39 -56 58 171 36 71 122 126 63 56 86 88
19 18 23 18 32 33 13 25 21 43 38 52 47 76 159 132 167 99 145 -36 13 55 78 97 141 211 213 223 196 131 89 10 36 71 -12 45 218 121 80 85 128 72 51 81 69
11 16 36 25 34 19 24 19 20 51 43 46 53 53 66 104 111 167 197 63 84 83 87 108 139 179 213 201 161 148 83 53 50 38 3 24 297 148 99 78 116 214 122 30 43
17 12 17 32 39 21 22 27 33 47 38 42 25 38 76 113 105 135 168 125 109 66 94 81 122 135 158 115 172 122 140 169 135 -12 -58 22 167 246 125 123 114 106 144 112 45
49 34 47 47 33 7 -6 -17 1 33 28 14 12 4 27 36 111 131 131 160 130 85 75 94 115 122 159 159 107 227 118 104 148 126 93 54 123 10 115 155 131 97 76 96 98
45 26 12 19 18 16 -9 1 -16 7 14 9 8 3 31 64 49 86 96 131 151 113 102 117 104 146 176 184 183 200 173 175 124 142 119 84 49 41 102 122 114 106 90 85 73
46 13 25 17 24 3 12 22 14 -2 -1 4 4 6 76 77 22 35 63 129 166 132 111 131 114 197 167 205 230 179 160 170 168 139 139 115 29 52 81 97 98 98 87 79 96
38 27 -2 -4 9 24 -4 15 12 2 12 12 23 45 80 88 52 43 44 30 169 80 101 172 154 173 179 204 161 130 121 144 153 169 132 108 74 86 117 98 71 68 74 82 88
21 34 14 -14 7 -3 34 30 34 18 20 19 35 54 65 79 57 36 55 39 212 153 181 106 165 67 19 168 181 178 191 133 124 118 108 89 82 64 108 113 96 91 85 118 125
27 17 18 -0 -34 10 56 95 64 59 39 54 47 37 21 34 89 82 57 -10 139 82 78 88 84 91 141 139 121 128 98 88 150 89 122 105 83 70 86 88 80 72 69 83 119
23 34 17 10 -20 40 66 48 15 45 74 51 22 -10 -0 64 99 92 102 60 110 4 60 101 70 117 123 136 124 115 152 145 150 250 223 152 103 83 75 88 111 114 98 113 105
20 27 17 31 54 76 117 84 62 55 87 56 41 -3 -72 3 28 85 100 91 125 71 67 118 100 67 127 78 97 122 137 135 166 192 138 92 79 60 91 79 125 143 138 105 118
30 7 5 40 47 70 98 79 44 31 253 70 40 -41 -16 -4 -73 44 61 62 63 103 181 131 114 89 57 71 92 137 128 184 189 193 144 111 87 45 81 151 153 143 136 113 143
28 16 3 4 52 32 55 41 37 54 153 54 105 176 67 52 56 41 42 123 227 168 263 279 232 180 153 155 171 151 282 269 212 156 105 86 97 67 104 112 199 188 151 168 192
47 18 34 20 45 86 34 20 43 41 64 99 104 87 37 68 66 140 111 104 183 204 230 177 251 257 195 270 266 263 301 262 201 154 74 120 115 81 103 104 217 184 122 108 122
86 11 57 30 22 30 22 36 10 14 66 104 107 70 60 52 37 27 84 81 136 159 263 247 193 226 233 240 177 229 228 170 120 164 117 180 82 93 104 144 172 125 68 86 109
61 37 50 24 30 -8 17 20 31 26 65 82 98 66 50 58 56 62 63 58 67 114 87 98 137 241 243 311 292 243 159 213 187 149 131 119 128 131 160 211 187 149 128 103 109
26 14 27 62 23 8 -7 -26 -10 12 32 90 77 52 29 42 81 88 54 64 78 154 158 88 60 137 208 244 287 259 270 232 250 169 139 112 96 84 132 166 192 179 112 72 101
22 21 21 46 11 27 11 -8 -36 -16 -13 21 41 3 16 44 55 39 34 34 54 132 151 104 107 108 144 163 197 273 263 188 165 143 147 112 100 69 57 173 189 156 94 83 96
5 14 17 33 31 47 51 -2 4 2 -19 -7 12 39 26 23 23 7 -3 19 -1 -26 98 124 112 195 140 67 163 221 151 172 119 146 127 121 112 95 74 129 126 99 98 96 123
18 14 12 12 66 65 22 34 40 30 5 2 3 -5 9 31 11 15 18 30 71 44 14 31 91 164 113 127 169 149 107 117 126 114 71 86 93 62 67 87 93 84 83 102 113
23 4 26 37 32 44 64 37 25 13 4 7 11 16 15 14 20 18 29 20 31 41 58 53 55 50 64 60 104 109 97 98 118 157 87 16 31 84 64 57 62 85 96 90 90
12 12 46 44 66 58 54 61 43 36 18 12 16 13 24 14 14 29 31 32 28 31 60 53 67 77 86 80 85 79 112 116 97 96 112 82 99 52 103 82 76 87 100 90 75
28 22 31 50 75 83 79 88 67 54 39 19 22 15 50 68 47 38 43 25 24 40 45 59 57 85 81 57 68 76 65 82 76 63 63 77 86 95 109 140 153 98 83 61 54
16 3 47 82 150 125 100 84 66 53 27 27 20 22 47 39 47 25 22 16 29 40 48 59 66 72 66 75 66 64 49 79 105 115 87 9 76 141 195 178 120 74 66 59 56

GFSSW_con_3kmhel_042.txt.gz
Helicity
45 36 27 34 42 50 57 44 34 40 42 41 52 61 80 65 112 79 82 98 85 79 61 165 156 182 244 250 328 346 258 141 127 209 215 168 203 135 120 119 175 152 122 131 137
30 22 22 26 31 35 51 23 36 47 45 28 48 50 31 79 149 76 61 53 93 85 133 166 156 189 229 316 365 255 175 150 98 177 213 181 186 239 191 146 155 181 217 170 172
18 32 38 26 13 22 21 18 34 29 35 46 51 26 35 86 114 77 114 33 60 76 101 115 148 212 221 307 344 292 161 190 79 97 34 33 148 172 239 123 113 70 106 110 162
36 36 25 15 19 24 20 25 22 27 36 38 47 44 107 84 126 75 172 80 34 69 150 130 183 247 235 233 226 178 117 105 91 46 41 -82 -12 146 230 215 51 52 56 69 92
39 57 82 59 36 14 15 28 49 33 31 33 34 48 85 94 110 154 209 261 21 45 60 136 197 264 245 217 195 199 34 95 63 28 84 30 8 196 387 252 55 142 116 76 80
37 30 53 27 26 26 13 8 27 29 26 28 32 30 54 73 89 117 200 92 45 53 70 126 160 203 213 206 169 162 195 71 69 27 9 91 126 287 309 111 61 126 110 91 71
28 24 85 38 17 18 12 -16 4 13 9 4 -1 -0 94 75 95 190 201 191 143 49 88 115 129 193 180 187 181 100 146 146 63 48 60 60 25 31 146 143 93 83 88 102 89
32 23 84 58 29 9 12 -0 -12 8 5 -1 2 -1 99 91 64 113 214 226 236 121 70 91 148 149 222 198 212 169 146 137 99 49 42 -1 5 111 251 205 98 85 110 123 120
31 16 34 65 30 12 3 10 18 1 -7 16 2 12 53 103 56 55 172 211 227 72 105 101 131 167 195 216 243 272 196 127 136 73 131 81 76 88 28 46 62 70 86 94 111
22 9 19 30 17 -9 -13 4 -3 9 -6 -8 17 41 63 63 73 50 66 182 177 58 100 161 162 159 172 226 177 87 153 102 143 111 130 116 88 78 61 36 50 76 85 85 85
12 4 12 17 6 -15 -2 28 22 8 15 14 6 33 73 96 50 53 76 190 178 139 60 246 212 74 160 216 168 169 181 170 206 140 109 62 29 15 47 116 72 75 76 75 82
6 7 22 14 2 -15 24 40 25 27 9 7 29 39 41 50 56 58 53 191 178 69 85 168 92 141 168 182 191 149 157 117 126 111 80 68 32 77 30 49 90 73 78 72 97
7 -10 11 22 22 49 33 12 -16 3 9 13 -2 -13 41 73 63 44 20 168 182 74 98 196 102 144 124 148 131 145 128 148 119 145 149 78 45 41 29 52 82 88 71 76 73
-0 5 8 20 73 97 77 31 2 1 49 30 16 -26 17 68 74 65 67 123 170 30 56 80 125 69 106 68 97 122 155 158 104 149 125 131 91 59 59 42 49 58 89 98 132
-18 2 16 56 63 91 65 46 26 38 173 62 19 -22 -57 10 42 80 61 88 180 126 68 79 58 97 82 51 111 127 117 160 178 210 156 134 70 12 83 81 56 92 145 160 157
-8 3 27 49 54 68 63 22 34 54 70 121 41 -33 -83 -74 80 88 84 75 97 124 48 106 218 158 105 90 97 106 214 261 240 176 122 108 83 2 67 73 94 171 179 151 176
39 -0 48 52 44 80 51 39 50 27 47 64 38 42 -34 -56 -86 78 82 95 28 110 167 174 145 167 125 143 187 174 216 219 203 191 67 123 107 109 53 70 90 189 210 205 200
68 7 32 21 19 57 51 31 25 40 17 57 54 52 28 9 -70 11 80 70 72 32 259 135 116 118 146 183 178 189 187 193 115 108 92 148 58 66 58 46 106 208 209 203 188
5 22 26 3 17 15 -3 4 21 43 49 45 38 113 78 30 -13 10 28 93 117 104 132 221 236 201 184 219 188 199 184 160 182 157 103 79 111 126 80 86 169 165 172 148 146
27 14 3 16 45 8 -21 -19 -25 39 41 63 26 32 50 64 33 -11 -5 15 71 153 140 115 169 178 175 167 160 197 256 222 223 123 86 74 69 52 79 98 160 186 165 135 123
28 11 1 23 21 38 27 -11 -31 -27 39 24 32 10 33 41 20 29 5 5 -12 67 103 108 128 171 223 225 226 297 249 268 238 212 147 68 -10 26 24 82 131 158 128 104 89
30 20 4 13 32 49 79 34 6 -4 -16 -16 25 38 29 42 42 22 15 37 29 104 123 114 64 105 116 70 137 190 180 246 215 193 201 138 56 49 22 87 176 171 128 90 94
39 31 11 25 55 62 54 65 51 37 8 1 -0 15 41 37 20 28 35 35 -5 73 73 59 76 145 138 123 159 129 182 214 272 232 88 126 89 82 46 68 106 129 122 121 149
45 48 20 14 41 64 72 59 55 29 18 21 20 30 26 25 33 22 40 49 45 39 45 83 64 47 63 51 129 154 164 194 191 132 117 67 60 56 28 24 66 88 120 122 141
36 46 30 18 33 83 79 56 32 46 46 35 37 33 30 20 26 40 47 53 44 46 66 58 45 59 71 60 69 57 109 155 130 132 117 25 -24 -29 24 26 51 81 121 135 117
64 54 25 27 36 85 90 128 74 68 62 54 54 75 47 46 55 35 50 39 37 35 47 67 51 75 84 74 79 79 66 69 100 41 23 23 -22 43 100 115 118 124 133 112 106
28 16 42 70 82 97 104 86 82 80 54 50 50 35 48 38 44 46 29 17 33 34 55 62 65 73 65 89 79 66 27 102 98 119 146 106 143 84 100 119 163 144 105 89 91

GFSSW_con_3kmhel_045.txt.gz
Helicity
15 25 61 64 59 46 23 14 37 49 56 33 45 51 85 108 94 74 111 117 117 84 91 139 171 187 258 179 310 323 162 119 150 108 -26 10 153 184 268 182 147 158 114 117 124
42 40 94 80 41 43 32 28 28 39 47 33 38 38 63 33 102 175 104 64 98 107 120 143 172 187 223 220 223 326 176 136 120 142 -59 114 66 180 231 402 173 108 189 197 133
55 80 129 106 55 50 52 24 19 24 28 42 36 34 21 60 99 107 87 64 60 80 86 139 138 163 202 226 238 246 118 163 123 109 4 41 40 103 201 359 145 204 89 165 126
55 66 90 76 30 27 37 26 16 20 25 24 30 53 47 61 130 100 110 230 37 95 69 127 182 187 186 175 194 170 137 106 145 130 127 -50 60 138 177 354 278 255 46 112 102
40 53 83 67 40 29 33 29 37 33 26 24 26 45 68 69 116 176 252 189 129 79 75 133 186 186 162 188 220 194 104 141 180 107 152 82 -20 45 259 379 291 121 41 74 104
33 41 74 51 52 14 18 12 -11 6 12 23 30 18 38 53 79 74 163 167 116 81 57 120 132 170 189 172 188 137 120 158 210 110 58 48 36 9 180 259 270 86 55 56 87
47 38 50 38 47 27 3 -6 -8 -12 -4 -0 -1 33 35 21 74 144 117 117 90 81 80 104 141 165 182 194 196 123 170 203 122 79 71 96 74 -34 246 200 345 217 72 96 86
13 45 37 29 24 33 10 -8 -11 -4 -17 -15 -23 -0 58 64 77 163 126 142 179 95 99 91 109 175 186 180 252 186 180 157 62 73 66 69 88 -3 151 229 321 243 72 80 104
24 24 22 19 12 -2 3 -4 4 -3 5 -2 -12 2 64 39 68 111 137 130 98 132 100 191 145 188 230 192 301 227 136 154 108 38 129 138 147 124 111 161 289 238 97 79 91
13 30 20 1 2 -7 -22 13 2 -6 -15 -2 9 20 33 79 62 71 134 152 131 103 77 115 211 174 198 192 254 183 167 155 134 112 128 105 107 -7 207 409 312 237 121 64 78
6 19 24 14 -11 -14 7 33 33 8 -7 13 -11 22 55 75 30 65 122 185 165 81 180 150 227 148 167 220 197 184 190 168 209 125 147 62 77 6 45 218 239 153 72 60 64
1 2 28 17 -0 -12 28 38 40 29 8 9 11 19 37 50 51 60 124 122 134 112 107 232 109 144 117 191 116 133 136 147 182 134 58 81 65 50 36 91 148 65 35 65 110
-4 -3 13 23 16 23 48 43 -1 13 26 -8 -6 -4 40 60 47 48 97 68 145 89 68 174 80 117 123 168 153 157 130 126 96 165 148 74 77 49 22 4 -10 24 46 67 75
-12 -14 9 33 57 80 53 19 -10 -8 55 54 -0 -14 33 61 64 51 22 161 84 62 155 96 213 191 140 135 127 135 132 127 105 146 94 94 76 58 34 41 13 37 44 68 86
-20 -26 15 48 77 92 55 42 -3 10 113 64 8 1 29 48 34 107 58 167 82 56 54 135 179 149 150 126 116 118 95 100 98 124 87 101 68 30 65 59 42 47 67 75 109
-23 -21 17 56 51 49 67 21 9 40 48 50 6 -45 -15 38 49 52 83 116 152 114 125 139 177 135 85 101 97 86 150 173 133 126 64 62 61 -37 64 52 63 57 67 102 158
-29 -17 41 53 29 65 50 38 43 49 31 66 12 -21 -73 19 46 40 153 149 100 80 137 140 153 125 103 94 128 130 185 193 160 136 41 133 90 5 64 60 49 69 46 138 205
-27 24 34 17 25 58 30 25 23 -14 18 42 -24 -18 -73 -69 76 46 90 103 118 66 82 86 160 145 179 161 135 157 130 207 145 102 71 133 53 29 26 47 51 47 121 141 217
-3 28 20 -9 21 18 3 7 25 2 3 9 113 4 -40 -77 -39 62 63 72 73 61 134 105 136 156 196 210 191 196 150 125 103 120 94 63 59 43 57 53 53 74 135 159 217
37 38 13 4 14 13 18 -5 -8 16 19 23 21 41 -39 -47 -72 -8 56 72 60 45 82 78 91 135 184 174 164 129 168 139 164 102 65 85 69 43 38 31 63 95 147 149 167
37 62 11 25 10 31 25 14 3 29 -2 17 10 1 9 7 -32 -47 -53 53 48 54 49 81 139 173 174 135 143 173 157 171 135 142 127 106 59 22 9 -15 25 101 121 126 123
60 105 14 -2 20 31 39 31 28 24 7 8 -16 -4 24 -2 2 -19 -68 -43 -25 72 66 124 105 128 159 158 159 140 123 163 204 210 174 159 82 66 20 10 32 97 110 115 104
97 81 8 -4 30 38 62 70 60 46 29 22 20 31 44 30 16 19 20 49 7 92 93 92 64 89 86 88 128 144 158 226 261 205 154 133 84 53 68 17 34 85 113 109 109
109 136 54 35 26 37 53 71 67 45 34 35 31 39 37 40 53 35 46 40 31 87 95 119 55 43 54 35 135 130 109 165 198 129 154 54 103 122 34 18 22 80 134 110 107
95 120 80 67 48 34 77 91 46 59 65 61 51 57 40 36 43 50 57 67 52 42 67 67 51 69 52 57 76 63 85 105 119 154 101 60 71 126 84 -3 -34 4 120 128 123
104 109 82 73 69 34 59 124 111 63 69 71 56 65 51 44 51 30 56 53 54 60 66 75 51 61 67 57 42 48 48 37 59 56 53 76 23 100 58 37 97 100 172 126 108
65 50 78 78 58 50 26 74 105 91 65 57 81 43 65 59 62 55 45 46 41 46 74 64 57 71 62 78 63 39 57 104 122 116 137 47 264 126 67 52 89 108 114 106 109

GFSSW_con_3kmhel_048.txt.gz
Helicity
34 43 76 94 94 62 57 50 31 46 41 51 40 62 64 84 83 152 132 94 84 152 90 158 186 211 244 258 215 76 185 240 208 252 141 76 93 142 165 221 163 142 109 89 125
27 45 62 76 79 58 55 30 17 33 28 37 37 36 46 72 51 80 118 44 95 79 108 145 212 206 248 207 228 211 154 104 225 263 163 49 61 146 205 311 222 257 225 179 120
26 45 60 64 66 37 42 31 -5 32 25 36 41 38 33 31 59 37 88 109 95 129 85 105 175 197 207 201 187 169 118 149 138 147 38 37 2 76 165 292 253 384 353 132 78
28 47 56 55 58 36 35 38 2 5 34 28 35 49 52 56 88 46 42 98 138 109 109 126 183 230 204 187 175 98 75 154 132 152 118 9 -64 21 120 218 271 304 260 92 48
44 41 52 52 51 29 27 20 -6 -9 14 26 25 47 81 67 84 89 250 222 165 96 101 136 195 197 204 176 142 150 50 47 95 77 138 -18 -40 -67 106 155 193 279 251 85 56
30 45 45 33 43 28 12 8 -5 -7 -0 24 26 31 52 49 25 52 280 200 73 53 80 130 123 166 190 186 150 96 58 102 132 140 122 113 -47 -20 -20 25 216 315 292 98 74
29 22 39 25 28 24 3 1 -3 -12 -17 -18 -3 27 3 26 -11 41 174 109 80 36 99 117 105 159 168 171 157 142 104 172 155 163 125 125 118 12 -79 -7 157 314 322 157 64
19 31 16 11 16 18 -4 -15 -0 -6 -10 -7 -21 -26 7 35 24 108 94 101 119 32 88 93 107 135 120 162 222 186 167 161 137 140 162 117 57 72 62 57 189 304 314 197 95
22 16 22 4 -0 8 -2 -11 8 -2 -14 -5 -4 -13 9 42 69 139 68 108 99 84 80 102 126 132 138 153 247 232 177 168 122 81 112 153 62 109 139 86 225 290 263 215 140
18 10 16 17 -9 -8 -8 15 10 14 1 1 14 1 28 61 94 104 91 122 114 124 152 136 174 179 180 194 165 240 255 195 163 94 108 57 93 97 61 131 307 252 232 214 161
18 -4 10 10 8 -9 4 29 41 36 10 29 9 8 23 70 43 80 103 93 120 196 184 66 400 124 217 221 153 204 204 143 147 79 133 38 78 51 37 68 103 227 271 188 174
9 -16 -3 10 17 1 38 64 51 42 37 9 8 7 10 34 49 58 61 71 116 213 204 236 143 170 185 194 168 168 171 137 132 67 106 56 39 61 39 96 89 135 208 159 102
4 -23 -14 4 27 37 69 48 11 22 45 -0 5 -5 26 33 36 55 50 11 140 129 67 207 147 163 171 183 181 182 129 135 127 148 132 78 55 27 89 87 75 143 166 225 143
-3 -20 -20 10 49 72 84 54 10 8 96 78 9 -3 27 37 35 44 54 73 40 61 74 196 188 146 151 170 156 147 94 112 98 137 117 107 53 45 32 51 96 51 42 143 106
-26 -37 -9 31 61 75 66 48 20 18 115 67 17 5 41 22 25 64 71 108 53 25 108 155 149 137 136 117 140 140 99 143 137 140 116 117 72 40 70 49 -35 -8 60 56 79
-45 -40 4 50 43 44 63 26 23 66 92 106 7 -14 13 17 35 62 111 153 46 84 54 139 208 171 121 116 118 64 160 175 144 111 85 63 43 32 44 18 20 41 98 57 95
-51 -33 31 47 31 51 44 42 30 55 47 101 60 -13 17 26 92 73 165 85 47 82 72 102 227 230 175 172 145 145 182 198 151 122 81 110 73 55 73 67 61 69 63 45 69
-24 28 38 26 21 38 19 22 47 19 31 38 84 -12 -24 37 115 95 107 127 55 89 79 128 161 143 156 135 141 169 172 141 76 23 -40 35 -23 -10 -1 18 9 33 58 77 84
30 33 17 3 24 9 18 15 39 19 21 26 32 1 -30 50 48 93 120 65 64 70 126 132 106 116 118 161 132 156 159 129 99 73 41 28 3 -2 18 30 49 42 42 51 103
60 43 24 1 15 3 8 8 9 11 23 26 33 17 -23 -8 26 31 61 66 68 69 50 51 116 158 136 143 158 102 146 155 177 85 46 -7 -20 29 57 54 59 41 40 76 121
63 90 25 10 3 11 4 11 14 -3 -7 25 22 11 -4 -41 8 22 30 81 52 48 96 67 102 136 156 144 130 212 194 187 146 109 38 31 17 9 38 103 120 44 28 86 118
88 121 34 8 12 11 15 25 22 42 9 -3 -11 -13 7 3 -34 15 22 75 54 51 66 81 64 114 109 133 145 147 139 160 143 126 87 84 77 94 34 -17 9 8 34 72 96
106 87 35 19 32 26 18 31 38 46 46 45 39 22 30 3 -29 -1 38 65 56 120 104 74 95 140 120 97 82 99 111 139 148 136 107 147 144 116 92 43 -36 -11 31 58 77
102 108 88 40 28 29 32 19 56 31 26 38 45 49 40 30 38 14 32 32 90 136 124 127 91 84 92 83 111 149 169 139 180 185 170 168 156 113 77 39 -40 6 40 65 74
74 99 80 115 59 19 21 7 34 67 49 71 54 56 37 31 33 35 43 62 63 64 99 87 97 85 63 39 51 62 63 129 141 104 234 99 94 92 80 46 47 30 -18 55 113
103 97 76 94 57 31 19 7 48 77 85 73 71 84 55 46 45 21 44 41 28 45 53 76 69 71 83 78 55 51 54 58 30 51 -4 89 66 32 54 90 92 64 54 56 104
55 52 77 72 80 70 15 14 63 76 68 72 53 47 92 77 60 47 29 34 32 62 72 64 68 74 41 72 67 37 24 37 123 126 108 8 222 134 66 58 19 38 83 139 115

GFSSW_con_3kmhel_051.txt.gz
Helicity
16 17 30 51 47 60 46 43 51 23 14 32 41 48 33 53 93 73 132 76 85 113 96 148 183 184 199 286 320 228 320 222 199 200 234 189 181 157 93 165 172 162 192 175 81
28 22 30 51 45 51 37 39 41 18 2 26 34 52 36 76 51 54 45 89 91 73 142 130 190 169 234 235 294 277 47 248 184 229 241 248 157 211 145 187 222 245 285 203 136
38 26 33 50 39 38 27 35 43 4 -5 9 39 50 35 29 51 75 -2 136 113 65 140 140 137 180 225 208 175 294 203 109 141 209 239 292 147 158 187 202 229 302 281 268 116
28 42 31 41 36 35 20 14 13 1 -3 -8 25 61 49 49 36 61 71 114 137 155 93 132 172 174 205 174 167 129 49 79 92 193 201 259 24 158 185 189 153 189 171 204 110
29 29 38 33 27 36 19 5 2 1 -5 -12 26 39 60 51 53 35 143 156 242 143 90 156 155 202 204 176 159 91 54 77 56 100 98 128 26 69 150 142 144 171 124 238 144
38 25 30 34 22 25 18 4 -10 -5 1 8 20 31 45 44 40 41 64 135 220 112 91 137 123 153 195 141 156 132 98 32 117 81 29 133 94 -36 9 -10 140 188 167 219 202
39 19 21 17 14 15 12 -5 -14 -7 -5 4 16 3 22 10 7 67 46 92 234 96 95 121 111 145 191 194 167 178 108 72 65 29 82 100 41 -82 -53 -24 102 165 195 208 241
46 31 16 20 8 7 7 -2 -11 -5 -7 5 22 4 2 -0 19 113 102 136 113 70 60 86 124 132 171 192 202 144 125 95 115 88 101 82 63 -13 -136 -71 80 93 175 200 260
52 26 10 13 14 -11 -6 -3 18 7 -4 9 31 33 1 18 29 214 169 125 70 94 102 55 132 145 170 155 173 170 121 99 131 111 144 81 99 64 39 -187 29 73 159 201 259
58 19 10 12 18 -9 -18 5 29 11 3 14 25 17 7 36 30 117 47 98 103 94 96 103 139 195 172 176 133 186 211 196 138 106 107 99 77 94 30 65 29 143 126 175 260
50 26 10 11 16 5 6 22 48 31 14 35 18 23 16 49 56 52 -3 118 144 179 138 129 212 121 155 167 147 163 195 177 154 56 97 74 91 62 61 60 161 107 188 192 297
40 10 5 5 16 24 41 66 50 34 42 22 9 7 16 9 47 59 -2 87 148 202 122 173 301 178 170 146 146 126 160 161 154 48 54 67 18 12 41 51 85 108 109 181 265
37 8 1 -2 20 55 73 49 23 16 35 -1 10 -7 16 34 55 72 23 33 188 211 102 198 153 172 154 166 162 154 131 157 127 88 101 53 87 56 67 83 39 51 125 166 187
29 -0 -4 2 54 63 76 54 38 11 57 25 7 -7 20 25 51 55 34 30 163 183 184 144 72 147 173 136 162 132 105 117 132 142 94 90 47 56 31 33 58 80 130 217 228
18 -6 2 28 70 60 50 42 26 1 101 45 -5 -10 19 17 21 86 38 71 172 138 172 136 73 130 95 129 128 106 96 115 143 162 131 131 90 29 72 16 -12 4 -12 114 44
3 3 33 51 52 38 48 17 13 38 73 52 -9 -6 12 39 52 33 60 77 114 152 116 94 210 215 163 155 127 107 194 209 171 150 102 96 77 44 63 61 71 67 37 -19 33
5 16 60 41 42 30 32 31 29 44 43 70 7 -4 29 27 67 64 38 42 94 140 93 176 173 170 164 150 157 151 197 201 159 116 32 81 83 48 48 47 49 72 75 59 63
46 50 40 33 17 23 14 26 41 34 29 35 -9 -19 19 9 102 98 55 69 92 17 52 159 123 153 211 148 130 154 138 137 100 76 51 94 13 5 26 25 24 6 49 78 91
76 41 40 11 32 7 21 17 48 36 39 38 -2 -10 -3 58 95 139 144 81 78 68 70 172 153 183 201 168 151 155 134 144 117 135 68 34 59 31 15 25 22 26 23 56 53
96 65 35 12 21 14 20 3 24 20 22 17 43 1 -15 -17 13 81 146 54 35 46 139 99 136 168 159 196 176 117 100 146 154 60 26 16 16 22 41 109 135 114 89 73 65
94 127 42 25 20 20 17 6 21 15 17 44 53 10 -44 30 1 43 105 40 60 47 61 63 105 93 111 115 112 155 142 153 122 94 24 -26 6 9 45 80 59 58 54 38 44
115 149 44 24 15 -0 17 11 14 12 -6 -3 4 3 -28 -10 32 38 75 97 49 28 55 45 76 113 105 89 106 127 89 130 112 71 96 64 41 40 27 -16 -21 4 -12 8 38
158 132 46 28 75 9 4 7 19 30 34 20 -6 -9 19 3 32 47 46 84 53 28 31 38 72 115 75 81 124 113 117 135 137 139 99 79 57 39 43 73 47 -64 -107 -34 39
157 177 76 29 7 9 -7 -5 -6 29 38 37 38 21 6 3 28 24 50 51 62 79 81 77 72 66 49 58 93 110 100 128 135 131 120 57 98 53 36 6 -1 -36 -65 9 66
119 139 93 136 39 15 8 -3 -18 -13 45 58 42 45 31 15 11 28 43 59 109 141 142 102 84 82 85 97 93 83 81 97 132 164 173 47 38 49 52 61 49 11 36 37 31
148 143 94 81 39 40 5 -7 -19 -15 55 57 48 64 43 30 24 -0 6 5 19 53 66 107 86 83 106 98 60 41 46 82 88 70 23 5 17 25 82 51 68 95 69 66 68
69 72 89 65 62 71 48 -1 -13 -0 64 74 41 32 72 57 50 35 19 21 18 40 42 42 54 54 59 63 42 41 45 103 123 113 77 -12 113 59 21 15 33 76 86 38 18

GFSSW_con_3kmhel_054.txt.gz
Helicity
29 16 28 20 23 39 55 56 48 46 14 4 2 26 38 36 34 63 22 89 35 145 86 78 128 152 218 226 260 272 288 82 178 171 172 192 147 195 186 120 185 188 206 200 167
54 26 21 23 27 31 52 46 50 24 6 -2 0 32 21 8 26 34 54 61 81 122 147 76 111 125 130 273 255 246 184 99 185 160 180 216 160 164 153 126 182 175 184 136 122
42 40 26 30 26 35 40 40 31 7 7 -4 0 30 15 -3 7 43 67 106 122 110 141 134 92 127 97 186 231 225 142 231 237 289 229 201 172 159 132 165 211 208 216 153 139
42 39 33 27 35 28 42 31 20 5 2 -18 1 30 42 19 38 55 58 58 121 119 135 188 103 140 110 97 203 235 117 41 143 281 267 272 174 124 197 183 158 172 176 166 148
53 46 32 31 28 25 30 29 9 -7 -5 2 3 23 36 32 49 25 59 20 119 144 205 199 107 131 138 74 41 157 107 192 180 144 195 213 175 191 153 147 164 201 188 171 183
47 50 38 13 17 22 24 20 18 -7 -12 -9 5 9 22 38 56 39 36 22 73 163 68 166 128 149 161 118 59 65 44 24 100 64 69 226 200 180 76 70 102 189 209 174 176
56 51 35 12 13 5 21 19 -2 8 -9 -8 13 27 15 55 44 43 44 53 32 112 139 130 157 168 149 126 164 70 38 11 -1 -4 77 28 145 101 104 49 132 202 199 208 175
62 47 35 18 7 11 3 11 1 16 2 -4 11 23 17 22 40 43 73 52 48 100 68 41 157 156 162 144 148 114 55 93 23 -24 51 30 120 83 144 0 99 138 168 184 164
63 46 34 15 2 12 -6 -5 10 16 16 9 19 19 15 -15 28 104 85 122 19 59 76 48 142 166 144 97 146 133 67 69 79 6 78 35 83 49 138 29 53 94 129 163 145
47 47 34 20 4 1 -12 -6 20 17 21 27 18 15 10 15 34 160 116 35 114 79 129 73 169 147 109 115 133 120 101 50 64 71 55 7 48 34 63 67 86 89 93 146 132
36 52 20 16 4 7 15 28 46 43 24 16 -10 -3 6 45 27 50 86 74 104 78 113 117 129 84 77 59 175 87 93 73 119 88 98 45 45 39 36 57 111 92 30 101 100
38 44 19 19 2 15 33 66 38 8 30 12 3 14 12 28 27 76 47 83 118 72 83 116 124 94 97 104 71 74 69 73 93 35 23 36 44 64 34 27 27 78 60 65 82
42 29 9 11 2 38 54 54 23 -1 17 6 -2 2 9 30 38 78 47 65 102 87 49 147 149 70 90 91 114 95 60 75 81 65 56 50 55 60 23 16 27 14 69 145 106
41 14 0 15 36 42 77 46 15 -12 24 6 -7 -2 2 30 23 -5 16 160 307 96 154 96 101 83 54 73 68 84 77 55 67 64 82 45 91 39 32 38 18 11 -9 72 193
24 10 8 26 55 54 49 31 0 -14 88 15 -8 -10 35 -5 24 33 -5 91 108 111 231 134 108 107 90 51 93 99 56 45 43 46 76 49 76 67 68 63 50 8 -4 5 88
11 2 30 51 34 35 48 10 -3 32 79 28 -7 -15 48 41 42 31 30 47 138 157 45 93 72 136 154 135 108 69 93 111 110 79 63 66 76 42 58 56 45 51 41 5 28
14 31 37 28 39 39 22 19 31 30 24 29 20 7 53 78 93 75 32 77 132 151 99 43 103 100 111 131 85 69 60 164 116 97 59 93 78 71 45 39 86 129 84 70 31
40 32 27 3 9 27 20 23 25 23 17 -1 -4 19 28 112 139 58 18 115 181 132 140 72 135 135 111 197 109 68 75 127 92 62 50 82 44 54 54 34 3 16 67 80 77
57 43 29 5 22 12 16 20 19 25 14 18 0 2 33 89 123 65 67 152 137 113 96 123 141 158 170 169 138 143 136 171 120 85 54 47 57 42 39 17 55 42 32 72 79
51 68 43 -7 6 9 19 12 18 19 30 31 6 3 36 89 70 66 55 112 109 84 123 116 142 131 172 157 139 121 91 110 112 41 38 27 36 46 101 149 134 109 92 76 63
46 118 45 14 13 15 12 -9 5 26 30 41 1 -1 31 42 55 55 46 30 58 50 101 111 102 108 98 106 73 117 92 111 105 110 93 54 36 56 81 113 105 84 54 58 62
67 122 39 6 50 11 11 1 -5 1 18 23 -6 -28 -4 -4 36 61 86 80 39 33 62 90 61 135 126 110 114 108 64 49 68 51 87 91 58 32 35 51 36 46 51 3 -16
125 119 22 -1 134 64 3 -3 6 -1 -9 3 8 -8 6 48 33 55 96 73 51 44 67 48 61 126 60 62 84 74 69 85 90 101 44 48 82 7 33 21 52 45 30 -50 -28
112 148 73 31 4 24 1 -12 -10 -8 15 23 10 5 -3 1 41 29 66 69 63 51 44 40 46 68 56 73 77 67 53 67 78 81 51 47 18 46 46 45 29 22 11 -22 7
88 116 82 133 70 30 -6 -21 -14 -20 4 21 20 10 11 10 28 30 54 60 91 98 75 66 66 84 103 89 66 54 50 58 99 48 42 29 16 12 24 39 44 35 71 82 66
113 118 94 95 66 72 19 -13 -17 -27 -31 11 42 40 4 15 32 20 26 29 40 81 112 107 66 77 73 71 54 52 46 57 35 22 38 33 19 21 41 50 43 76 88 102 95
59 62 85 113 92 94 65 24 -26 -25 -28 51 35 27 61 41 47 48 44 36 32 32 61 67 78 73 80 88 65 62 49 44 57 52 52 40 31 34 44 36 35 16 7 29 51

GFSSW_con_3kmhel_057.txt.gz
Helicity
57 46 35 24 24 24 14 30 52 52 31 18 17 8 2 24 -1 -16 91 71 93 67 132 104 109 121 249 207 170 160 164 277 278 161 99 131 194 163 162 89 147 162 205 139 183
48 36 46 27 31 31 25 37 46 41 31 26 13 3 -8 13 -5 -10 -10 31 105 58 183 71 99 113 256 237 206 216 229 65 159 215 126 139 186 238 123 73 68 100 109 112 120
46 39 46 46 22 23 28 28 41 36 29 32 9 -4 -1 9 8 -4 86 58 107 111 185 155 100 107 167 254 245 200 136 179 169 153 255 230 235 179 147 142 195 155 148 105 136
36 41 50 29 23 24 23 27 33 28 17 26 16 4 -9 7 46 43 57 84 60 110 125 164 157 135 141 190 195 186 129 181 135 169 242 248 198 223 250 179 130 156 208 113 110
44 40 41 42 12 9 23 19 23 22 11 5 -3 1 12 25 31 15 21 49 48 93 153 176 215 119 140 86 173 234 54 68 91 273 263 311 210 253 257 114 138 181 190 164 139
53 49 46 29 9 -3 10 13 12 21 13 1 -3 -6 23 16 97 36 20 51 27 72 199 168 228 108 161 64 -153 124 219 160 118 103 218 209 241 377 148 107 109 143 182 170 159
58 57 41 36 15 5 8 4 7 12 18 6 -1 2 6 45 55 38 12 21 20 32 153 182 272 174 253 167 -39 16 215 112 123 111 106 131 184 144 214 148 69 123 142 171 161
72 58 46 33 11 -1 5 -11 -7 17 22 14 6 9 23 40 41 16 40 -6 21 47 108 244 358 304 180 137 45 33 72 117 63 60 87 30 67 73 109 186 250 106 168 147 164
55 47 41 26 6 -6 -7 -20 -14 18 16 15 20 10 36 -25 -11 54 42 38 51 12 -20 229 150 152 279 200 95 65 74 43 60 22 37 12 24 47 39 82 45 148 119 123 126
58 47 46 13 4 -9 -19 -17 -1 17 28 28 19 24 -9 10 23 79 86 75 37 -3 21 72 238 216 149 151 142 67 103 -1 16 46 63 26 95 63 61 91 62 95 130 110 98
62 52 30 6 4 -6 5 32 51 52 29 14 11 8 3 9 4 50 59 69 64 28 87 126 245 96 74 83 82 43 114 51 71 58 51 31 102 73 47 64 88 55 120 100 87
65 46 14 -3 -16 -6 21 49 29 5 51 21 11 13 -3 21 18 3 34 47 110 77 13 81 185 117 69 107 187 81 110 87 50 45 31 41 25 6 17 36 49 70 118 96 100
57 28 -1 -15 -14 18 35 28 8 -10 18 38 10 4 -2 27 26 41 2 133 94 69 48 75 55 123 92 116 159 144 130 65 32 53 43 48 47 26 9 24 -5 -3 50 150 102
49 6 -4 -0 26 44 52 26 6 -20 36 50 35 10 11 32 35 52 -19 138 218 78 88 58 75 171 73 147 84 72 91 79 98 45 55 7 91 -18 -0 13 11 12 36 53 122
28 1 -4 9 20 38 34 15 -13 -5 75 50 37 8 18 37 63 84 -8 102 87 94 69 74 105 127 68 75 115 113 80 91 60 42 84 6 58 72 30 37 38 31 29 37 32
14 -9 16 36 22 10 17 -4 1 40 76 39 22 14 31 21 10 44 28 157 62 73 92 29 74 59 55 60 127 60 59 70 56 53 74 67 43 97 43 55 70 72 47 31 25
30 30 29 33 31 30 6 14 40 25 15 19 36 14 8 21 53 52 45 102 93 128 94 135 160 145 180 100 107 66 63 163 160 142 119 121 60 80 89 21 21 53 126 118 116
50 16 -0 -7 17 4 3 24 13 45 13 5 19 14 -17 42 55 76 79 75 139 120 128 105 127 169 151 60 93 81 51 118 128 95 55 67 54 51 66 81 49 20 56 83 96
58 32 16 9 2 -10 9 21 3 19 8 26 13 -3 -5 31 33 46 96 98 112 132 103 59 83 106 60 123 91 56 92 126 199 182 168 23 40 17 39 44 60 66 47 79 86
66 39 28 12 -4 6 21 13 1 8 5 29 -16 15 -16 -36 43 35 78 63 100 121 109 53 94 78 98 208 141 101 101 109 141 60 44 24 42 53 42 97 117 133 142 128 87
65 81 25 11 -2 21 16 2 3 13 -11 -3 -1 -42 -19 3 12 39 75 84 81 84 114 87 68 104 114 150 69 118 114 140 131 137 141 95 68 125 104 108 119 115 120 148 130
69 108 17 7 52 22 18 -2 -15 22 38 2 -21 -3 5 35 13 24 42 83 25 14 90 108 51 100 95 140 140 142 61 42 75 37 75 125 112 33 60 73 57 47 52 37 62
117 99 12 -9 122 107 13 1 -13 6 15 24 -14 2 49 23 30 32 39 34 32 62 75 68 43 88 58 47 53 69 48 70 54 83 63 98 87 -23 15 32 -10 -20 11 56 -3
96 128 68 16 -7 37 64 12 5 -11 -16 -21 -36 -9 -0 33 30 29 51 59 45 54 78 79 22 63 64 66 31 42 28 31 49 93 62 41 24 33 30 19 35 57 79 77 63
70 111 72 97 69 44 12 17 15 -8 -13 -24 -21 26 -16 -10 29 38 62 48 48 47 49 65 46 44 44 48 59 51 16 17 43 17 50 21 23 41 36 76 80 86 75 44 26
100 104 69 87 78 64 49 41 15 -13 -21 -31 -30 -1 35 -11 50 28 47 53 63 44 49 57 52 50 60 62 51 43 38 40 19 11 19 22 32 28 60 94 78 72 57 72 77
55 28 48 88 107 94 89 64 24 -8 -36 -30 -9 6 14 27 44 53 41 39 65 50 46 85 91 71 74 66 63 56 53 42 54 58 70 57 95 128 105 89 63 69 65 47 34

GFSSW_con_3kmhel_060.txt.gz
Helicity
48 53 48 74 39 31 28 18 18 31 44 35 25 27 22 29 26 4 -38 15 129 54 154 97 81 156 163 219 144 101 305 250 254 198 112 154 215 220 252 221 230 173 165 123 86
71 63 53 56 60 37 23 24 21 32 38 28 22 15 10 14 16 1 -1 2 77 33 138 100 90 137 197 179 183 222 232 259 251 179 104 166 164 192 248 146 96 91 120 112 186
62 62 58 47 41 39 23 24 24 25 30 16 4 9 5 9 25 6 47 50 35 67 107 191 86 101 146 246 137 188 82 207 287 322 128 166 224 212 189 244 215 189 103 119 110
53 65 59 45 39 25 8 24 22 24 21 5 -5 -3 -4 24 39 21 20 34 47 47 177 163 141 155 123 226 145 66 199 82 213 268 346 204 173 235 240 275 207 160 85 105 141
64 62 71 55 37 18 -0 12 21 12 19 1 -7 -9 15 50 53 -7 -7 15 35 27 112 225 168 155 156 143 182 202 165 107 98 180 242 418 301 376 288 224 214 184 115 103 100
68 87 87 54 41 21 1 18 21 11 10 -0 -5 -9 26 36 47 20 1 24 22 17 61 175 196 149 142 108 161 107 214 245 172 203 166 237 201 295 277 211 218 179 157 91 164
80 91 79 62 42 19 -2 16 8 -0 3 -0 -4 10 12 38 35 36 -1 12 36 51 62 96 176 201 190 160 83 111 148 274 178 95 104 155 136 186 254 161 195 183 96 60 96
91 76 68 55 28 6 -16 -3 -11 -11 2 1 -1 3 21 91 48 35 38 -3 7 17 79 118 90 318 263 158 157 119 121 23 131 146 158 204 162 95 171 225 228 232 218 100 56
88 74 75 50 17 -3 -20 -9 -13 -7 11 -0 24 33 36 68 29 -5 44 46 13 -6 59 156 247 234 309 208 186 102 43 141 65 116 48 75 106 52 49 105 95 148 187 171 95
71 75 69 42 11 -2 -9 -10 -3 -7 34 21 14 24 31 31 34 25 55 55 39 -9 46 121 118 297 230 256 182 187 7 131 135 83 91 95 110 85 52 63 67 23 151 160 122
75 90 55 30 1 -10 14 43 66 48 19 11 22 15 36 64 30 2 25 74 16 35 81 129 191 165 117 113 106 46 50 19 95 -37 93 89 77 100 77 85 54 108 132 97 184
89 74 48 16 -10 -13 22 70 36 7 38 28 17 28 38 18 27 8 18 6 82 83 8 155 97 38 37 80 71 89 7 27 61 22 62 84 124 78 46 99 106 99 114 82 84
80 65 32 9 -1 16 37 13 -12 -17 21 37 21 11 24 23 12 30 3 -1 70 33 80 107 147 106 177 92 108 60 17 76 76 67 67 66 131 80 -43 12 16 67 84 137 96
72 42 26 20 34 33 43 22 -5 -24 70 38 38 31 16 47 2 -4 -33 73 101 44 33 192 238 201 257 63 172 177 39 113 59 79 67 6 132 116 56 10 52 8 26 77 177
50 29 21 37 11 31 28 5 -14 -2 91 36 20 18 34 67 46 -7 12 204 105 62 76 199 92 186 239 99 186 190 59 44 68 95 114 22 78 66 33 75 60 56 45 46 52
37 23 44 64 29 3 -4 -15 -0 40 107 26 8 21 69 41 29 22 65 127 64 83 46 88 132 179 188 153 147 163 210 274 230 206 168 94 63 118 48 47 37 62 93 72 53
51 76 51 36 24 19 -8 20 43 42 46 39 11 38 28 61 43 48 117 128 86 97 53 59 174 202 146 176 178 120 140 255 257 222 190 138 95 87 95 74 58 66 112 196 196
64 53 12 2 12 -1 -6 30 36 53 35 15 1 37 15 39 63 50 69 142 114 96 74 80 48 97 98 124 121 150 171 208 258 185 145 119 109 89 63 115 87 71 70 80 129
72 44 9 13 -4 -14 18 31 23 31 23 25 7 -33 13 39 30 64 74 110 46 107 150 191 136 116 172 137 136 78 81 162 216 186 187 77 57 69 25 52 70 94 95 82 93
90 43 24 13 -10 -4 16 22 6 -4 4 18 -41 7 17 25 66 48 59 90 66 69 83 87 126 181 120 158 121 121 57 102 180 186 178 67 38 59 82 94 115 125 124 119 98
80 81 13 10 -17 12 56 11 1 5 -15 -16 -51 -4 -3 48 39 38 37 51 84 74 93 69 47 78 79 75 70 125 123 141 134 145 157 108 118 111 138 130 68 77 79 58 73
94 102 8 2 53 7 47 11 -25 25 2 -10 -14 -7 42 7 8 42 46 64 50 73 102 90 71 84 78 104 107 109 67 86 109 119 109 160 134 54 83 83 50 45 41 26 -62
116 97 5 -2 95 75 10 -2 -22 17 32 18 -5 -1 56 14 6 -0 47 48 65 108 133 112 65 132 90 64 77 70 60 69 73 97 97 117 90 64 55 34 14 -17 -16 14 -38
103 99 71 23 -4 28 75 27 -6 -25 -11 -21 5 -3 -3 3 43 15 8 26 28 24 71 87 36 63 73 72 57 67 64 60 100 108 71 64 64 62 37 18 44 58 42 49 -2
64 76 71 108 26 29 -4 26 23 -5 -19 -6 -4 -8 -10 -37 13 28 34 31 35 34 47 73 52 52 75 87 80 76 38 55 112 68 98 46 35 61 21 -1 24 19 20 28 36
83 75 55 68 55 50 35 55 31 -14 -22 -16 -16 -6 -5 27 10 15 26 42 54 33 40 51 55 41 27 28 36 39 60 50 28 34 32 27 22 37 37 23 61 45 40 60 77
43 54 44 75 79 76 81 74 34 -14 -32 -25 -12 -21 -13 23 73 90 47 42 60 44 44 60 52 54 52 39 39 45 43 25 58 82 102 90 114 126 150 121 61 76 118 98 73

GFSSW_con_3kmhel_063.txt.gz
Helicity
47 46 87 67 71 73 40 37 25 26 21 22 34 39 47 28 22 63 57 36 -29 75 318 178 59 99 127 175 203 145 234 215 206 250 185 178 152 99 150 206 260 182 137 168 235
40 52 66 69 50 47 58 30 18 23 17 19 28 34 36 26 22 25 76 4 -2 53 164 187 116 124 148 142 203 187 220 200 217 207 164 130 133 187 236 200 212 217 177 168 164
46 48 56 64 60 38 42 35 22 21 21 17 20 26 34 21 41 56 12 6 39 15 108 152 132 99 163 161 182 169 180 248 237 229 187 176 209 199 208 343 250 129 138 140 130
49 56 70 90 64 40 40 20 9 22 14 17 16 19 -2 31 122 29 16 4 27 -2 78 155 122 132 167 145 183 164 121 187 224 183 273 271 207 321 244 262 244 141 107 143 132
39 76 94 87 67 46 38 20 21 26 16 16 18 19 37 59 66 24 -22 -16 -21 3 32 158 200 96 177 109 155 100 134 92 198 267 333 320 306 289 302 254 243 171 162 146 154
45 91 93 77 62 44 36 17 18 16 7 7 16 19 60 74 43 45 -11 -8 10 30 -1 120 243 153 109 137 121 140 131 134 158 173 343 423 461 337 257 193 219 163 140 125 142
61 113 90 69 62 40 28 11 11 2 -3 6 13 34 51 7 44 72 22 6 -2 14 17 182 156 234 173 155 118 136 44 161 211 135 289 329 459 474 266 197 190 157 148 148 92
81 115 78 72 56 27 23 3 2 -11 -6 4 9 38 43 36 59 97 34 13 20 17 13 41 120 172 173 203 191 146 148 96 146 470 222 203 187 349 307 286 226 163 232 221 134
110 103 86 65 43 21 16 6 -8 -14 -6 4 24 57 35 75 62 18 6 37 35 26 33 36 39 124 142 212 287 204 -27 122 154 73 87 177 195 196 104 94 99 144 155 159 174
116 97 99 55 35 28 17 -16 3 -11 -2 19 20 26 36 72 43 18 22 33 49 39 52 107 121 140 238 215 184 163 93 80 101 98 80 199 157 176 41 59 36 82 97 128 99
105 114 86 54 23 26 32 56 93 68 12 43 32 42 45 66 35 13 20 47 44 47 102 76 71 80 284 180 152 121 132 95 82 10 84 74 101 110 90 69 72 57 96 82 125
117 102 83 39 21 24 30 91 87 34 11 52 24 40 52 49 31 18 28 46 47 75 82 60 41 129 195 264 135 60 44 67 35 -21 14 82 18 56 80 90 90 78 73 83 124
112 106 64 30 27 49 39 36 14 -13 29 41 30 23 39 16 32 48 33 21 43 86 57 82 -32 161 183 164 191 152 79 77 107 88 24 49 192 146 79 19 14 78 98 96 77
99 91 53 28 43 64 50 41 0 -9 57 16 24 44 25 94 61 41 27 12 56 66 132 112 43 20 83 98 90 123 46 24 116 130 149 55 117 117 50 6 -60 -30 49 41 89
93 71 38 46 44 57 34 12 -12 6 71 17 3 37 77 73 38 72 54 70 50 102 113 146 85 60 90 101 103 84 81 68 106 121 128 98 129 133 133 96 0 -59 -23 19 53
79 52 55 61 46 23 5 -22 -8 65 26 -21 24 43 71 18 73 106 285 147 40 70 115 237 170 180 189 153 62 128 234 175 181 108 123 40 41 100 71 94 70 67 18 26 47
70 51 67 40 57 36 3 14 81 66 -19 -27 -8 37 49 42 79 105 112 93 74 103 165 216 262 252 168 145 138 175 183 170 302 257 120 112 72 87 165 76 61 86 104 152 152
94 78 46 28 6 13 4 35 87 43 -13 -35 -2 37 41 14 61 73 79 91 55 65 120 163 147 200 258 256 179 158 122 67 68 94 150 161 107 108 57 98 89 94 92 131 160
101 66 65 8 -2 1 15 84 46 16 -35 -30 0 10 14 32 43 59 112 96 80 95 98 192 134 176 221 247 180 175 189 136 145 171 171 139 109 91 64 112 116 133 122 106 97
116 100 58 7 -8 0 29 55 23 -11 -27 -18 -6 -4 -6 26 44 79 65 87 93 127 108 102 79 110 109 163 147 146 120 201 220 186 177 136 117 99 137 98 88 103 102 108 101
136 118 22 -5 -14 2 91 22 7 -15 -20 -70 -16 -19 7 47 48 56 82 59 51 120 122 115 90 131 116 125 115 116 132 162 155 156 167 196 207 31 54 40 44 60 71 45 34
110 84 6 -20 77 19 60 -4 -3 -14 -23 -50 -35 9 12 18 50 32 70 90 85 64 85 42 89 101 57 109 107 62 84 100 89 131 149 147 153 69 45 27 23 9 42 23 -20
129 33 1 -13 117 95 22 -28 -16 -10 -23 -39 -33 -15 38 14 -13 22 72 94 78 148 87 76 52 95 90 80 69 59 62 91 81 76 105 133 139 43 37 64 92 98 127 112 29
77 55 -5 -9 -9 51 97 33 -23 -21 -23 -17 -22 15 -2 -12 14 37 52 41 60 78 121 98 56 39 62 59 54 43 31 52 82 69 65 86 153 149 127 97 119 123 101 94 100
48 -6 18 74 -6 20 11 39 7 -14 -18 -21 -11 18 1 -22 34 35 35 36 40 64 70 62 76 63 63 68 76 71 62 71 84 59 84 35 73 63 7 37 55 42 60 55 56
43 14 -1 25 5 30 13 20 20 -14 -11 -8 1 -12 18 -15 -18 36 29 36 28 37 44 46 57 41 38 37 47 43 46 41 34 47 33 18 22 13 59 53 72 48 -3 6 33
65 58 24 46 47 51 11 29 29 -21 -18 -2 8 13 20 11 47 38 17 28 24 33 44 41 39 37 17 28 36 29 16 28 56 86 53 40 76 82 86 72 35 17 40 62 84

GFSSW_con_3kmhel_066.txt.gz
Helicity
-1 13 32 67 65 54 41 36 38 27 25 32 27 19 35 43 35 55 70 74 58 26 83 156 123 134 107 150 194 179 222 237 227 200 221 180 129 169 192 225 279 196 176 148 39
21 35 48 65 80 73 42 36 33 24 26 27 19 23 32 37 43 60 38 16 -7 22 53 125 110 82 140 139 192 149 280 208 272 235 206 151 47 116 173 223 273 258 196 131 101
61 67 81 87 102 78 44 40 28 28 27 27 24 25 24 38 73 72 43 17 2 21 101 135 152 132 121 101 75 173 224 194 220 246 231 180 180 241 133 221 196 143 201 150 186
61 77 105 101 100 83 53 40 25 29 34 36 29 24 26 61 110 43 27 29 8 -55 63 159 95 78 174 93 200 172 113 195 257 225 255 193 207 306 179 141 154 131 174 176 152
82 104 120 99 88 72 46 40 24 31 44 37 31 32 70 91 69 50 12 32 -18 -42 -10 141 104 101 144 72 134 151 125 187 284 195 337 309 297 294 199 143 102 138 151 160 144
69 134 142 104 78 69 56 39 16 15 32 33 33 41 79 99 62 56 13 26 12 1 -19 214 153 161 138 6 29 267 133 175 115 204 340 390 376 307 281 199 138 137 132 129 163
90 145 154 95 79 61 46 36 7 5 15 24 40 48 71 46 52 75 61 8 -2 9 6 144 112 191 162 93 -44 85 230 243 21 142 366 516 409 302 277 274 190 184 187 167 152
99 161 131 88 72 56 29 18 -1 -3 12 20 37 57 47 20 40 61 47 15 7 33 34 27 145 179 168 157 225 102 191 93 138 55 202 328 302 375 311 260 271 224 211 208 132
138 176 116 90 62 36 37 16 -27 -6 11 20 40 59 25 34 43 25 42 28 8 30 2 51 178 183 158 172 192 172 205 25 94 247 128 255 323 420 299 255 193 174 155 130 144
153 164 134 96 66 46 27 -17 -6 16 17 27 23 40 35 41 24 5 10 34 37 20 35 80 168 148 172 136 82 106 74 99 15 176 263 86 97 419 259 227 187 148 110 115 100
140 146 121 87 56 46 52 44 78 87 29 58 64 49 35 52 24 -4 -8 41 44 36 101 86 131 105 41 190 62 74 25 48 104 32 113 194 200 196 172 178 203 147 116 79 75
141 140 118 84 44 45 73 56 65 55 29 31 25 44 57 97 18 7 18 39 28 73 56 70 92 28 138 286 55 81 34 65 21 -68 21 21 89 106 133 89 48 52 49 48 75
128 160 113 69 44 70 63 32 12 21 39 18 42 47 60 96 17 40 24 40 79 59 70 76 53 -74 88 223 153 60 23 42 84 97 64 -21 50 47 100 94 56 41 49 59 60
111 136 110 64 65 87 41 13 14 6 63 -9 21 35 88 68 63 22 15 31 48 45 98 65 22 -16 211 201 141 97 73 50 59 98 54 59 78 84 55 43 31 39 69 85 75
90 102 118 68 81 74 43 1 -2 5 79 -21 -9 44 138 74 45 13 13 41 34 79 108 54 57 75 105 112 121 137 64 61 93 166 144 100 85 126 76 13 32 -6 -17 28 40
69 84 120 99 55 37 14 -19 6 54 2 -79 -8 51 106 110 78 74 86 89 109 108 115 134 90 74 80 95 98 104 182 218 146 109 166 68 115 142 102 91 90 1 -34 11 25
57 61 106 86 62 49 -2 23 60 66 -30 -59 -39 29 57 87 129 95 65 67 122 97 114 125 113 188 245 148 137 109 205 154 106 131 141 78 109 95 145 129 112 95 94 72 51
41 103 64 60 48 51 -5 37 93 -6 -30 -46 -26 5 47 76 57 80 51 66 73 116 193 114 107 183 238 118 124 66 75 106 231 202 165 82 89 78 110 129 120 111 108 119 141
97 122 65 27 33 -0 -3 46 49 -16 -38 -42 -23 6 47 52 38 34 56 107 124 199 143 188 122 158 254 224 155 138 101 69 153 218 196 110 110 105 111 122 90 88 101 106 105
117 111 67 18 29 -23 16 11 -6 -41 -52 -38 5 17 2 32 40 46 20 66 119 95 141 117 110 185 201 183 126 105 110 100 95 170 153 119 110 68 88 75 84 107 102 113 110
219 64 63 29 -11 -6 52 -16 -42 -41 -52 -36 -1 -10 38 21 33 45 58 86 96 150 146 101 72 103 134 134 149 186 173 155 116 102 101 126 128 102 107 25 29 89 125 125 156
141 4 90 -14 66 20 28 -30 -42 -23 -79 -73 -41 3 20 9 19 49 55 58 89 116 152 90 65 89 64 96 97 94 109 119 129 146 145 136 153 79 33 49 132 148 144 104 122
198 63 72 10 50 29 2 -42 -36 -34 -60 -52 -33 6 32 4 4 21 88 107 65 78 96 90 91 79 38 37 48 38 62 85 110 114 154 148 173 144 131 117 112 103 93 70 49
102 46 52 1 -23 2 52 -30 -36 -42 -60 -50 -37 -8 9 6 33 50 61 119 84 63 62 42 59 33 46 23 38 36 65 86 70 47 67 106 152 218 148 124 133 126 94 74 56
90 20 19 47 -46 -23 -17 -12 -29 -38 -63 -55 -45 -18 -9 -14 10 22 34 49 68 95 90 81 73 95 86 77 69 59 68 76 53 73 71 101 148 119 103 120 99 66 62 78 84
95 12 45 23 -47 -7 20 -2 -15 -50 -39 -22 -28 -33 -41 -9 -3 -1 -0 7 37 53 46 52 71 65 79 87 80 72 92 72 50 68 72 59 124 66 39 39 52 47 68 85 75
71 75 47 76 27 41 41 32 -5 -37 -56 -47 -8 -17 -16 -16 48 48 52 57 29 26 38 39 41 50 52 47 42 46 35 31 42 79 32 23 49 79 104 105 69 96 107 76 75

GFSSW_con_3kmhel_069.txt.gz
Helicity
65 62 40 28 60 85 77 61 49 35 30 28 34 39 31 29 27 56 80 49 29 -16 32 79 97 129 165 211 234 233 229 77 103 138 153 183 242 319 189 325 297 153 32 77 92
73 77 74 63 90 106 87 65 57 48 33 24 35 41 33 28 51 81 37 25 28 19 97 90 156 133 174 128 196 256 201 141 193 152 174 136 209 224 214 234 274 258 154 101 78
100 135 95 101 110 116 103 79 62 49 37 30 46 42 37 45 79 82 51 68 45 44 49 62 45 142 109 121 184 203 122 174 116 143 130 106 105 182 168 184 186 98 121 129 200
128 148 94 117 123 113 93 73 58 49 43 41 50 44 40 81 135 46 27 43 51 40 26 43 14 99 123 24 170 202 135 128 108 148 221 110 137 108 172 130 129 174 198 238 68
220 165 79 111 131 89 81 70 54 40 43 52 45 49 78 102 77 52 46 49 53 35 10 -4 59 1 19 106 174 155 103 75 202 182 154 190 217 95 137 130 127 176 156 174 132
270 188 73 138 142 99 82 72 48 32 36 54 42 52 94 105 75 52 32 36 50 24 -4 -7 107 74 79 101 141 102 120 119 165 237 237 262 277 237 157 199 171 123 115 120 85
279 185 105 111 104 104 83 64 29 23 38 34 36 66 83 59 56 57 60 30 39 -3 -14 -3 148 106 84 69 146 13 88 159 198 230 269 328 308 233 246 240 219 162 96 123 97
287 226 117 103 105 76 74 49 18 25 27 22 42 76 64 27 29 53 41 27 38 18 -1 -20 117 54 37 205 195 21 89 135 211 207 259 283 247 296 257 219 246 201 125 156 158
243 226 103 105 119 91 78 37 15 19 17 27 60 71 48 23 62 48 33 32 45 12 14 -29 153 99 57 134 134 128 25 214 145 152 225 190 258 361 315 226 237 255 256 274 249
189 205 72 115 124 78 84 24 43 40 32 45 38 60 40 54 64 34 26 8 51 12 7 47 104 62 147 190 132 -18 -20 198 191 65 54 46 393 402 461 303 204 244 245 236 229
242 192 72 134 99 26 154 99 103 87 51 61 60 63 56 64 72 29 11 9 43 9 108 91 104 82 92 135 240 62 19 67 219 208 62 27 342 425 411 452 244 208 186 185 134
225 173 89 128 76 30 164 113 77 60 34 25 30 52 54 112 8 2 6 23 13 77 52 109 62 60 99 117 151 51 53 40 128 -33 48 76 100 152 334 360 196 174 144 130 123
207 165 72 122 98 39 137 67 50 30 38 19 46 37 63 70 13 -1 5 29 46 80 69 94 48 76 66 69 122 29 68 76 97 132 137 86 165 86 88 282 180 155 125 113 101
236 150 55 116 125 62 107 52 48 13 55 -7 15 25 53 24 22 -7 -15 21 27 81 76 74 44 44 84 47 56 99 59 -29 -113 -7 74 58 202 69 125 102 82 97 91 69 75
228 143 85 115 112 65 91 80 39 11 115 -9 2 30 71 50 18 33 29 56 64 58 97 75 59 -8 51 167 127 169 116 26 2 4 55 63 98 72 73 42 7 -28 28 55 51
207 166 76 104 102 18 96 90 38 59 55 -31 1 11 44 47 65 79 74 58 14 87 63 36 80 41 50 166 128 114 119 167 98 138 96 61 56 96 83 56 36 20 29 48 69
167 149 81 108 99 15 97 112 77 85 -34 -26 -11 -14 77 60 64 67 72 75 63 91 92 78 130 122 62 93 144 91 72 105 104 86 153 87 80 111 161 175 133 104 102 113 89
138 126 60 92 62 70 123 80 88 12 -9 -41 -11 -5 -9 47 39 21 41 43 77 50 95 98 85 64 91 58 64 77 39 61 89 109 124 98 100 117 119 113 107 122 101 104 116
150 163 113 90 4 118 98 55 38 9 -21 -13 -23 -24 -6 27 15 16 77 80 101 85 116 126 165 195 189 87 86 87 58 69 94 116 111 90 100 49 90 132 125 122 136 154 152
264 171 93 67 40 138 34 17 2 -9 -38 -33 -8 15 -7 21 -5 23 62 85 110 100 75 54 142 198 258 140 94 67 46 94 137 143 132 105 91 47 61 67 99 148 151 157 167
241 140 83 9 162 49 15 -2 -17 -35 -45 -18 8 8 41 27 15 24 41 67 90 101 81 52 64 131 132 155 99 118 94 101 60 93 114 156 111 105 53 103 129 121 137 135 132
213 66 64 63 44 -7 -2 -29 -35 -33 -55 -43 -17 12 58 26 10 32 16 62 94 111 65 61 47 89 77 111 82 92 85 64 65 55 94 80 104 122 120 129 135 134 117 115 115
226 194 114 116 16 5 -12 -46 -38 -53 -54 -59 -19 19 37 36 31 27 36 58 63 97 54 57 41 40 55 50 53 54 76 81 88 106 111 94 117 199 183 188 150 119 108 96 86
279 30 59 22 -1 -6 -20 -46 -18 -71 -74 -59 -27 -4 44 30 40 38 44 59 74 115 106 67 80 24 4 -8 31 38 47 63 68 60 57 75 111 174 200 179 157 134 112 96 74
86 3 -31 9 -57 -21 -34 -51 -36 -38 -61 -46 -22 5 21 -9 12 51 48 54 80 104 67 50 57 74 85 49 38 20 26 44 55 44 44 46 78 116 123 133 128 110 93 99 101
67 17 35 -36 -36 -20 -41 -52 -44 -47 -28 -14 -20 -24 -24 -11 11 14 -4 75 85 118 102 101 56 69 101 89 72 63 94 63 60 78 94 88 105 134 134 106 99 94 86 90 86
87 71 17 -8 17 15 -47 -39 -41 -67 -34 -34 -18 -30 -45 -31 -24 31 46 34 25 7 29 37 46 59 22 69 66 52 52 54 75 126 105 96 117 161 159 136 62 48 46 38 47

GFSSW_con_3kmhel_072.txt.gz
Helicity
204 137 62 66 72 60 80 83 70 73 55 47 34 32 42 37 29 55 89 59 49 26 37 63 70 65 94 130 158 176 207 166 101 85 88 101 108 70 150 86 182 49 84 92 93
232 217 171 98 83 78 105 97 91 76 67 54 50 56 51 41 56 86 60 33 32 51 69 74 83 75 128 145 189 247 220 112 130 117 51 104 149 131 145 156 221 67 214 234 193
224 250 218 159 143 70 108 113 72 83 65 54 51 64 62 53 84 84 66 60 64 62 61 49 67 102 142 154 189 229 193 131 178 77 57 68 118 103 102 71 186 142 234 276 270
169 239 241 199 158 85 99 109 80 59 68 74 58 68 57 91 154 59 30 34 48 35 41 6 52 100 152 179 119 211 136 173 140 127 110 58 166 298 114 99 118 192 228 169 84
51 224 277 221 162 91 121 123 109 69 67 74 71 79 98 119 100 64 30 59 73 68 66 78 45 89 83 131 79 108 113 110 152 95 75 132 158 168 134 149 152 131 183 71 37
32 203 235 222 161 59 120 107 68 71 69 69 75 85 111 127 67 58 55 50 61 63 59 80 27 21 -18 -63 65 -5 100 84 99 62 91 54 174 54 146 199 113 116 167 105 143
54 179 205 291 96 43 102 79 69 18 59 75 86 87 105 87 74 56 65 51 57 73 48 66 -32 -24 19 -53 4 54 63 161 101 69 85 108 140 99 231 163 176 89 94 123 183
125 183 227 241 88 32 97 75 47 4 45 86 92 101 85 48 50 66 64 44 39 51 36 -35 -28 23 0 60 69 29 109 70 70 42 156 115 106 126 249 213 188 181 147 93 46
155 246 218 175 100 53 88 67 45 -25 45 81 97 108 51 15 74 68 76 58 37 53 -5 -25 -63 21 0 9 164 163 70 43 119 88 72 231 104 195 288 263 220 255 209 140 135
114 159 190 154 120 60 93 33 71 16 71 82 81 84 49 75 72 62 64 44 48 47 -2 -26 -3 44 -32 -18 96 107 54 42 106 55 74 119 351 300 316 287 271 252 336 236 164
95 137 243 121 122 77 101 126 180 53 79 89 74 70 59 58 76 41 19 33 39 14 27 8 38 -2 -2 69 91 101 167 10 98 124 158 110 287 335 294 291 289 312 295 260 235
124 95 230 120 103 84 135 128 98 16 103 50 45 39 34 78 45 36 20 11 2 32 69 76 63 16 -36 82 75 41 49 -49 69 115 165 103 169 162 334 237 308 304 270 250 230
120 135 185 176 127 127 105 91 60 0 125 51 43 47 55 64 31 8 4 16 20 71 77 74 51 49 58 81 42 39 94 41 67 191 119 108 2 26 109 182 269 337 285 219 191
152 66 209 186 150 123 94 56 33 -32 148 63 40 37 67 48 57 -2 -16 -6 51 75 61 82 21 53 64 43 61 58 10 13 31 88 191 176 32 32 194 164 188 285 280 188 138
224 107 226 167 183 142 90 78 26 -29 170 27 24 40 50 46 31 56 35 52 56 59 92 56 53 42 -12 -25 96 44 10 -23 -37 4 130 51 73 96 61 109 140 215 213 116 91
263 55 219 226 216 84 91 43 11 114 133 29 6 8 -5 44 56 62 22 7 50 83 27 45 74 88 20 142 220 87 118 124 76 69 88 107 31 96 121 162 126 207 136 82 72
384 168 222 243 124 37 71 87 63 178 20 16 1 -7 32 59 54 72 66 23 39 41 56 89 69 41 46 119 75 72 107 57 38 60 106 91 86 72 117 112 106 63 76 108 140
105 181 185 196 76 95 63 125 56 80 21 -1 15 0 16 27 34 36 32 37 45 37 35 86 66 79 103 91 47 70 70 62 75 91 104 126 110 107 113 110 107 125 137 228 264
134 252 187 119 17 83 112 -68 80 25 -6 11 -4 -17 18 24 39 49 60 59 59 48 95 119 28 35 73 80 37 21 56 31 45 133 164 162 147 86 89 102 152 180 209 236 241
305 242 115 73 43 85 42 -41 45 -6 -7 -10 -45 -1 11 25 28 35 40 81 102 106 80 101 98 114 119 56 44 32 56 67 67 109 124 131 103 93 90 109 122 164 153 155 170
271 179 91 48 84 47 -131 17 11 -31 -20 1 15 6 23 22 28 40 52 76 63 60 26 45 46 94 91 52 45 49 48 57 51 100 54 79 81 58 55 53 80 117 130 128 135
210 113 108 86 50 -32 -98 23 -16 -20 -7 -6 34 47 32 28 18 48 47 93 87 60 32 45 35 24 76 54 41 48 36 47 52 82 85 80 84 111 72 92 85 111 142 141 136
181 212 132 83 -65 -87 26 -4 -21 -12 -9 -20 24 42 41 30 6 18 54 91 77 28 34 35 39 54 54 48 39 33 36 45 56 67 74 72 61 124 154 167 155 126 121 117 108
171 97 46 -44 -16 7 22 -3 -9 -37 -46 -11 12 35 53 40 34 11 23 60 100 80 55 10 49 21 20 -3 28 20 21 35 38 59 51 66 77 87 125 144 142 128 104 91 78
136 68 44 -32 -56 11 11 -11 0 -32 -65 -17 -4 34 26 15 26 16 33 48 65 100 50 33 25 42 51 16 6 10 7 20 27 30 27 25 51 41 93 138 142 121 113 100 85
8 13 32 19 -65 -6 44 -18 -5 -32 -32 -20 -9 15 36 2 34 17 23 34 17 64 41 61 8 20 47 52 36 19 37 49 55 64 85 83 88 100 142 153 146 131 116 102 84
28 46 40 5 -29 5 17 15 -13 -51 -11 -30 -28 -26 -22 8 33 42 36 48 47 38 21 7 10 -6 -26 35 22 2 16 42 57 73 87 89 63 135 163 144 121 102 106 95 74

GFSSW_con_3kmhel_075.txt.gz
Helicity
43 124 148 158 115 117 134 84 76 57 55 53 58 60 71 52 46 61 76 36 55 32 44 88 79 61 68 106 106 168 180 119 23 89 80 64 81 84 34 91 95 119 142 149 260
33 57 134 150 145 139 127 85 86 76 60 68 49 64 91 68 55 68 54 43 38 70 107 78 91 85 88 80 126 152 174 100 118 130 94 56 31 99 95 104 141 78 181 85 204
59 31 127 159 151 164 127 73 71 97 66 76 39 64 82 91 79 63 64 43 53 79 85 82 78 80 85 78 113 157 63 124 105 97 109 76 88 117 72 66 120 87 84 188 329
89 89 42 159 154 167 161 70 69 110 103 82 32 63 88 107 89 68 49 62 79 74 72 76 73 87 77 58 69 115 67 97 151 105 84 48 68 116 90 76 63 104 177 265 268
115 94 72 159 171 151 123 71 81 128 119 89 35 89 102 132 88 89 71 93 101 86 79 95 96 83 46 22 64 78 70 125 48 157 96 79 46 58 49 92 64 27 197 188 238
149 124 160 174 185 177 121 60 94 107 118 46 73 106 119 107 75 78 81 75 75 80 75 78 67 69 45 46 73 89 42 80 147 106 115 75 73 112 55 86 75 46 131 207 154
126 123 82 199 188 150 103 80 70 86 94 26 78 110 93 61 93 79 67 69 67 77 73 68 81 49 62 -7 -20 -6 47 75 84 110 95 74 43 16 76 128 36 32 104 159 127
191 200 42 147 171 106 104 126 85 84 79 28 75 102 41 66 69 45 81 57 56 47 73 51 58 -7 -36 -100 -36 60 65 76 55 115 63 51 9 30 115 87 25 53 67 190 120
168 240 209 152 171 97 129 129 88 64 70 51 96 81 -0 22 92 80 90 80 41 34 50 42 -22 -11 -13 1 25 43 -8 133 57 51 94 44 -16 67 105 -1 23 92 90 65 74
82 259 251 144 166 140 87 120 83 136 104 73 89 23 29 74 72 83 73 68 51 31 39 32 -28 1 -10 -30 28 95 74 80 61 87 40 188 73 62 136 102 128 109 169 165 107
87 114 295 116 188 142 142 160 146 96 128 50 65 21 60 47 73 51 38 35 22 18 25 -23 6 21 -28 -48 1 130 30 82 69 75 10 -95 159 109 178 117 213 219 196 209 31
105 124 250 65 139 152 176 92 116 67 30 21 30 5 36 54 56 34 40 22 10 -20 31 49 67 -1 -72 -90 118 42 74 73 -7 53 -20 -17 39 254 148 200 249 292 244 198 173
75 94 242 79 149 129 110 111 59 51 18 107 36 24 54 57 48 38 48 21 6 67 86 68 49 46 -41 77 -33 55 69 194 58 159 197 18 40 196 267 192 238 290 240 186 144
33 80 164 91 152 122 96 73 -0 41 -6 57 4 8 34 46 22 46 22 35 71 83 56 58 29 42 14 33 58 62 40 -54 64 179 168 110 95 203 218 180 215 203 205 174 164
26 92 127 44 150 135 125 58 48 -15 24 35 -9 8 14 -0 21 38 13 50 73 76 40 31 22 49 3 14 66 40 11 -5 -12 132 74 173 171 256 130 178 130 160 174 238 256
6 -6 134 113 209 175 189 77 54 77 -4 -13 -13 10 -5 12 40 34 29 45 25 45 9 40 59 42 20 22 59 63 29 79 63 -9 55 172 161 247 204 174 118 102 204 277 233
58 131 109 134 160 200 104 53 140 53 5 -18 -20 -16 10 13 18 53 32 51 68 44 59 109 87 26 100 118 70 72 29 61 50 64 106 80 125 165 207 144 115 138 117 285 223
86 172 -16 259 243 120 75 182 47 -39 -61 -24 -15 -5 -6 13 23 26 38 53 69 62 93 71 73 102 169 88 48 79 86 38 60 125 127 75 90 122 50 71 135 198 212 369 310
112 19 254 232 172 147 185 58 -41 -62 -32 -2 13 -7 11 19 28 26 51 49 39 75 52 101 106 143 137 75 66 105 68 54 85 160 159 104 77 89 55 81 88 105 131 183 214
142 201 150 102 114 157 101 -40 -67 -51 -37 -1 -18 11 15 23 24 46 76 23 57 71 45 55 53 77 111 61 34 28 40 49 123 154 157 99 83 50 46 65 100 149 175 192 212
276 153 61 108 113 94 -49 -81 -61 -77 -1 55 30 30 19 27 42 66 44 91 67 93 69 62 34 57 35 23 43 23 48 19 9 53 60 97 96 30 -10 27 67 78 101 143 162
207 110 60 111 110 57 -30 -122 -80 -40 66 65 25 43 37 38 60 54 74 82 61 65 68 62 58 65 36 55 38 33 11 38 35 41 37 43 53 32 22 54 57 66 70 84 99
121 144 105 77 -17 -44 -35 24 32 65 71 75 27 37 32 39 57 66 56 61 41 28 42 52 -46 2 33 13 6 20 35 21 23 32 45 35 21 61 81 84 77 77 86 95 103
140 94 79 44 30 -21 2 18 38 74 65 70 45 45 34 33 60 57 59 64 55 43 15 19 15 -28 -56 -35 -20 -3 14 30 32 27 15 34 9 30 63 76 78 80 86 103 111
60 91 47 -40 -13 -13 50 8 36 14 64 86 69 45 32 38 27 38 52 62 51 72 26 34 19 30 32 29 13 1 -1 -2 13 -10 20 16 15 -10 31 50 71 90 95 99 110
-3 28 65 25 -6 -15 45 12 44 25 37 46 10 56 40 28 28 30 35 42 38 59 36 54 13 17 41 35 22 21 17 -13 -3 10 15 35 32 33 91 111 107 114 124 131 122
13 -15 24 -6 -43 -1 23 14 23 9 51 35 -22 3 1 32 39 35 12 8 15 7 3 -3 -4 1 7 32 19 5 14 12 9 24 21 27 29 70 97 105 107 111 126 126 115

GFSSW_con_3kmhel_078.txt.gz
Helicity
96 65 30 12 97 61 71 79 62 74 76 64 57 131 83 48 21 17 45 81 72 50 47 76 96 102 116 150 138 144 317 352 196 130 80 87 98 79 43 88 63 77 43 74 48
140 119 89 120 74 93 109 81 65 63 77 73 53 107 125 71 15 15 42 71 74 101 108 93 122 100 122 148 184 197 250 206 107 45 46 53 73 82 48 40 99 68 30 54 28
130 138 117 99 27 127 125 105 61 52 99 63 90 98 103 73 32 83 78 48 64 92 105 104 94 112 123 106 162 160 160 119 84 76 116 82 55 76 118 97 105 83 21 16 43
103 137 154 99 49 96 157 119 78 73 110 96 133 112 91 78 45 89 62 87 117 89 78 88 92 102 129 135 74 149 95 67 31 73 122 74 48 52 20 41 46 133 133 7 67
78 142 149 151 65 132 145 123 82 75 97 87 113 129 96 98 49 117 89 102 103 81 82 88 76 105 120 126 105 87 52 60 46 61 112 127 56 23 45 10 36 84 88 23 58
132 124 153 183 13 146 162 124 95 90 97 99 121 139 97 68 69 81 79 91 77 65 60 42 52 82 88 79 106 73 43 35 53 76 88 79 46 42 25 32 11 52 47 8 39
133 116 159 252 68 142 172 91 78 74 71 96 113 132 99 61 66 66 62 85 77 59 45 34 28 51 92 58 33 53 26 48 44 57 63 87 72 17 34 100 15 13 29 1 36
108 118 106 167 67 174 127 44 41 129 99 88 132 105 78 68 53 31 48 64 70 57 41 23 32 28 48 50 2 -35 54 55 63 53 81 131 42 12 33 67 53 47 34 19 27
82 106 121 151 115 132 105 115 93 35 76 110 134 84 62 43 52 55 65 75 81 45 34 31 54 46 41 -11 -105 -2 75 68 86 38 100 92 35 51 30 3 40 29 24 -1 21
80 108 134 193 107 140 153 78 104 111 97 118 123 61 70 66 63 72 63 46 40 44 37 36 36 27 4 -9 -25 24 53 35 53 67 68 65 72 81 35 27 12 23 13 -73 67
39 79 160 272 124 156 170 155 112 91 77 84 100 73 59 62 60 44 39 31 20 24 39 29 10 -23 66 52 25 -57 25 25 24 134 44 98 62 90 200 49 9 20 21 23 94
8 27 92 124 36 111 102 87 81 97 63 38 60 38 14 48 25 50 29 9 10 -2 3 9 16 46 33 -15 -23 -6 35 74 59 86 49 -8 42 111 143 119 23 37 -20 104 99
21 8 45 118 42 126 68 63 64 18 64 70 49 14 21 58 9 24 40 26 -27 -55 66 59 57 24 26 -14 50 56 47 30 50 92 83 -50 -69 7 85 43 85 104 108 181 126
23 9 35 84 127 100 61 10 47 23 97 76 24 -2 21 2 -26 24 60 37 24 37 50 100 64 24 139 75 41 43 33 102 72 163 78 93 -31 -20 125 49 59 143 192 177 134
23 16 32 23 75 92 45 36 47 104 36 39 47 -5 -6 -26 -23 27 21 25 21 49 46 56 26 13 23 88 92 16 -17 -38 -10 246 114 149 23 117 133 97 141 230 277 239 225
16 26 23 10 71 56 102 146 162 94 13 15 6 -38 -27 -25 -11 35 40 30 23 34 63 73 29 39 35 95 51 88 -37 -59 -23 58 113 92 100 128 180 273 134 188 261 269 298
5 13 26 20 59 110 164 140 149 62 34 -2 -48 -38 -29 -19 2 17 12 5 15 83 55 57 59 46 31 91 83 47 6 59 72 100 126 158 134 188 208 172 148 157 223 255 129
355 152 -17 -23 81 192 215 204 59 85 -48 -28 -35 -27 -56 -20 -13 34 18 33 31 85 83 85 105 86 84 74 40 38 22 35 129 105 122 114 197 195 184 133 157 236 248 211 237
37 145 80 54 147 204 188 123 63 -13 -11 -18 -14 -62 -43 24 15 57 38 50 51 72 80 88 112 108 78 85 76 70 57 59 107 114 89 105 114 122 100 99 76 171 236 211 228
153 135 89 127 171 153 161 101 29 -34 -36 1 -62 -59 -33 18 42 54 49 36 99 65 89 87 99 93 93 105 102 72 82 105 135 132 117 106 111 49 33 27 23 103 141 126 206
156 218 203 163 179 184 90 90 28 -72 32 -86 -18 30 26 31 52 37 64 90 81 40 52 71 63 43 43 34 56 54 79 67 56 73 50 57 31 -3 -7 -27 -20 -8 9 42 55
146 77 64 172 136 101 64 82 -46 -5 50 79 43 41 51 69 46 56 60 67 52 57 49 45 37 36 33 44 89 80 79 62 -13 27 51 25 -16 -49 -85 -22 -2 28 50 67 75
222 161 110 178 35 85 59 -38 77 67 81 55 46 49 53 61 49 49 63 62 40 57 93 73 52 38 39 48 50 43 49 62 50 27 39 44 -4 -4 -22 3 21 45 64 82 103
136 75 82 66 101 9 -9 27 49 66 78 45 59 64 60 51 50 46 58 49 71 55 49 59 30 58 46 33 37 31 36 50 43 52 39 67 21 -6 -3 6 16 48 75 85 92
89 76 45 36 62 38 98 70 45 99 67 66 60 60 61 53 45 60 53 62 62 60 38 42 11 1 2 8 6 12 27 35 44 53 72 31 8 15 12 24 46 65 75 88 94
42 31 43 45 51 86 90 43 51 87 79 65 32 47 39 64 61 36 36 43 43 38 35 38 26 35 57 48 20 -2 2 5 18 24 33 15 49 -3 52 71 70 80 84 90 98
30 42 58 26 33 62 63 47 71 71 72 62 23 39 36 57 47 44 31 32 31 32 24 14 6 29 26 49 54 10 32 30 11 10 18 14 37 42 58 62 79 91 98 110 112

GFSSW_con_3kmhel_081.txt.gz
Helicity
108 134 135 119 87 46 52 36 55 41 46 49 23 23 64 64 35 30 35 114 107 71 48 54 64 85 87 104 79 113 242 201 129 120 115 21 25 18 40 55 30 3 20 52 33
108 103 129 153 108 112 63 75 49 53 44 45 24 43 78 58 32 37 58 103 79 62 40 63 76 92 106 121 139 164 182 131 115 79 66 29 31 22 56 49 46 5 38 46 15
85 79 103 114 103 129 43 101 101 66 41 51 38 75 85 36 39 140 110 43 35 55 84 91 103 82 100 85 147 141 140 144 131 77 95 86 53 27 72 42 37 37 66 84 34
137 132 132 182 118 145 49 96 113 86 63 69 69 95 78 37 135 125 109 92 76 77 75 79 79 83 102 104 42 96 122 128 109 145 126 107 157 68 43 35 24 41 41 104 56
114 118 135 175 172 180 37 134 116 80 79 89 91 97 64 63 83 166 128 95 69 62 64 83 90 90 106 108 93 79 94 98 101 90 105 126 114 94 49 10 43 84 45 63 1
109 114 106 130 131 259 100 145 151 90 69 82 109 87 44 60 163 90 85 78 51 57 54 66 95 109 100 78 80 83 111 138 111 119 135 75 68 95 70 34 59 49 98 38 156
85 89 115 98 171 301 178 177 128 76 67 53 105 45 58 67 93 82 83 67 60 50 54 54 58 72 91 76 33 54 84 91 89 118 80 94 58 35 22 43 36 52 47 83 92
49 83 106 139 158 259 198 141 82 85 62 49 64 51 68 99 79 49 40 52 52 50 46 38 32 28 33 52 15 27 31 43 66 46 26 80 36 2 50 58 30 71 30 40 27
24 68 119 164 159 84 165 76 90 109 70 60 63 42 87 84 48 39 45 67 66 58 36 28 22 11 18 38 1 -5 -29 -31 -12 25 57 77 4 101 39 -5 14 28 49 15 52
12 37 82 136 207 70 154 156 65 78 60 69 103 57 68 94 87 64 73 61 39 18 14 29 61 50 55 27 -28 -20 3 46 7 38 65 30 42 92 166 178 42 28 34 21 1
12 19 49 75 120 108 181 92 103 95 50 36 49 107 86 90 60 55 68 40 15 22 -16 36 45 26 8 20 -12 -18 8 5 14 1 20 13 30 70 105 116 74 42 61 38 -12
26 12 30 72 33 65 125 97 37 62 35 -28 51 37 45 52 48 52 50 34 28 -26 12 1 -33 -30 -1 -8 -1 21 21 -27 14 3 59 24 49 43 20 88 117 121 45 26 31
27 13 26 40 70 83 58 70 66 27 64 45 12 35 33 35 10 40 39 11 -30 -70 -51 -67 6 -7 14 3 25 50 114 59 1 -33 41 53 60 30 36 23 46 89 56 56 7
26 10 33 37 42 75 59 27 47 75 90 49 45 27 37 19 3 4 8 -19 34 32 59 81 56 68 68 64 77 55 65 44 99 3 54 43 32 10 33 57 -19 23 21 41 172
30 22 32 20 22 43 76 39 33 41 87 52 45 30 21 11 -3 -10 16 10 19 40 28 23 24 44 62 71 93 7 11 -23 25 52 -11 5 22 4 -27 27 43 35 54 105 150
-16 11 25 0 9 34 51 87 88 102 116 44 43 4 1 -10 -6 -18 -4 5 30 39 66 91 33 27 62 114 54 -49 -31 7 149 84 25 67 57 14 58 169 253 91 178 129 133
35 -5 18 23 11 3 68 89 86 111 54 31 6 30 11 4 4 1 18 19 45 71 45 37 42 35 68 38 41 16 30 74 177 98 79 91 74 5 59 139 178 108 143 203 210
173 0 -24 1 31 21 83 104 98 43 70 34 29 13 -2 -4 -27 21 12 22 41 78 51 79 45 43 23 103 29 26 24 92 92 50 52 47 89 83 111 113 139 189 157 264 264
14 -1 -53 -27 19 42 89 40 -1 43 105 1 35 -18 -41 -22 27 37 32 12 51 46 92 106 79 97 93 54 38 29 43 77 93 61 123 182 176 82 59 65 136 196 197 234 289
173 124 24 -25 -2 93 53 -17 70 117 23 -5 -15 -35 -30 20 62 60 35 38 60 68 54 183 70 83 94 94 124 125 123 146 88 85 72 96 114 98 96 79 107 177 194 204 208
136 152 36 21 80 98 35 44 105 85 111 21 19 17 29 33 36 29 69 79 54 71 114 184 127 111 90 100 96 111 121 102 65 59 56 39 55 57 35 14 20 35 77 102 119
192 195 75 180 95 103 65 131 70 55 67 14 38 47 37 19 39 60 56 40 54 57 50 50 81 79 69 94 104 136 87 67 66 34 48 13 -9 -32 -33 -25 -20 -26 -16 -1 10
199 137 146 201 96 50 104 44 87 64 35 42 32 54 51 32 60 49 55 50 36 51 62 62 82 91 76 86 83 74 110 112 90 44 37 20 -30 -30 -2 -10 -18 -6 13 21 39
89 30 83 95 131 81 21 64 80 46 37 56 50 41 47 27 37 44 35 54 90 88 82 102 46 47 44 34 70 62 77 78 37 45 35 39 15 17 10 17 0 14 27 34 44
82 49 53 71 129 41 107 72 54 70 87 85 73 74 58 47 18 42 57 75 57 70 60 53 36 38 38 30 35 44 53 57 48 73 63 49 35 24 20 32 13 19 28 34 43
21 51 113 52 65 82 117 57 69 66 100 73 63 61 26 19 26 30 56 69 65 53 44 43 34 17 23 30 10 22 42 48 62 67 42 46 44 15 35 54 55 50 45 44 57
49 59 67 93 53 91 59 66 72 78 56 55 60 27 40 63 43 33 24 20 30 48 26 13 24 40 34 41 39 18 40 41 22 32 40 30 37 33 44 40 44 64 71 80 81

GFSSW_con_3kmhel_084.txt.gz
Helicity
167 175 155 163 152 150 88 67 43 50 30 37 31 11 -12 -8 4 20 24 93 149 101 80 61 32 58 61 92 76 143 239 201 150 130 112 106 133 29 28 51 39 52 80 35 41
95 136 162 181 177 157 158 111 49 99 47 29 27 30 -4 -12 -18 2 36 136 127 86 66 81 69 69 96 102 138 188 188 150 98 116 121 105 94 94 71 54 66 110 85 78 47
97 112 118 133 152 214 168 147 53 110 74 44 31 45 -5 -20 -14 136 76 64 70 62 69 107 111 136 84 77 129 157 134 128 138 152 162 152 160 78 72 89 46 99 80 85 105
92 98 112 128 129 192 227 123 49 100 85 65 46 44 4 -13 59 120 106 70 76 64 81 97 116 119 124 127 66 105 81 105 134 185 190 202 212 246 96 131 76 59 91 83 138
57 91 95 83 129 145 158 172 95 121 103 87 61 37 28 31 54 166 112 111 89 83 84 123 138 140 114 117 112 100 63 74 98 115 139 179 184 254 183 70 75 98 68 51 66
37 64 68 76 109 120 151 251 135 143 109 81 64 36 23 36 168 122 61 84 62 65 80 91 137 173 166 105 138 92 111 120 140 168 185 162 190 200 144 108 147 67 89 62 41
21 28 59 111 109 138 169 138 213 175 67 47 34 27 28 53 122 104 77 52 50 51 71 72 98 161 150 136 116 109 82 64 67 62 85 136 116 159 137 57 153 144 50 62 59
24 28 52 99 120 161 142 152 204 133 59 79 17 27 49 100 131 66 44 59 56 68 64 94 131 144 100 69 46 63 61 72 43 31 38 84 98 77 31 66 63 112 56 71 74
28 29 34 75 111 175 87 117 143 102 68 55 56 59 65 76 57 23 17 36 34 37 39 39 75 90 60 57 33 51 72 44 6 -34 -23 49 48 -20 -12 25 28 75 72 49 80
25 26 27 55 96 202 79 165 108 41 66 37 64 47 54 48 65 55 59 58 58 75 84 57 74 57 39 47 82 33 -7 -9 -11 0 -19 70 19 -19 44 65 62 37 19 48 60
20 27 15 42 67 68 204 101 124 111 78 53 46 104 78 105 57 24 53 46 67 65 76 40 45 52 22 43 53 -16 -39 -7 3 -5 21 25 16 -28 4 51 100 161 103 34 66
20 20 17 36 25 10 72 99 66 64 34 16 87 95 101 31 29 34 42 31 28 -1 27 -28 -27 1 7 -59 -18 12 11 3 28 12 13 46 -18 24 68 45 69 94 80 65 87
9 8 34 36 30 -53 36 73 27 62 53 75 29 40 29 15 4 63 9 18 4 -37 -78 -25 0 67 48 62 42 68 93 97 39 15 -10 25 -2 41 28 -2 37 68 38 66 20
1 -4 14 30 15 1 29 16 15 44 51 86 32 35 31 8 18 49 20 13 4 -33 -40 27 63 62 47 71 105 87 97 102 75 9 -76 -29 -3 6 37 54 27 26 33 -2 44
-6 -20 6 8 22 25 67 42 67 55 158 24 60 38 21 16 19 14 7 12 -2 10 16 40 42 48 48 53 49 40 -13 15 40 -5 3 -10 32 20 47 67 93 25 -9 40 92
39 -1 9 5 -6 2 -52 63 89 73 75 54 50 11 11 1 11 12 5 -9 19 30 62 93 40 32 10 34 51 1 -8 19 -5 0 4 -14 5 -2 45 28 118 69 141 99 126
17 14 -11 9 12 7 -20 85 49 124 33 36 20 4 -14 2 7 19 5 -7 19 48 39 51 105 42 28 27 7 3 41 66 21 9 7 14 9 -23 19 13 112 46 116 128 146
66 1 -5 20 14 -46 23 72 113 -18 55 76 19 21 44 5 11 12 15 24 81 62 56 48 61 31 17 53 15 2 65 140 41 33 53 73 45 32 49 64 77 117 156 146 152
11 26 35 28 17 2 2 -17 40 47 60 51 19 50 40 12 -2 11 16 57 33 11 44 59 77 100 146 108 35 45 76 171 91 79 134 105 132 104 50 71 109 115 118 123 160
44 115 94 21 9 44 19 37 72 142 55 -15 55 32 5 -15 33 34 47 49 24 24 52 74 63 71 72 64 98 129 183 102 97 71 87 128 119 84 35 23 32 84 100 118 152
150 136 64 20 46 48 27 73 79 196 65 159 57 27 67 51 53 48 47 43 41 128 192 134 93 66 135 91 89 116 116 112 136 83 81 65 70 58 24 14 33 79 151 148 134
224 91 40 50 31 3 54 112 113 100 107 71 114 71 55 33 39 56 44 74 60 124 97 84 87 100 93 95 94 149 133 83 38 73 59 8 9 -33 -17 -23 -33 -12 58 84 81
172 129 114 34 -13 62 146 76 96 59 58 63 43 49 62 38 63 31 39 41 56 58 65 71 75 97 102 87 105 118 114 96 89 64 14 -58 -63 -33 -42 -41 -36 -25 -35 -27 -8
98 11 48 74 74 173 84 73 81 75 45 66 74 103 101 74 39 40 64 90 78 53 86 65 44 45 39 51 84 62 72 93 22 -16 -11 15 35 10 18 9 2 -2 -2 4 0
101 47 59 104 139 113 108 48 45 90 94 96 84 81 87 60 34 65 97 106 97 84 81 32 14 29 13 9 19 31 44 73 107 40 1 -28 28 35 44 39 37 39 33 34 41
46 77 136 82 103 95 92 65 55 94 142 64 50 41 64 59 35 49 96 65 49 54 41 26 0 6 3 13 12 16 50 22 38 57 36 65 37 52 63 69 70 48 52 67 63
93 77 86 140 150 56 48 41 58 87 73 63 90 21 57 81 61 39 24 26 26 21 19 12 27 27 41 39 37 34 28 13 -14 -3 5 -21 -3 74 92 109 67 77 81 85 82

GFSSW_con_3kmhel_087.txt.gz
Helicity
86 120 135 130 181 144 178 180 78 91 73 36 31 19 13 5 8 11 21 26 66 77 75 63 67 112 124 157 143 196 247 202 157 122 112 64 91 39 20 48 58 -61 15 26 122
80 73 108 100 125 168 163 221 140 142 71 71 41 16 6 26 21 -13 -32 58 85 67 75 68 65 96 154 184 250 272 227 195 137 116 125 105 102 47 64 129 60 56 48 28 36
74 77 89 105 102 139 169 248 206 244 121 91 46 35 11 51 39 23 3 36 38 46 58 88 115 142 131 194 216 232 203 144 117 112 118 131 101 60 84 95 154 113 176 101 83
42 48 55 68 75 92 159 153 215 219 93 107 75 54 35 66 120 38 45 33 47 45 67 103 127 174 164 193 162 179 175 149 123 116 128 131 122 80 102 111 87 84 122 109 67
19 29 60 56 78 96 122 111 138 181 89 73 86 65 83 95 70 63 72 66 75 71 72 102 105 131 170 181 201 200 139 149 166 188 194 177 139 121 59 94 104 86 138 111 104
14 27 31 32 53 97 110 110 96 175 121 98 96 112 121 109 79 115 105 67 59 62 78 103 126 176 179 179 203 196 180 136 132 86 60 98 99 103 94 44 97 115 153 85 125
49 48 38 34 52 92 113 115 41 106 123 129 50 62 105 84 73 58 60 57 37 43 69 92 133 170 218 187 169 199 201 163 74 43 74 44 57 106 85 63 48 38 164 148 191
40 38 30 19 42 81 156 63 128 190 125 78 50 76 114 87 110 104 71 61 62 74 85 83 144 174 159 173 181 214 199 120 68 59 40 73 69 83 65 70 54 7 97 124 172
27 26 28 24 23 62 88 178 129 137 142 106 116 157 83 105 114 73 54 47 46 60 58 54 114 111 136 169 210 138 179 161 64 7 21 29 192 55 106 32 30 56 33 108 185
25 20 29 35 28 50 93 163 149 184 111 108 101 65 45 37 63 36 33 59 83 84 61 81 109 107 113 149 178 122 27 -1 4 43 29 -19 -2 50 12 33 23 12 80 104 157
27 14 23 35 29 44 116 151 156 169 87 70 63 107 69 126 102 53 62 74 62 24 21 42 84 92 46 51 39 7 4 3 24 35 13 49 0 10 118 9 9 9 39 37 39
12 11 20 43 32 51 -32 93 72 53 70 91 259 163 83 52 62 37 43 23 -5 -19 -9 -11 -55 9 19 20 40 19 19 59 45 31 29 11 26 6 49 24 53 -11 26 80 22
1 2 11 35 46 21 -101 76 54 61 76 127 109 97 74 40 19 25 16 -10 -12 -26 10 25 -4 18 66 27 24 149 96 68 61 14 75 20 -10 16 32 15 27 21 44 38 16
0 -6 9 38 21 -4 -43 -3 28 86 56 110 63 67 52 38 39 36 4 -8 -18 -28 -22 6 4 1 21 125 133 181 154 157 108 34 -56 35 -36 1 19 17 34 57 39 53 40
13 13 17 14 6 7 -27 -13 26 68 138 23 68 25 27 41 18 22 -16 6 -10 0 13 7 -7 -14 34 78 32 121 36 31 42 37 36 -6 -42 7 -7 10 23 29 18 25 94
12 31 28 23 12 13 21 16 31 101 168 71 57 44 56 46 25 -1 -8 -14 -6 -8 32 52 7 4 18 38 70 78 28 54 3 -2 31 31 89 2 19 4 24 28 62 55 64
60 7 -13 32 28 31 46 36 77 82 52 64 62 61 50 28 0 -16 -13 -14 -5 19 30 33 41 33 36 37 20 6 10 54 27 30 31 6 3 -17 10 -15 27 -15 41 74 176
52 25 46 63 25 34 35 76 96 57 47 72 69 67 53 6 35 6 -13 22 53 25 55 55 44 46 34 23 31 35 56 87 31 27 56 61 39 1 -14 -39 -38 20 50 93 114
18 73 77 65 59 60 70 66 68 36 93 76 69 80 49 37 3 15 19 51 38 31 56 57 64 56 76 68 64 69 165 78 67 48 66 84 59 30 29 14 28 66 114 116 90
96 89 87 61 44 76 27 112 64 110 64 56 96 67 43 22 37 40 29 44 31 36 47 67 58 60 70 111 118 167 148 99 70 66 66 93 133 59 37 28 49 81 96 115 94
113 100 88 54 64 49 131 76 90 25 59 114 62 58 31 42 42 62 55 36 44 82 127 75 61 84 105 94 121 128 142 124 135 92 81 78 121 76 19 -3 -7 25 42 61 68
124 104 105 74 55 49 96 156 301 196 134 110 91 81 62 58 76 77 58 104 136 91 74 97 91 92 91 84 104 173 184 84 47 70 33 36 75 115 8 -13 -5 -26 26 32 26
90 67 65 108 92 141 164 186 134 80 73 82 73 71 60 91 70 72 78 91 80 60 53 36 67 71 74 66 79 121 143 75 52 38 49 39 47 53 49 19 11 -2 1 4 -2
54 36 104 90 118 143 146 96 89 117 130 97 78 97 92 76 74 71 97 92 83 76 56 41 31 46 53 66 89 64 114 114 20 9 48 27 -13 2 17 15 10 7 5 5 -2
36 90 112 87 109 167 105 70 77 112 120 77 85 84 72 72 70 71 75 69 82 82 58 28 9 21 29 27 14 25 31 71 76 26 -18 -65 -38 7 24 19 5 8 7 17 19
43 52 52 78 82 88 57 92 89 108 84 109 85 108 77 101 86 71 75 41 52 54 20 9 25 -3 7 -7 -9 -3 45 49 60 37 13 -4 -1 22 25 33 64 49 40 42 39
70 64 48 88 75 72 80 32 55 78 69 60 75 75 90 96 89 111 52 34 23 22 28 17 15 14 29 22 20 22 40 23 9 12 5 14 18 54 51 67 61 54 60 53 38

GFSSW_con_3kmhel_090.txt.gz
Helicity
72 82 93 142 125 132 177 157 181 195 115 60 39 50 31 41 52 57 54 21 40 38 53 69 85 92 114 138 173 186 169 146 167 122 93 104 119 5 10 19 43 36 102 130 117
72 65 32 25 92 131 157 134 127 238 148 33 58 65 50 43 60 57 21 22 53 55 83 87 94 95 134 166 179 194 174 124 142 151 102 90 103 85 -8 32 -18 37 136 169 173
17 24 39 18 26 27 76 122 180 185 279 40 68 49 63 56 86 50 19 -18 39 44 67 92 75 95 128 170 176 194 183 147 162 125 113 85 91 92 74 0 0 84 156 184 255
47 33 23 33 48 37 36 100 129 159 259 52 89 85 90 82 137 55 27 5 15 50 81 81 105 139 147 149 140 175 140 145 144 171 168 140 111 84 123 50 -30 -6 78 109 225
33 47 66 65 32 28 51 76 106 127 205 44 110 115 145 113 101 44 57 31 74 71 95 106 121 140 139 123 132 124 133 168 181 182 130 106 93 99 52 40 -23 -20 61 111 135
37 44 59 48 46 37 65 81 87 107 130 78 106 142 151 104 74 60 89 87 78 97 115 111 130 146 129 110 126 161 138 119 140 87 100 110 75 141 117 89 39 -14 46 40 81
36 53 44 35 36 45 94 109 98 49 14 71 63 78 149 132 73 101 80 59 66 81 117 146 130 143 125 113 160 121 106 122 74 103 177 170 100 115 52 56 55 43 -32 -4 80
26 42 39 28 29 27 82 148 57 2 -8 194 100 149 144 125 65 70 61 73 60 75 88 85 112 123 132 145 171 140 164 135 109 173 155 219 100 122 120 151 159 112 11 -64 83
29 20 23 13 23 30 104 48 109 165 227 165 124 180 166 126 68 64 79 64 70 77 77 85 101 110 137 177 175 162 152 118 197 72 113 131 96 44 76 113 163 141 107 -6 28
4 5 26 21 35 21 69 151 332 236 297 232 165 122 82 86 95 77 61 62 76 74 75 104 115 128 135 114 30 43 124 95 122 54 59 15 47 56 99 91 68 201 175 73 80
0 -2 12 23 28 -5 78 405 207 290 374 105 94 61 157 119 130 100 76 103 93 61 64 46 60 -30 -37 26 49 41 23 9 79 115 -19 27 27 118 162 50 41 118 174 168 150
-6 -5 1 21 28 -15 -97 130 240 105 208 265 118 135 53 87 93 89 74 67 49 34 -3 -29 -61 -24 5 26 31 35 19 83 116 56 19 8 54 144 107 24 52 67 90 86 141
-3 -2 -5 20 32 -23 -53 12 54 123 146 224 226 132 88 58 64 28 41 32 22 9 6 37 -16 12 37 40 78 89 106 139 129 42 30 5 10 53 41 43 43 52 40 64 39
13 21 5 17 21 -34 1 -69 57 119 134 78 69 184 104 81 80 30 13 19 9 -37 -15 28 3 19 30 53 95 81 29 84 79 26 -15 13 -41 11 44 7 62 45 65 91 60
15 25 -6 2 3 3 11 7 29 81 115 131 115 95 94 89 31 42 30 14 -10 -16 4 -16 17 5 32 28 25 59 23 38 10 38 26 52 -57 -33 10 -29 -8 25 16 11 27
26 26 -5 26 30 49 61 22 48 138 200 98 109 85 85 72 55 57 21 5 -8 -6 4 3 6 10 1 6 58 69 21 -4 19 12 28 59 63 27 10 -35 -13 -28 -8 23 6
6 9 40 38 74 56 50 108 68 136 136 133 91 61 77 69 71 34 0 -13 -11 -16 -7 22 22 15 29 8 -28 5 22 45 55 88 56 10 23 2 21 3 -19 -52 -36 -2 56
3 35 81 64 54 33 56 145 92 152 126 115 98 71 65 44 44 5 10 11 57 13 32 43 39 41 23 -4 -20 28 60 30 25 62 47 20 44 -8 -32 -12 -20 -24 -23 45 94
34 100 136 133 104 87 87 133 106 88 46 46 68 74 79 73 26 11 67 55 23 38 29 47 54 36 55 37 75 53 99 62 38 19 42 70 69 37 -9 -28 -17 -15 23 59 77
77 99 127 134 75 62 90 79 63 121 119 113 112 79 74 49 34 61 69 34 47 60 32 46 43 53 57 81 116 128 67 49 40 61 53 56 90 67 29 15 18 33 20 34 53
43 118 148 118 102 107 157 94 89 104 87 129 113 48 43 51 70 79 66 52 65 58 48 27 48 59 28 91 145 113 122 131 89 84 74 82 95 105 70 47 56 47 32 19 28
89 100 151 140 53 189 208 130 133 144 131 136 95 54 58 80 62 58 62 76 56 46 58 77 49 60 48 76 113 134 147 98 90 76 49 44 87 83 52 43 21 8 -1 8 7
51 117 169 190 88 163 176 180 196 111 99 73 58 59 67 54 33 65 100 80 63 58 58 39 55 51 32 44 60 79 120 88 58 41 50 57 67 46 68 47 33 14 2 -5 -11
74 45 134 118 133 126 142 110 83 101 103 71 64 68 58 48 66 66 65 86 71 44 43 32 35 44 54 76 92 87 127 83 31 14 47 32 14 12 31 47 37 29 24 16 8
60 64 83 82 111 149 133 85 96 81 74 40 64 54 68 70 83 71 67 58 47 30 23 25 33 26 36 40 34 48 60 88 33 15 21 -6 19 22 46 38 33 22 13 9 5
45 33 52 112 120 92 70 106 100 95 64 97 65 103 65 29 48 50 55 35 38 37 20 20 28 7 16 5 2 12 28 20 36 58 24 -2 -8 20 18 28 32 34 32 25 5
28 17 55 65 57 70 91 73 64 61 37 32 64 65 60 81 106 107 63 38 16 27 32 23 26 17 15 10 13 11 34 25 18 18 14 26 30 30 25 37 44 36 27 26 28

GFSSW_con_3kmhel_093.txt.gz
Helicity
24 28 51 34 9 61 116 121 98 140 188 149 71 57 42 49 60 73 76 52 73 57 82 91 110 111 128 146 141 130 152 120 97 70 56 110 106 98 76 75 99 71 156 178 140
46 60 28 14 5 -5 37 71 112 76 104 210 153 72 99 55 76 82 41 37 51 65 99 116 133 127 176 167 165 189 179 96 106 112 83 50 60 59 59 74 25 55 156 184 187
35 51 23 56 33 11 10 40 69 97 76 153 177 112 121 69 82 68 48 48 77 97 103 114 114 122 176 162 160 175 167 130 135 107 95 45 30 28 50 20 58 47 64 183 207
66 56 43 36 33 38 22 5 71 90 83 141 159 96 109 134 142 77 59 44 66 73 88 108 129 162 161 163 162 158 141 144 141 130 113 80 85 68 63 80 22 24 14 81 186
64 39 40 41 57 58 18 2 29 100 110 125 116 128 134 134 98 36 32 31 94 78 100 104 139 140 141 126 151 152 162 157 142 128 103 102 82 76 71 88 45 -10 7 31 131
31 35 44 54 49 54 47 32 28 43 99 126 92 237 197 108 72 90 108 118 90 100 123 134 118 112 127 137 159 157 115 99 98 100 101 116 96 152 196 71 69 57 24 -9 53
17 28 56 33 38 37 36 55 58 65 49 74 117 239 193 130 81 114 119 98 96 108 145 131 112 129 104 123 131 105 98 90 83 87 121 130 116 169 90 128 116 130 106 32 19
2 27 44 33 39 33 33 42 96 47 -16 23 211 192 131 308 84 113 116 120 113 120 105 93 103 106 105 90 122 103 95 83 50 126 135 178 163 134 106 156 166 160 158 115 14
-0 12 25 -0 16 28 20 90 118 -1 14 46 282 148 135 63 60 114 87 94 107 114 99 72 95 104 98 91 96 106 121 132 148 91 138 176 178 77 104 194 160 129 94 98 68
-9 3 15 6 22 -6 -16 275 252 408 344 368 389 175 104 111 108 93 100 101 103 113 111 106 101 87 98 113 90 98 128 156 172 105 113 58 41 93 68 75 58 43 49 87 139
8 -9 -1 22 5 -15 -153 289 287 343 362 403 145 144 133 192 167 106 90 110 99 97 66 72 84 59 65 72 58 31 65 72 120 111 51 46 30 49 98 87 55 33 30 77 162
-5 -4 -16 -2 7 -66 -126 179 381 143 283 221 101 77 118 53 83 106 78 80 79 64 63 81 57 40 10 10 19 21 23 55 51 31 48 26 32 82 72 50 49 39 37 65 100
1 -6 -4 -9 -19 -63 -127 60 128 341 182 252 152 95 158 119 108 58 63 56 60 65 41 48 20 40 15 19 44 49 52 19 65 87 3 -15 -6 70 55 43 73 49 38 70 81
7 10 9 -5 -14 -27 -59 -54 83 184 297 250 232 152 62 77 102 64 49 41 36 28 30 38 25 15 14 27 36 19 -17 14 43 30 39 49 -19 -1 26 25 27 33 15 87 82
17 3 9 4 11 14 -15 49 142 101 297 102 142 184 101 87 27 47 62 37 18 -3 18 6 9 4 15 31 21 17 6 5 23 -12 28 78 39 -41 18 5 -11 -27 15 27 36
14 3 13 31 54 63 34 4 90 144 153 106 97 112 84 56 65 55 30 33 14 23 7 -8 5 -0 35 19 48 48 -12 -9 2 31 70 16 64 6 4 -5 -15 -14 -22 24 49
6 8 34 48 55 51 9 39 130 119 161 117 96 70 66 69 69 52 9 26 15 13 9 -9 25 25 48 11 -13 -35 -51 -46 18 72 106 -3 16 19 -14 -31 -45 -67 -80 -34 19
26 49 63 48 80 70 74 113 171 165 136 110 56 72 81 56 35 13 28 40 9 -16 -18 64 65 39 24 -1 -42 -13 16 35 90 76 53 25 39 7 -59 -6 -39 -55 -54 -22 37
56 110 108 101 70 37 44 92 194 180 110 56 78 71 77 62 29 48 53 18 6 66 49 66 54 10 29 21 18 3 50 34 28 36 68 72 71 40 5 -43 -66 -48 -34 8 3
98 114 112 125 55 72 65 48 101 88 32 96 87 62 52 48 50 55 26 37 61 57 27 33 33 49 24 59 100 47 16 28 31 55 47 55 59 68 34 3 -3 -20 -14 7 36
61 124 176 103 134 81 64 42 107 125 120 114 86 47 35 44 58 43 57 54 32 27 42 46 51 43 44 72 101 150 122 104 77 67 45 64 75 64 91 92 82 36 15 18 45
81 109 142 115 85 140 147 132 107 99 97 90 94 54 58 56 49 66 73 48 48 67 62 73 37 52 62 71 89 102 96 97 115 109 77 56 68 15 40 52 45 40 23 28 62
109 158 191 141 123 146 164 175 181 132 101 85 61 49 45 65 96 86 49 53 52 52 59 41 25 26 38 50 55 68 107 107 76 58 53 61 55 23 34 32 21 38 24 51 66
51 42 101 92 130 129 121 111 79 81 68 64 56 51 55 52 70 58 66 59 43 43 39 31 42 47 69 72 69 86 107 70 63 30 43 30 40 30 22 36 34 36 36 33 27
39 65 93 89 115 101 102 89 79 58 69 33 68 64 84 54 53 47 52 50 51 40 29 25 38 27 38 44 38 46 61 49 -3 35 26 30 14 20 26 38 33 28 17 19 17
51 60 93 106 108 80 63 80 72 65 46 67 45 70 40 39 45 49 37 23 28 31 22 19 22 9 8 2 1 4 10 19 10 7 15 12 3 14 6 -8 12 24 17 16 11
44 60 51 45 53 64 83 74 73 78 56 39 56 40 36 48 69 69 44 30 19 17 25 10 1 -10 -0 10 17 13 17 8 18 12 9 17 9 27 25 35 33 33 26 13 8

GFSSW_con_3kmhel_096.txt.gz
Helicity
34 34 52 93 86 23 34 26 65 76 102 112 103 144 60 68 70 78 77 59 59 64 96 102 137 132 131 130 121 112 153 102 76 69 70 104 107 79 74 55 105 111 152 140 184
53 36 48 37 40 43 57 44 77 87 90 20 106 144 77 89 115 88 38 32 64 68 113 115 141 147 166 150 149 164 139 74 100 101 105 105 61 53 60 56 38 49 97 140 116
71 79 64 67 62 17 36 37 85 102 94 48 52 213 120 79 105 74 25 27 46 86 112 127 133 159 169 151 155 134 120 111 113 103 123 74 74 60 78 36 37 45 69 84 147
72 66 49 49 55 19 43 21 54 78 129 86 -53 100 101 95 141 79 37 47 99 111 127 148 160 177 165 169 156 152 124 134 123 126 94 86 79 88 111 134 84 69 51 55 100
28 46 45 69 56 32 37 24 20 106 83 156 116 48 212 155 130 33 28 105 133 129 138 139 169 155 164 147 141 144 133 123 110 86 79 79 95 107 100 107 87 79 51 51 63
7 16 51 69 77 29 33 70 35 70 89 125 -1 82 145 108 131 101 98 122 93 115 131 122 114 116 137 139 140 108 87 85 72 80 94 84 79 113 190 54 98 104 98 76 67
12 20 18 26 37 19 30 58 50 72 79 71 80 228 240 186 52 108 146 97 99 89 125 115 96 121 114 115 111 101 91 82 50 45 35 55 63 82 83 64 121 154 188 159 140
12 27 12 36 27 25 27 29 14 44 93 92 132 181 164 331 166 178 154 178 139 114 105 96 98 102 104 82 109 89 69 57 8 42 23 64 83 76 63 108 156 210 200 175 127
33 -2 -11 -1 25 27 25 26 158 25 14 54 116 168 162 163 142 153 124 123 121 129 109 93 96 89 95 81 97 98 68 65 96 94 52 53 88 97 74 137 196 184 146 117 104
22 1 4 38 34 31 -14 13 328 149 135 168 189 256 144 166 335 175 121 126 113 106 112 102 87 71 72 81 74 78 112 109 114 71 102 79 141 82 56 63 82 65 60 62 30
15 30 26 30 45 9 -100 -93 210 178 215 126 147 232 124 80 30 89 100 100 106 103 81 80 82 44 28 55 91 97 113 110 74 44 32 27 84 123 122 128 114 83 91 52 14
36 36 13 10 14 -30 -104 58 445 240 122 143 229 205 229 144 129 86 76 79 87 75 69 87 42 60 78 58 66 61 45 53 18 -1 23 51 77 -15 14 64 44 59 64 48 36
21 19 35 16 -23 -58 -35 131 338 250 301 262 342 192 165 171 131 76 58 56 66 66 52 44 65 52 36 38 43 21 37 52 35 63 42 17 48 14 34 60 77 49 30 63 45
-4 17 3 -13 -16 -2 62 113 246 204 248 334 316 178 129 93 128 71 56 56 69 45 55 59 38 32 31 27 25 10 16 -1 -5 9 56 98 37 38 44 31 56 24 25 30 47
-4 10 12 22 32 -51 121 90 294 168 300 161 189 158 110 124 60 92 63 60 51 50 39 35 33 19 8 16 28 11 29 30 9 14 85 139 84 30 55 30 28 14 20 15 27
26 37 60 66 16 66 145 92 126 152 214 82 141 92 87 91 77 53 45 43 31 10 2 22 22 16 18 5 34 42 -35 -51 14 17 122 56 68 41 -7 -17 -16 -34 14 16 33
28 35 72 65 38 31 89 102 151 242 165 117 110 112 76 89 71 53 37 22 6 6 2 13 10 7 24 3 -46 -61 -48 -24 -17 -11 33 22 60 40 -22 -31 -9 -53 -45 -24 -10
75 71 63 56 68 59 100 107 214 170 94 96 101 98 86 89 71 41 34 6 -15 11 -5 27 66 21 -9 -14 -31 -39 -5 35 61 69 78 73 46 30 -13 -16 -30 -43 -40 -43 -50
125 95 87 96 71 66 68 223 154 146 82 77 89 75 69 53 21 12 -19 29 4 8 31 68 47 -16 52 21 -20 -34 13 13 45 62 107 70 47 36 15 -9 -59 -63 -31 -28 -22
71 77 142 134 76 93 157 91 96 69 37 65 75 60 48 47 56 56 53 43 51 45 44 14 43 24 48 77 89 47 24 10 25 71 63 56 40 57 26 17 17 -5 -17 -10 26
140 178 234 168 153 193 179 83 91 91 108 106 76 48 47 70 53 60 63 65 65 64 67 42 43 39 49 83 63 80 54 68 70 71 50 72 58 44 66 61 45 31 39 36 70
167 121 212 132 111 212 134 133 123 122 127 98 74 50 73 63 61 61 57 73 67 71 82 71 43 63 77 61 47 104 102 93 90 78 82 77 75 12 16 47 47 61 48 50 64
143 176 184 81 122 158 129 112 112 88 82 79 78 58 58 73 45 65 71 62 76 60 65 41 42 43 54 54 54 64 101 105 87 76 74 58 54 30 29 41 46 43 59 92 109
98 77 119 91 133 113 98 101 87 92 85 64 69 60 68 51 64 65 72 62 69 69 42 26 43 45 58 56 35 58 53 37 59 55 59 57 50 49 24 34 34 39 56 62 61
61 97 112 104 137 110 106 88 79 68 80 36 50 44 76 59 49 41 48 47 46 37 29 25 48 34 47 49 30 53 28 4 3 29 14 29 31 24 27 31 32 26 17 16 3
59 65 80 92 111 69 57 87 59 69 46 72 47 57 29 42 43 37 27 25 34 27 29 12 31 22 11 26 12 12 3 -15 -12 -4 -15 -26 -20 29 20 1 11 29 26 21 14
38 46 45 57 37 31 70 77 62 75 62 60 67 51 28 30 57 63 41 30 37 23 18 8 -8 -18 -6 -8 -4 19 28 20 14 20 24 23 12 9 26 37 37 37 35 25 19

GFSSW_con_3kmhel_099.txt.gz
Helicity
68 43 35 45 52 54 10 39 65 82 150 135 88 73 178 74 90 73 73 51 52 59 87 93 133 136 144 140 130 114 134 92 84 76 89 81 96 59 59 52 70 85 82 76 101
74 59 61 54 56 62 29 34 60 114 116 121 139 38 -23 108 127 82 52 23 28 59 102 106 136 138 167 159 155 158 132 83 97 95 103 83 63 56 56 65 58 55 51 54 58
49 60 53 73 72 69 58 50 53 58 146 99 100 92 -50 89 115 108 33 17 34 72 94 105 128 150 170 168 167 141 127 99 110 111 107 72 67 48 52 47 67 66 54 73 57
36 43 44 36 43 75 68 39 19 32 39 98 143 88 -10 81 115 125 26 31 86 86 120 123 149 179 170 158 158 146 124 106 97 97 79 67 60 63 63 72 54 61 71 70 75
8 18 19 29 38 62 61 61 59 42 45 121 128 107 152 156 108 50 16 124 130 119 109 114 156 151 157 128 122 122 103 95 74 53 56 60 58 70 57 51 31 60 72 62 64
1 12 13 17 6 48 49 45 59 71 51 88 131 117 145 194 204 119 103 138 118 119 123 120 109 111 126 122 115 76 78 71 50 62 51 50 47 66 -3 5 32 43 75 104 82
8 6 23 20 16 51 35 27 -23 84 92 99 139 188 136 238 154 252 128 95 84 84 125 107 79 119 103 97 91 76 84 68 56 63 55 52 35 -16 -38 59 35 73 125 128 130
27 24 22 5 33 53 41 67 19 51 75 125 179 230 164 159 121 186 134 122 123 135 94 84 83 93 103 63 97 73 55 88 71 80 63 60 50 36 68 110 136 135 116 130 109
92 49 36 29 44 35 21 18 45 11 59 39 128 216 199 241 164 139 91 100 120 127 120 91 82 82 91 86 92 114 72 60 84 59 50 57 85 84 124 103 77 60 56 59 76
23 25 46 51 49 17 12 26 148 219 115 50 104 140 270 243 284 214 160 131 104 111 126 109 93 82 79 81 76 71 82 73 72 54 78 79 92 119 94 57 40 41 79 97 95
15 19 41 56 31 25 -7 34 248 204 319 146 -17 49 289 214 256 206 155 134 121 120 100 93 87 86 60 60 62 58 65 79 107 46 67 61 96 105 83 28 29 53 90 123 116
25 32 29 37 15 5 23 15 108 140 213 128 45 170 215 169 198 167 114 110 111 122 84 97 84 56 60 62 67 74 73 74 65 22 33 44 44 28 -0 -2 28 80 108 89 73
8 13 17 16 -20 19 8 182 166 140 202 357 360 284 215 135 139 146 92 91 80 103 85 70 38 66 60 61 59 43 69 66 41 40 17 16 2 37 31 32 84 68 74 54 29
9 19 13 19 64 67 226 237 146 144 235 250 232 197 173 93 129 108 77 70 74 58 47 53 53 43 35 32 32 49 6 -0 6 23 42 75 66 111 62 30 75 35 61 49 48
27 45 12 27 80 178 138 192 134 134 194 145 187 192 124 142 67 111 60 64 57 37 44 17 32 23 20 10 24 2 17 33 41 66 66 104 79 45 64 59 25 22 45 9 1
38 57 109 84 74 82 177 74 74 180 163 108 171 125 100 112 94 53 58 50 34 30 31 16 22 21 3 4 19 26 17 9 -3 10 13 -48 31 35 24 -22 -41 11 28 3 13
62 78 63 80 87 82 91 52 170 282 150 145 113 138 109 96 77 51 41 34 19 23 34 11 -4 -8 18 -1 11 -2 5 -12 -16 -48 -39 44 77 43 50 -19 -23 -34 -38 -10 -15
138 79 86 61 96 99 102 114 209 141 124 115 93 82 97 85 76 53 34 -13 16 10 17 31 5 -3 5 -7 -7 21 -16 -22 -19 -19 37 91 77 93 15 9 -15 -28 -16 -28 -56
107 160 156 158 112 79 87 278 124 113 83 68 65 16 44 45 30 57 68 33 29 36 30 36 47 25 63 7 7 -20 2 -0 36 30 56 85 103 70 23 -7 -25 -49 -51 -53 -56
122 198 224 170 140 123 126 67 89 82 79 91 79 77 75 85 59 53 56 56 61 34 53 32 29 37 23 46 54 22 31 29 27 46 80 85 84 102 65 7 -2 -9 8 -13 8
109 221 273 189 186 178 39 40 89 117 112 98 93 84 91 73 56 67 78 76 77 57 51 32 28 65 56 85 39 49 34 40 56 59 69 76 59 26 31 42 27 33 17 21 28
155 132 208 88 96 166 142 115 117 115 109 94 86 74 64 71 75 66 61 71 62 49 56 70 66 90 94 77 62 87 103 69 89 95 110 106 101 25 14 34 57 45 32 27 50
180 177 213 38 106 144 134 138 143 93 91 81 70 64 75 73 64 69 68 46 51 45 51 55 66 50 54 48 39 51 60 69 70 69 98 95 90 46 34 16 9 9 39 62 69
88 51 134 119 117 105 104 110 82 84 90 77 86 75 66 57 53 59 58 44 51 48 51 42 61 71 57 48 32 26 21 20 51 32 37 60 43 10 31 36 30 30 25 18 15
54 88 118 92 128 99 98 101 101 81 90 58 61 57 66 52 59 52 59 48 41 28 30 29 41 37 40 50 41 45 23 8 37 38 28 20 38 17 36 45 35 36 24 25 20
69 76 65 91 96 72 59 82 64 84 61 73 40 53 31 35 42 55 37 43 44 35 23 15 25 10 -1 5 46 24 29 40 34 20 26 52 39 45 42 36 31 26 28 28 22
41 36 50 59 50 43 56 56 56 65 53 52 54 45 38 34 42 51 47 31 34 20 7 3 -8 -4 13 19 42 69 67 106 75 59 62 83 62 68 66 62 56 52 53 53 53

GFSSW_con_3kmhel_102.txt.gz
Helicity
66 52 39 29 38 45 53 44 40 76 93 121 76 163 127 66 54 54 84 79 42 27 52 69 81 93 101 117 110 90 93 83 81 68 81 68 75 51 48 37 38 52 43 54 71
46 24 31 49 56 55 59 49 43 46 83 93 133 72 56 56 102 77 77 36 26 43 44 57 73 89 134 135 126 118 105 100 98 87 84 81 78 75 50 35 31 30 21 30 38
47 36 45 55 65 66 67 54 34 41 56 81 83 72 28 83 120 125 91 39 46 58 72 84 91 129 142 134 138 122 143 96 92 81 92 81 66 58 38 33 28 27 39 52 47
10 6 18 32 43 37 37 46 48 52 55 48 58 81 60 137 173 133 67 50 61 61 76 80 110 144 155 151 145 124 118 108 76 70 79 78 72 52 41 33 27 36 54 60 54
13 13 17 17 27 42 59 60 67 109 90 55 72 107 114 159 128 81 38 90 85 81 77 88 113 136 131 126 118 118 96 77 60 55 53 50 43 39 35 11 22 47 63 51 66
6 -5 11 10 13 33 55 67 61 95 125 31 90 96 151 166 189 30 84 101 93 85 95 97 109 111 131 132 122 101 83 68 65 59 43 38 26 45 9 59 69 68 43 59 65
-1 -12 15 7 21 32 38 36 30 38 107 49 88 131 141 125 177 89 84 80 104 76 105 107 87 126 109 104 96 83 82 60 49 59 53 21 -11 -40 22 70 63 47 55 65 55
7 6 17 3 18 34 37 28 15 -43 52 79 84 57 125 177 213 162 161 155 117 124 111 88 84 122 125 79 84 82 58 80 66 71 52 38 54 31 63 89 83 72 62 54 58
33 82 4 2 23 11 21 0 43 -26 11 96 78 153 123 182 338 177 133 131 123 105 103 86 94 115 87 78 83 93 90 80 61 82 51 55 57 74 90 82 94 93 81 66 48
-6 -5 7 22 21 7 20 68 64 150 96 133 168 132 145 139 242 163 149 97 107 81 117 119 112 99 97 90 117 80 81 78 72 71 63 51 37 75 64 65 72 76 71 57 62
15 17 32 10 18 32 26 116 73 140 154 39 145 63 104 272 167 171 61 58 89 106 140 119 108 117 92 93 85 75 79 83 66 49 48 58 45 64 50 70 74 97 96 62 60
19 9 11 14 36 48 7 28 79 187 205 171 123 390 331 191 203 187 142 76 83 124 130 121 135 77 67 67 74 68 67 57 45 31 23 56 41 41 93 101 111 81 73 65 80
18 1 4 -23 41 119 65 58 140 222 110 217 304 308 229 153 163 166 145 137 136 161 150 121 92 43 63 54 45 46 46 52 45 36 6 3 23 89 93 71 63 51 50 53 59
-19 -22 7 35 62 155 157 49 185 173 181 181 223 189 212 180 166 139 136 103 91 89 92 82 44 38 37 34 22 48 12 19 27 17 39 72 52 43 91 72 59 55 42 43 46
111 108 -2 3 15 85 98 87 104 122 204 139 170 153 158 123 78 108 108 88 63 46 42 38 26 21 13 17 12 40 12 3 13 28 32 57 28 38 53 92 74 35 44 43 33
39 35 69 67 85 67 62 30 79 209 148 154 178 120 78 69 110 69 79 62 62 43 40 27 16 10 13 0 -10 10 17 -4 27 33 14 30 30 18 63 44 5 11 50 45 24
82 57 49 49 34 4 35 70 166 250 172 131 101 101 111 99 86 69 63 43 31 23 21 10 3 1 -6 -12 22 11 -3 24 27 27 13 119 47 -58 44 15 -24 -53 -45 -49 -25
78 133 103 54 22 38 78 123 130 135 93 89 64 38 67 86 73 67 61 55 55 47 19 40 38 -15 11 -1 8 4 7 5 -12 10 11 27 -37 21 23 -3 43 -35 -47 -60 -80
123 123 130 95 56 60 68 34 22 62 52 66 93 60 73 64 60 83 73 39 32 45 -5 -4 -9 24 24 16 -7 -15 7 6 25 33 10 15 42 78 27 -5 -20 -36 -20 -46 -51
151 180 178 125 111 122 106 51 73 91 79 92 61 68 62 68 74 73 64 52 58 58 58 51 33 30 19 31 37 11 1 23 40 16 15 46 20 61 40 39 22 24 5 -10 0
139 168 149 140 178 103 64 52 60 90 96 100 83 73 71 75 63 69 76 72 69 58 49 52 44 30 38 50 70 79 56 37 40 49 51 44 50 101 115 124 99 65 49 40 19
147 111 161 73 50 128 79 75 82 80 86 93 79 52 68 72 66 55 55 69 55 48 39 30 40 77 79 55 60 78 76 50 60 56 71 74 68 53 43 49 66 57 28 15 32
124 117 148 52 86 109 96 92 96 79 62 65 70 65 59 52 77 67 63 40 34 38 46 37 46 59 38 36 33 61 62 44 39 26 60 46 30 57 46 16 3 13 15 36 25
57 63 100 88 92 78 87 89 74 77 77 64 57 67 68 63 47 55 55 45 51 46 26 17 36 45 18 -4 3 15 36 41 34 22 16 46 26 73 64 44 31 31 37 31 25
32 74 86 87 89 70 74 81 77 65 61 44 60 41 55 57 55 46 44 32 23 15 14 23 29 30 46 36 25 19 31 44 70 42 34 23 61 79 98 94 72 57 36 27 34
50 74 62 76 95 79 58 65 60 72 62 57 48 46 34 43 39 39 28 30 29 15 25 14 10 3 4 11 68 103 95 84 81 73 84 76 60 48 75 90 82 72 66 55 52
41 44 71 68 74 77 68 64 57 65 54 45 44 46 35 14 22 24 28 24 21 21 17 21 24 14 53 17 26 77 104 153 102 81 89 92 51 93 115 115 93 82 84 79 70

GFSSW_con_3kmhel_105.txt.gz
Helicity
42 70 50 44 33 47 48 66 52 96 90 93 -24 128 97 23 32 35 117 109 63 28 59 49 51 64 80 74 75 74 87 84 76 69 71 53 56 43 51 41 30 26 33 44 63
64 79 65 62 50 63 67 66 60 48 57 36 70 50 131 39 64 62 67 68 42 29 46 50 52 55 100 89 92 99 119 125 110 104 100 76 81 73 50 39 21 13 13 21 35
58 68 50 64 74 67 59 42 46 45 54 53 22 78 57 54 120 97 58 39 46 46 64 76 66 80 94 81 114 104 172 79 80 94 95 88 72 67 52 45 20 52 64 70 62
38 27 24 33 56 69 69 56 65 65 69 46 50 56 120 129 191 104 67 40 54 65 59 61 66 97 83 78 92 109 116 107 84 77 84 87 76 50 27 30 54 58 57 57 52
40 26 28 17 28 42 57 62 50 67 81 55 52 117 135 170 176 71 75 75 68 67 77 80 87 112 100 92 86 97 83 75 77 72 72 66 48 46 43 47 55 67 50 38 47
29 17 17 22 15 21 40 46 38 58 83 83 62 90 170 168 196 148 81 82 88 81 92 94 103 114 120 116 144 111 91 86 82 77 58 61 59 62 38 84 71 55 45 47 50
-18 -35 -11 12 0 -2 -3 18 49 43 58 81 42 104 180 160 202 94 160 100 107 87 88 101 95 130 86 107 103 102 109 73 78 77 76 54 39 10 33 66 53 65 62 62 58
62 37 13 -2 3 9 16 16 16 24 47 82 33 79 204 143 262 198 15 51 113 131 105 105 101 122 128 99 97 105 101 99 76 65 58 46 70 45 52 57 74 81 77 84 86
21 34 16 17 13 21 28 4 13 31 11 53 54 112 116 266 163 72 28 64 78 106 103 103 124 128 103 106 126 91 111 90 41 34 48 23 70 104 84 67 62 79 95 77 84
-5 -12 43 41 26 13 15 -5 45 30 39 17 42 201 75 340 282 62 92 69 86 72 103 133 130 117 104 92 123 94 99 85 69 48 38 36 22 43 74 56 62 90 80 102 131
-16 11 21 15 18 15 13 58 96 132 181 80 -20 56 245 218 307 159 140 114 91 94 180 124 143 119 108 121 103 99 87 72 63 74 68 51 47 45 63 77 79 101 107 126 146
6 -7 -16 30 -12 32 47 53 78 93 160 313 13 163 260 208 248 194 189 205 185 162 152 149 144 109 87 84 81 79 84 81 85 72 49 49 34 29 66 138 139 123 140 143 126
-5 0 1 -9 38 36 20 107 137 176 104 317 333 244 287 178 189 254 237 151 124 121 118 126 106 58 72 98 92 76 97 103 74 64 -1 34 14 75 81 87 86 101 120 96 88
81 -3 22 52 59 57 96 103 109 119 206 234 262 166 228 157 147 199 108 88 74 71 87 92 56 62 72 76 71 76 76 66 56 59 59 72 77 50 96 56 65 60 94 63 57
51 118 38 44 95 49 44 84 45 105 214 143 148 130 164 120 72 90 116 124 92 85 74 65 46 46 55 64 32 72 44 31 24 17 35 87 59 44 61 66 107 112 97 93 59
49 38 63 20 20 -79 39 53 83 202 183 130 149 145 81 97 100 72 75 61 74 44 40 41 52 42 47 29 9 35 11 2 13 32 33 50 27 31 95 128 75 110 139 67 49
59 35 11 4 -4 -13 52 93 174 167 162 143 125 85 82 98 83 79 55 37 43 33 36 33 21 24 21 17 18 14 15 8 11 28 43 60 58 24 126 132 138 99 67 55 5
49 75 49 14 32 77 90 152 100 111 81 94 58 41 61 90 68 69 61 18 44 52 25 21 20 -2 14 9 15 13 22 36 21 37 41 75 38 94 180 101 110 74 52 73 72
101 82 72 40 41 55 98 26 5 23 40 51 86 57 75 54 68 78 49 37 42 47 10 -5 -1 -5 -7 10 5 23 12 10 -8 -23 -17 15 68 122 139 58 51 35 35 -17 -42
112 151 136 101 89 110 79 63 42 49 44 99 49 83 45 51 78 83 52 35 41 37 43 2 -7 8 2 23 11 12 7 -6 -6 -19 -25 17 60 65 82 103 79 68 58 28 16
92 111 119 149 131 63 94 57 50 59 73 87 70 60 40 37 43 40 46 48 35 27 34 39 36 7 16 34 22 17 12 23 29 23 7 5 17 28 37 63 66 71 69 58 34
55 77 62 97 56 99 81 69 97 78 95 75 64 41 46 62 67 62 42 31 24 32 45 21 37 52 42 16 34 42 40 33 36 24 46 42 30 78 50 54 27 21 11 -16 -21
47 70 91 48 71 71 64 68 60 51 43 58 42 38 45 49 60 33 33 21 24 31 27 12 38 48 33 13 5 33 29 26 10 10 38 1 39 75 65 68 32 6 0 -8 8
40 63 55 63 73 47 54 55 65 66 63 54 54 64 66 55 44 46 43 31 26 21 7 10 19 26 17 -1 -7 8 13 29 30 13 0 64 29 84 77 82 73 46 31 38 44
29 50 36 76 66 49 55 72 61 61 52 45 54 36 46 49 42 34 27 25 17 1 -4 -11 4 -3 21 29 35 65 61 77 110 93 55 37 22 30 82 108 110 90 70 55 46
30 37 61 39 50 62 60 50 40 44 43 38 36 33 23 29 26 28 20 10 8 -8 -12 -27 5 -16 14 19 41 96 110 125 136 145 119 87 63 43 64 131 135 122 105 91 80
33 45 52 50 47 53 39 44 39 42 38 26 26 26 28 20 13 15 21 16 15 21 23 25 32 16 70 26 37 77 109 133 118 115 111 95 47 69 80 122 132 121 121 99 79

GFSSW_con_3kmhel_108.txt.gz
Helicity
51 47 28 13 55 58 53 62 62 61 61 87 86 76 119 -23 74 93 200 139 70 36 62 60 71 96 121 96 130 128 145 105 109 120 33 36 47 42 47 38 46 51 56 39 54
40 40 52 84 71 59 65 75 81 47 34 66 93 116 85 29 58 117 72 71 63 39 67 62 83 64 102 98 92 140 182 197 163 179 95 56 83 65 55 43 34 21 33 71 79
14 44 58 84 89 84 72 70 85 63 53 42 94 119 73 77 53 91 34 48 72 88 113 89 82 105 128 98 121 110 202 87 93 117 130 84 45 68 44 41 27 92 77 50 35
23 27 28 37 67 74 83 84 58 51 63 58 58 138 113 186 125 96 45 25 68 139 111 91 80 122 116 121 124 128 100 116 76 68 78 73 68 49 27 42 52 54 52 45 35
32 39 36 35 32 55 55 43 33 54 53 51 60 56 133 176 183 62 90 48 59 110 106 92 85 117 98 112 110 130 85 81 74 47 41 51 41 30 53 39 66 87 56 35 34
30 31 35 30 30 29 41 33 26 43 65 55 60 3 200 193 200 103 126 66 77 91 114 147 143 152 141 98 133 128 103 75 69 66 50 57 55 72 32 61 58 36 31 33 44
47 25 18 11 17 21 33 58 55 61 52 41 39 46 157 167 219 217 93 150 111 127 122 175 133 161 102 105 102 94 78 37 45 66 65 64 60 11 25 81 46 68 68 72 79
59 45 30 27 12 18 26 18 31 44 63 68 51 74 134 158 214 271 222 151 198 173 150 152 160 182 145 100 79 94 97 78 78 46 71 71 75 29 60 -16 65 64 94 117 88
53 38 31 28 21 21 17 24 43 48 65 83 57 79 110 157 158 225 140 150 103 104 116 124 157 131 122 115 132 97 109 91 39 38 70 52 73 125 72 63 45 81 130 104 102
30 43 47 29 13 26 29 2 25 61 111 30 110 74 153 199 130 115 126 16 81 89 129 138 144 149 138 130 148 96 100 102 77 22 33 45 44 56 71 62 70 102 123 86 133
-20 4 21 19 27 21 80 12 50 140 186 71 102 80 227 297 206 140 165 12 36 113 154 120 162 163 125 146 116 141 125 79 87 92 51 33 36 59 68 71 154 162 159 177 152
-15 -27 -29 -14 14 42 105 60 67 60 144 197 70 182 323 367 181 167 140 66 49 91 67 118 170 103 92 94 97 109 103 107 104 81 54 66 56 75 63 169 246 176 154 129 136
-7 25 -10 -2 33 29 40 58 66 82 90 160 157 284 278 277 225 194 142 165 96 68 85 129 121 102 111 167 148 123 152 153 112 90 41 54 21 82 94 109 93 69 142 151 126
52 17 44 36 39 54 77 65 84 105 154 133 139 200 232 220 175 180 188 166 183 129 104 96 79 94 111 133 119 139 114 105 79 76 53 73 45 85 109 25 78 89 154 139 99
64 39 45 66 63 68 52 31 81 86 196 85 86 121 184 116 126 131 122 156 73 65 89 72 72 84 95 90 73 89 84 62 59 37 40 63 84 37 107 35 142 181 163 84 26
39 10 25 33 -1 -11 19 73 108 212 170 92 97 101 85 80 111 88 72 73 94 64 59 54 78 67 89 58 44 53 41 22 11 21 54 27 49 16 103 127 163 133 132 54 37
22 28 20 20 28 65 100 162 251 202 135 108 87 86 118 92 103 112 73 66 65 52 54 27 14 29 26 16 38 37 28 28 47 38 24 51 58 43 123 172 140 87 72 51 49
42 58 63 89 106 132 170 203 134 95 79 100 84 95 80 97 99 95 73 29 52 67 18 4 11 -1 19 15 18 25 31 43 24 37 39 82 31 27 121 160 175 91 45 46 37
92 83 121 59 14 67 95 119 74 90 90 97 118 85 89 65 66 73 47 33 32 77 8 -4 12 31 -1 16 18 14 16 33 16 3 4 -16 25 77 125 167 120 103 86 90 83
86 135 140 102 96 140 138 96 66 52 88 170 77 102 65 72 82 90 54 40 34 34 54 24 7 -9 24 11 5 10 -1 -4 -10 -18 -7 23 59 77 63 86 92 89 82 74 66
75 125 137 140 124 91 97 79 67 56 60 92 63 47 41 61 39 45 40 41 34 14 37 37 29 7 -3 20 23 7 5 3 4 6 6 3 2 32 18 64 46 43 34 14 12
78 72 132 86 75 77 61 39 65 66 86 71 58 35 34 57 48 48 39 27 12 18 26 4 30 33 34 26 11 29 16 4 -4 4 27 3 21 67 38 45 47 21 -2 -13 -30
70 89 100 73 88 104 112 85 58 59 41 50 48 33 59 40 56 44 36 18 19 28 20 17 30 31 15 -5 -19 1 5 9 -13 -29 23 22 35 85 72 70 64 45 31 14 6
58 47 55 65 76 64 79 70 78 82 71 56 59 81 85 56 47 55 40 24 9 4 -6 1 17 20 23 2 -13 8 1 49 68 57 40 144 91 130 107 97 95 81 85 69 45
35 60 63 40 45 52 51 65 71 64 55 60 59 40 38 61 49 40 28 22 19 8 -0 -8 16 6 14 41 66 94 119 161 246 205 98 61 29 26 110 180 171 121 103 91 71
44 34 64 57 57 58 62 41 34 50 45 42 36 41 41 30 28 31 22 20 7 11 -8 -9 43 2 16 58 63 75 97 146 183 220 202 141 68 49 69 183 221 184 143 102 74
33 42 42 44 49 51 27 20 16 29 36 25 27 34 30 3 -5 -4 3 3 19 30 35 24 22 -0 59 4 -16 37 124 194 161 178 214 174 164 1 64 103 177 179 151 121 114

GFSSW_con_3kmhel_111.txt.gz
Helicity
51 62 65 100 182 177 42 47 36 38 58 102 135 156 190 66 98 121 163 148 112 31 50 79 126 196 162 173 200 203 228 268 342 263 196 119 115 103 59 68 63 67 69 55 59
55 41 19 30 35 -30 6 32 36 41 49 84 129 142 154 23 50 143 96 79 111 88 98 68 102 134 152 135 155 155 196 226 226 178 97 81 87 72 70 78 54 57 73 53 37
20 33 53 51 30 46 69 57 49 54 47 50 116 127 94 85 76 146 90 70 91 111 138 141 68 130 153 144 162 150 166 134 160 121 116 86 75 69 58 48 67 43 31 41 11
-1 5 27 34 33 70 73 70 57 49 52 56 78 107 14 138 181 90 125 89 86 129 214 128 107 124 137 141 157 137 154 115 78 98 85 71 57 62 53 17 31 19 32 31 47
9 18 26 31 44 60 60 30 28 43 62 66 59 51 155 169 142 129 193 69 99 143 207 176 147 137 110 129 144 135 101 97 75 76 59 47 40 28 26 3 32 55 45 17 18
26 30 29 28 33 49 73 64 47 52 60 60 63 47 165 178 196 94 172 74 114 149 188 256 259 166 131 119 133 103 92 71 66 56 50 49 37 67 31 28 40 28 24 39 67
30 17 16 4 33 46 102 79 70 51 55 62 84 65 126 205 160 137 159 145 149 171 180 235 229 200 175 135 111 104 101 87 63 46 50 49 52 18 -23 19 27 45 107 109 86
54 20 13 -10 19 22 31 38 26 42 62 70 91 105 154 244 218 160 278 151 160 161 148 189 180 155 159 126 153 121 115 99 63 57 59 73 62 39 5 33 32 66 102 123 145
17 18 19 16 13 13 1 30 53 75 86 90 103 144 138 201 259 247 121 116 129 151 153 154 139 140 151 168 199 158 112 88 92 49 66 64 52 36 64 65 38 79 102 117 154
24 24 13 17 19 36 6 39 101 113 161 36 90 104 136 148 255 313 188 95 104 130 153 139 136 157 165 168 136 109 110 115 90 50 54 55 42 12 35 86 71 145 181 177 137
-17 31 18 11 36 83 24 49 100 172 202 105 60 139 204 253 426 271 300 199 135 161 156 150 180 180 129 108 106 125 124 105 100 50 38 44 33 62 84 88 161 210 213 156 115
-0 -27 -10 15 17 36 46 57 73 73 146 230 233 211 195 208 109 328 190 364 234 229 127 181 180 117 103 125 120 137 125 123 80 62 40 56 57 96 69 99 160 190 171 163 133
15 16 5 30 22 84 76 50 42 60 123 195 286 252 276 240 136 205 143 153 173 197 240 155 119 82 114 154 142 135 133 103 88 101 92 72 24 64 95 87 105 149 193 168 141
33 41 28 39 30 63 61 48 84 100 165 169 146 113 200 209 91 108 194 132 156 94 115 174 112 109 145 175 151 136 138 102 86 62 35 43 6 46 76 70 80 178 181 146 125
77 96 62 46 65 31 34 87 105 49 190 110 101 116 154 92 78 108 148 149 94 72 65 91 98 118 135 112 109 86 86 85 63 37 19 47 68 34 58 60 158 154 153 136 99
-4 -1 -8 12 -3 43 67 65 40 119 137 100 105 125 101 136 103 100 127 95 110 118 94 69 64 78 86 77 89 77 66 30 -1 14 37 31 65 17 39 62 194 191 165 114 82
66 32 42 30 66 79 97 71 99 145 114 94 83 83 79 73 116 108 89 88 84 97 105 60 52 47 52 31 44 36 48 32 41 48 27 32 53 -3 43 93 141 135 91 54 53
98 113 89 84 115 120 141 115 79 106 72 89 94 100 95 85 120 68 44 51 71 42 17 37 53 6 12 4 -4 20 25 40 23 41 2 57 12 3 40 86 110 86 48 40 42
67 79 115 123 117 146 141 82 84 129 87 77 114 113 111 110 78 101 51 58 54 54 19 -2 13 39 13 16 18 11 11 30 16 -3 10 -1 7 17 33 24 92 80 59 48 49
92 123 125 121 132 107 92 90 52 61 71 139 129 74 73 77 72 75 67 54 46 41 32 34 3 33 24 22 7 7 21 11 13 5 -14 9 6 21 11 37 79 79 59 45 12
100 101 100 106 75 66 105 86 63 49 63 81 71 57 76 80 82 54 52 53 25 33 43 40 20 -10 13 2 34 5 9 -10 -11 -14 -8 1 10 26 27 36 33 36 34 10 -28
90 54 134 108 52 89 92 85 81 94 90 75 50 40 62 75 42 44 48 43 28 36 39 31 20 34 53 28 39 29 -1 -8 -11 -3 -0 -14 12 51 60 29 28 28 28 21 -15
81 96 92 69 80 91 85 67 69 54 51 41 50 47 50 47 63 58 45 34 27 29 52 28 42 30 29 14 14 18 30 31 9 1 37 64 19 68 48 30 34 46 42 49 4
53 55 58 56 73 63 64 81 68 73 72 61 62 51 63 75 59 85 70 49 28 13 1 -4 26 31 50 9 -2 34 43 63 136 107 104 236 111 90 63 50 46 54 84 87 67
26 63 70 56 58 53 55 53 65 61 49 56 52 35 49 65 59 46 32 22 17 6 -0 -8 31 35 50 55 63 93 101 114 241 248 137 73 91 65 28 65 132 139 129 155 116
42 32 23 50 51 42 35 41 34 35 28 33 32 38 29 32 34 34 11 14 23 6 -0 -12 36 -5 28 10 33 59 99 147 172 203 235 190 85 80 77 79 138 186 198 189 163
17 15 27 41 34 47 57 61 64 62 54 50 47 39 46 35 20 22 21 8 11 4 12 6 9 -15 47 6 -5 44 87 171 163 224 316 249 278 159 47 56 112 161 210 192 171

GFSSW_con_3kmhel_114.txt.gz
Helicity
27 37 63 84 78 37 176 72 50 55 63 80 165 180 115 82 74 130 177 135 115 104 105 126 158 199 199 197 186 188 257 333 330 265 211 187 144 145 109 118 129 129 91 45 27
51 48 44 37 9 39 124 158 40 34 53 50 106 176 147 28 103 192 154 143 113 121 159 139 145 161 210 190 185 212 256 294 269 201 157 138 114 132 113 126 102 77 66 49 42
51 38 27 36 -2 -0 -57 -23 -9 14 43 70 80 147 150 168 71 177 167 159 117 98 139 181 146 168 193 194 190 196 190 173 228 190 142 104 120 88 78 63 61 52 40 21 -2
17 20 25 37 20 -13 -41 7 -16 28 44 59 105 82 93 167 38 115 226 157 131 99 157 162 163 201 198 175 175 183 208 131 122 143 124 94 85 73 45 30 49 9 15 22 46
13 20 29 36 35 45 44 42 29 32 61 79 85 90 116 136 102 156 248 189 141 155 160 176 203 201 174 152 170 155 139 140 102 91 87 72 71 50 38 15 30 23 58 66 77
22 16 25 28 39 36 54 56 54 42 56 89 95 65 165 70 288 87 150 235 200 196 173 203 250 195 184 178 149 119 124 97 92 78 68 68 55 63 55 50 47 63 76 97 145
15 5 10 18 43 47 61 73 97 69 73 96 93 87 131 192 201 172 201 307 207 203 198 214 179 187 213 200 165 123 124 110 89 76 62 51 60 30 34 54 43 73 96 169 151
5 9 25 12 30 38 46 62 79 109 92 89 102 107 135 143 216 222 357 238 174 162 140 180 128 148 199 146 224 172 152 115 85 73 68 70 50 48 14 43 35 55 126 183 157
5 -0 21 14 -5 17 14 22 37 83 87 87 116 110 140 199 202 172 141 155 107 137 162 141 141 160 187 182 226 215 141 123 111 64 73 74 62 61 75 74 59 57 117 155 142
-0 -3 12 11 35 -11 -22 29 83 96 180 87 125 95 132 164 173 194 134 296 104 136 172 161 165 191 188 188 157 135 152 150 123 89 72 69 41 33 22 26 48 76 175 165 164
8 5 -5 20 61 14 21 42 85 119 221 89 119 109 184 274 257 177 33 220 139 128 159 172 194 201 156 134 100 126 144 135 115 73 68 64 44 58 39 40 92 153 179 164 164
18 14 -5 -10 -4 16 33 44 68 63 137 211 220 173 253 312 232 219 172 71 164 154 124 182 218 151 122 126 134 156 138 139 96 62 59 74 65 69 50 66 126 165 164 154 146
46 38 20 14 43 51 66 62 62 104 79 191 232 188 198 285 250 339 265 135 100 219 136 139 140 123 117 162 170 197 126 122 96 96 73 64 60 69 106 130 155 155 150 160 127
39 40 25 24 18 50 58 70 89 92 104 115 115 135 106 126 274 310 299 232 153 149 155 141 154 117 144 172 132 158 103 104 111 112 86 87 15 57 84 70 98 116 135 120 117
37 17 12 38 30 18 71 61 41 39 138 101 90 109 152 53 114 289 155 208 160 171 109 175 148 174 190 156 106 110 70 85 76 71 77 64 58 20 55 51 62 121 132 136 131
22 12 13 11 9 36 34 43 55 74 123 89 99 110 63 130 138 131 139 93 93 105 150 142 106 129 137 106 106 84 96 93 69 50 52 43 63 40 47 31 74 173 173 159 139
51 39 37 18 29 21 31 49 88 124 116 126 112 95 73 95 128 116 115 111 74 72 114 132 134 104 82 101 95 80 86 52 55 95 57 51 71 14 27 56 70 146 158 154 136
65 28 35 49 68 62 47 36 72 104 78 67 76 99 91 102 125 93 105 107 78 45 65 72 84 59 36 37 22 57 40 52 68 73 60 38 15 30 31 45 61 71 99 92 116
116 94 77 105 104 107 82 67 79 107 76 88 108 102 97 87 50 69 84 73 66 41 33 36 58 53 26 14 18 4 24 27 37 10 -9 5 7 -8 28 -7 -13 52 72 78 76
115 142 147 136 126 106 57 73 45 58 69 96 105 86 48 51 67 70 73 53 53 41 34 31 15 36 40 41 34 26 18 20 23 -18 -27 -12 -9 2 -0 -13 28 44 60 45 48
75 101 102 101 90 62 101 68 64 60 61 96 78 50 58 75 71 61 60 58 47 39 41 42 20 19 27 29 11 14 8 12 20 19 -22 -3 7 -0 48 32 16 11 14 25 28
90 71 105 72 54 93 94 76 67 64 75 76 73 60 62 56 59 58 58 72 43 41 41 26 23 -2 36 21 22 35 -0 -11 -20 1 -0 -14 1 -13 42 44 5 -4 -5 6 22
69 86 84 66 79 82 76 67 70 55 63 57 48 38 28 48 61 53 45 38 20 19 34 26 34 36 36 19 23 15 -0 4 -25 -29 21 41 20 3 -43 -19 -38 17 28 46 63
47 47 48 50 67 77 73 74 69 68 66 58 52 39 41 51 39 58 50 32 16 6 -16 -2 14 16 39 -1 -30 9 20 66 101 68 87 228 105 49 47 47 47 60 55 99 115
38 52 29 36 43 54 46 58 66 58 50 47 52 47 55 68 56 51 35 23 12 1 -5 -6 39 37 54 80 78 102 111 143 266 261 199 135 186 179 114 111 88 95 126 156 127
29 43 23 44 30 41 37 63 58 55 52 45 38 33 23 40 39 45 18 18 27 11 17 6 43 17 40 42 64 79 112 165 227 238 266 245 156 136 144 119 71 92 137 167 162
18 9 16 49 44 47 56 58 58 54 53 54 50 34 39 41 31 20 18 8 12 22 45 34 30 8 53 2 3 75 201 273 205 214 302 242 306 43 30 70 81 70 120 154 169

GFSSW_con_3kmhel_117.txt.gz
Helicity
33 37 22 26 82 154 197 177 121 63 66 80 82 50 8 48 90 129 199 168 123 98 152 213 204 194 231 248 232 209 285 300 266 239 209 197 181 157 129 147 144 116 89 73 49
20 22 45 25 52 52 -29 -34 171 95 73 78 71 85 136 33 153 181 212 198 148 107 156 217 200 191 261 261 260 258 269 230 245 224 184 192 163 136 122 147 145 117 90 58 49
20 29 22 22 9 22 -28 54 82 82 43 93 95 69 75 62 188 183 232 227 165 127 127 169 208 186 249 256 264 258 227 187 222 192 186 176 160 119 112 111 92 84 46 30 29
30 40 24 20 -0 -17 -10 -38 -12 87 46 88 115 77 31 187 56 237 210 281 148 159 159 179 211 247 235 234 231 243 251 207 174 190 168 148 126 122 80 64 61 46 40 43 56
33 21 26 17 12 19 9 -1 -6 15 42 69 97 116 129 193 16 98 257 234 183 195 179 172 214 201 218 196 216 220 200 221 174 160 137 113 104 71 46 18 40 29 53 64 80
8 8 15 18 10 27 32 35 31 43 60 72 55 145 147 112 129 113 274 194 201 189 189 182 175 154 201 219 195 155 177 162 155 128 120 92 79 73 55 58 54 62 84 95 103
-2 21 16 20 20 43 40 49 56 52 59 73 63 92 170 141 143 95 377 206 208 163 175 173 155 186 202 221 213 218 204 158 144 103 96 67 62 51 50 82 86 89 98 119 114
9 14 10 4 10 22 10 45 56 69 69 85 69 86 105 142 123 90 318 266 214 145 146 134 135 139 239 184 249 212 189 151 123 100 92 86 87 86 49 71 79 76 95 118 119
4 14 19 9 -4 -10 27 56 82 104 124 92 94 75 82 160 145 162 227 324 287 173 167 129 136 195 210 206 243 227 159 151 135 94 85 88 74 73 81 68 66 45 113 135 149
16 18 11 19 13 8 19 27 81 99 189 140 97 87 87 107 173 111 249 323 259 198 206 175 160 187 205 188 173 134 140 155 124 87 83 74 40 35 42 61 38 51 113 158 143
18 22 10 32 17 6 36 79 84 131 206 110 111 75 152 140 169 174 222 268 228 225 203 209 190 202 179 147 97 108 126 126 118 84 84 62 40 36 24 46 62 77 130 183 163
18 30 10 15 3 31 11 55 65 34 121 263 166 137 191 182 122 145 124 306 268 265 219 231 216 181 141 132 125 163 144 147 113 80 84 86 56 61 52 69 85 141 169 178 183
35 17 10 18 35 74 98 77 68 98 96 172 153 207 160 169 125 100 73 222 221 247 233 186 177 150 136 146 158 190 127 121 103 101 78 94 83 101 104 120 147 141 148 167 145
16 14 1 34 16 68 72 88 58 67 175 137 110 104 179 190 124 164 105 104 110 133 177 161 167 129 145 153 127 153 117 115 122 125 101 103 64 75 105 119 114 121 120 126 122
11 1 -4 33 35 9 55 28 30 29 141 114 95 66 141 114 154 182 138 109 126 123 104 177 139 138 152 147 112 108 93 118 114 113 110 106 93 27 92 77 46 59 87 107 121
28 26 13 -7 -4 35 42 31 38 60 92 79 86 59 144 158 191 177 178 160 99 156 167 144 136 123 111 117 109 78 114 137 107 95 58 70 89 48 63 57 55 73 114 128 118
43 22 27 23 37 24 23 33 70 121 113 102 68 101 129 101 165 135 138 203 103 129 213 220 171 123 93 149 111 106 116 43 3 48 29 83 87 34 42 35 46 46 88 105 109
71 59 33 23 29 40 41 46 77 98 29 87 103 89 98 133 117 125 99 71 80 88 118 100 122 84 69 80 67 91 81 41 21 54 65 67 59 45 50 53 63 56 63 80 75
88 81 87 91 88 69 66 18 71 104 77 79 115 105 84 81 61 92 87 57 50 59 42 54 87 88 55 62 59 44 50 35 50 32 55 53 5 -1 29 35 43 22 34 51 64
72 93 122 110 97 89 67 74 50 72 70 87 85 79 77 95 80 73 62 48 40 42 34 26 41 41 47 46 37 26 24 39 53 54 35 3 -10 -2 32 2 -11 -13 45 51 50
56 82 90 73 76 55 85 82 79 82 87 102 79 55 64 80 71 71 64 60 38 36 36 33 31 24 26 10 -3 21 14 29 29 24 -23 -48 -22 -23 13 54 43 14 26 37 48
77 74 61 39 53 68 81 62 66 65 58 60 66 56 62 61 69 65 53 53 30 33 48 41 33 9 12 33 11 -18 1 23 21 -9 -23 -44 -2 40 50 58 46 -7 24 46 55
63 76 62 44 91 69 74 65 71 68 65 62 52 48 62 70 70 57 50 42 28 20 31 28 37 18 30 23 7 15 13 -2 -27 -38 19 27 13 14 -17 -13 4 -15 2 32 47
55 32 41 40 41 64 62 76 70 67 64 58 62 51 51 52 41 53 46 35 20 17 -0 3 26 33 35 -4 -33 -3 -8 53 72 55 66 216 121 58 44 30 31 48 56 60 63
34 60 44 45 37 25 31 35 39 52 50 43 45 41 51 60 50 53 39 33 18 13 5 -4 18 14 29 54 58 72 55 85 227 239 181 83 165 165 92 79 104 62 49 76 88
54 53 30 41 30 34 31 44 60 49 40 31 31 30 25 37 44 57 38 36 39 23 25 24 44 19 57 37 78 136 123 148 215 216 270 272 254 170 158 43 51 93 38 41 94
22 21 41 34 36 38 49 47 46 35 42 39 47 44 49 44 34 29 26 12 17 39 68 48 43 25 48 -3 23 81 84 162 171 211 284 230 371 131 123 90 50 -5 12 47 75